Time,TemperatureF,DewpointF,PressureIn,WindDirection,WindDirectionDegrees,WindSpeedMPH,WindSpeedGustMPH,Humidity,HourlyPrecipIn,Conditions,Clouds,dailyrainin,SoftwareType,DateUTC
2013-02-11 00:00:00,45.8,27.7,30.04,SE,130,6.0,10.0,49,0.00,,SKC,0.00,VWS V13.01,2013-02-11 08:00:00,
2013-02-11 00:01:00,45.8,27.7,30.04,SE,130,6.0,6.0,49,0.00,,SKC,0.00,VWS V13.01,2013-02-11 08:01:00,
2013-02-11 00:02:00,45.8,27.7,30.04,SE,130,6.0,6.0,49,0.00,,SKC,0.00,VWS V13.01,2013-02-11 08:02:00,
2013-02-11 00:03:00,45.8,27.7,30.04,SE,130,6.0,6.0,49,0.00,,SKC,0.00,VWS V13.01,2013-02-11 08:03:00,
2013-02-11 00:04:00,45.4,27.4,30.04,SE,130,7.0,7.0,49,0.00,,SKC,0.00,VWS V13.01,2013-02-11 08:04:00,
2013-02-11 00:05:00,45.4,27.4,30.04,SE,130,6.0,11.0,49,0.00,,SKC,0.00,VWS V13.01,2013-02-11 08:05:00,
2013-02-11 00:06:00,45.4,27.4,30.04,SE,137,7.0,9.0,49,0.00,,SKC,0.00,VWS V13.01,2013-02-11 08:06:00,
2013-02-11 00:07:00,45.4,27.4,30.04,SE,132,5.0,9.0,49,0.00,,SKC,0.00,VWS V13.01,2013-02-11 08:07:00,
2013-02-11 00:08:00,45.4,27.4,30.04,SE,133,2.0,9.0,49,0.00,,SKC,0.00,VWS V13.01,2013-02-11 08:08:00,
2013-02-11 00:09:00,45.4,27.4,30.04,SE,133,5.0,9.0,49,0.00,,SKC,0.00,VWS V13.01,2013-02-11 08:09:00,
2013-02-11 00:10:00,45.4,27.4,30.04,SE,127,4.0,9.0,49,0.00,,SKC,0.00,VWS V13.01,2013-02-11 08:10:00,
2013-02-11 00:11:00,45.3,27.3,30.04,ESE,115,4.0,4.0,49,0.00,,SKC,0.00,VWS V13.01,2013-02-11 08:11:00,
2013-02-11 00:12:00,45.2,27.2,30.04,ESE,120,4.0,4.0,49,0.00,,SKC,0.00,VWS V13.01,2013-02-11 08:12:00,
2013-02-11 00:13:00,45.2,27.2,30.04,ESE,118,3.0,4.0,49,0.00,,SKC,0.00,VWS V13.01,2013-02-11 08:13:00,
2013-02-11 00:14:00,45.2,27.2,30.04,ESE,122,3.0,4.0,49,0.00,,SKC,0.00,VWS V13.01,2013-02-11 08:14:00,
2013-02-11 00:15:00,45.1,27.6,30.04,SE,134,3.0,7.0,50,0.00,,SKC,0.00,VWS V13.01,2013-02-11 08:15:00,
2013-02-11 00:16:00,45.0,27.5,30.04,SE,126,3.0,7.0,50,0.00,,SKC,0.00,VWS V13.01,2013-02-11 08:16:00,
2013-02-11 00:17:00,45.0,27.5,30.04,SE,127,5.0,7.0,50,0.00,,SKC,0.00,VWS V13.01,2013-02-11 08:17:00,
2013-02-11 00:18:00,44.9,27.9,30.04,SE,132,4.0,7.0,51,0.00,,SKC,0.00,VWS V13.01,2013-02-11 08:18:00,
2013-02-11 00:19:00,44.8,27.8,30.04,SE,132,3.0,7.0,51,0.00,,SKC,0.00,VWS V13.01,2013-02-11 08:19:00,
2013-02-11 00:20:00,44.7,27.2,30.04,ESE,123,7.0,7.0,50,0.00,,SKC,0.00,VWS V13.01,2013-02-11 08:20:00,
2013-02-11 00:21:00,44.6,27.1,30.04,SE,129,3.0,6.0,50,0.00,,SKC,0.00,VWS V13.01,2013-02-11 08:21:00,
2013-02-11 00:22:00,44.6,27.1,30.04,ESE,119,2.0,6.0,50,0.00,,SKC,0.00,VWS V13.01,2013-02-11 08:22:00,
2013-02-11 00:23:00,44.5,27.0,30.04,SE,131,2.0,6.0,50,0.00,,SKC,0.00,VWS V13.01,2013-02-11 08:23:00,
2013-02-11 00:24:00,44.5,27.0,30.05,ESE,109,3.0,7.0,50,0.00,,SKC,0.00,VWS V13.01,2013-02-11 08:24:00,
2013-02-11 00:25:00,44.5,27.0,30.04,ESE,121,3.0,7.0,50,0.00,,SKC,0.00,VWS V13.01,2013-02-11 08:25:00,
2013-02-11 00:26:00,44.4,26.9,30.04,East,99,3.0,5.0,50,0.00,,SKC,0.00,VWS V13.01,2013-02-11 08:26:00,
2013-02-11 00:27:00,44.4,26.5,30.05,SE,132,3.0,6.0,49,0.00,,SKC,0.00,VWS V13.01,2013-02-11 08:27:00,
2013-02-11 00:28:00,44.5,26.5,30.04,East,94,4.0,6.0,49,0.00,,SKC,0.00,VWS V13.01,2013-02-11 08:28:00,
2013-02-11 00:29:00,44.5,26.5,30.04,East,88,2.0,6.0,49,0.00,,SKC,0.00,VWS V13.01,2013-02-11 08:29:00,
2013-02-11 00:30:00,44.5,26.5,30.04,East,91,4.0,6.0,49,0.00,,SKC,0.00,VWS V13.01,2013-02-11 08:30:00,
2013-02-11 00:31:00,44.4,26.5,30.04,East,90,3.0,4.0,49,0.00,,SKC,0.00,VWS V13.01,2013-02-11 08:31:00,
2013-02-11 00:32:00,44.4,26.9,30.05,East,91,1.0,4.0,50,0.00,,SKC,0.00,VWS V13.01,2013-02-11 08:32:00,
2013-02-11 00:33:00,44.3,26.9,30.05,East,90,2.0,4.0,50,0.00,,SKC,0.00,VWS V13.01,2013-02-11 08:33:00,
2013-02-11 00:34:00,44.1,27.1,30.05,East,90,3.0,4.0,51,0.00,,SKC,0.00,VWS V13.01,2013-02-11 08:34:00,
2013-02-11 00:35:00,43.8,26.9,30.05,East,90,4.0,4.0,51,0.00,,SKC,0.00,VWS V13.01,2013-02-11 08:35:00,
2013-02-11 00:36:00,43.6,26.7,30.05,East,90,2.0,3.0,51,0.00,,SKC,0.00,VWS V13.01,2013-02-11 08:36:00,
2013-02-11 00:37:00,43.4,26.5,30.05,East,90,2.0,4.0,51,0.00,,SKC,0.00,VWS V13.01,2013-02-11 08:37:00,
2013-02-11 00:38:00,43.3,26.4,30.05,East,90,3.0,4.0,51,0.00,,SKC,0.00,VWS V13.01,2013-02-11 08:38:00,
2013-02-11 00:39:00,43.1,26.2,30.05,East,90,1.0,4.0,51,0.00,,SKC,0.00,VWS V13.01,2013-02-11 08:39:00,
2013-02-11 00:40:00,42.9,26.0,30.05,East,90,3.0,4.0,51,0.00,,SKC,0.00,VWS V13.01,2013-02-11 08:40:00,
2013-02-11 00:41:00,42.8,25.9,30.05,East,90,1.0,3.0,51,0.00,,SKC,0.00,VWS V13.01,2013-02-11 08:41:00,
2013-02-11 00:42:00,42.7,25.9,30.05,East,90,2.0,3.0,51,0.00,,SKC,0.00,VWS V13.01,2013-02-11 08:42:00,
2013-02-11 00:43:00,42.6,26.2,30.05,East,90,2.0,3.0,52,0.00,,SKC,0.00,VWS V13.01,2013-02-11 08:43:00,
2013-02-11 00:44:00,42.5,26.1,30.05,East,90,2.0,3.0,52,0.00,,SKC,0.00,VWS V13.01,2013-02-11 08:44:00,
2013-02-11 00:45:00,42.4,26.0,30.05,East,90,1.0,3.0,52,0.00,,SKC,0.00,VWS V13.01,2013-02-11 08:45:00,
2013-02-11 00:46:00,42.3,25.9,30.05,East,90,0.0,1.0,52,0.00,,SKC,0.00,VWS V13.01,2013-02-11 08:46:00,
2013-02-11 00:47:00,42.2,25.9,30.05,East,90,0.0,1.0,52,0.00,,SKC,0.00,VWS V13.01,2013-02-11 08:47:00,
2013-02-11 00:48:00,42.1,25.8,30.05,East,90,0.0,1.0,52,0.00,,SKC,0.00,VWS V13.01,2013-02-11 08:48:00,
2013-02-11 00:49:00,41.9,25.6,30.05,East,90,0.0,1.0,52,0.00,,SKC,0.00,VWS V13.01,2013-02-11 08:49:00,
2013-02-11 00:50:00,41.9,25.6,30.05,East,90,0.0,1.0,52,0.00,,SKC,0.00,VWS V13.01,2013-02-11 08:50:00,
2013-02-11 00:51:00,41.9,25.6,30.05,East,90,0.0,0.0,52,0.00,,SKC,0.00,VWS V13.01,2013-02-11 08:51:00,
2013-02-11 00:52:00,42.0,25.7,30.05,East,90,1.0,1.0,52,0.00,,SKC,0.00,VWS V13.01,2013-02-11 08:52:00,
2013-02-11 00:53:00,42.0,26.1,30.05,East,90,4.0,4.0,53,0.00,,SKC,0.00,VWS V13.01,2013-02-11 08:53:00,
2013-02-11 00:54:00,42.0,26.1,30.05,East,90,4.0,4.0,53,0.00,,SKC,0.00,VWS V13.01,2013-02-11 08:54:00,
2013-02-11 00:55:00,41.9,26.5,30.05,East,90,3.0,4.0,54,0.00,,SKC,0.00,VWS V13.01,2013-02-11 08:55:00,
2013-02-11 00:56:00,41.8,26.4,30.05,SE,130,3.0,4.0,54,0.00,,SKC,0.00,VWS V13.01,2013-02-11 08:56:00,
2013-02-11 00:57:00,41.8,25.9,30.05,SSE,153,3.0,6.0,53,0.00,,SKC,0.00,VWS V13.01,2013-02-11 08:57:00,
2013-02-11 00:58:00,41.9,26.0,30.06,SSE,153,4.0,6.0,53,0.00,,SKC,0.00,VWS V13.01,2013-02-11 08:58:00,
2013-02-11 00:59:00,41.9,26.9,30.06,SE,146,4.0,6.0,55,0.00,,SKC,0.00,VWS V13.01,2013-02-11 08:59:00,
2013-02-11 01:00:00,41.9,26.9,30.06,SE,144,4.0,6.0,55,0.00,,SKC,0.00,VWS V13.01,2013-02-11 09:00:00,
2013-02-11 01:01:00,41.9,26.9,30.05,SE,141,4.0,5.0,55,0.00,,SKC,0.00,VWS V13.01,2013-02-11 09:01:00,
2013-02-11 01:02:00,41.9,26.9,30.05,SE,141,4.0,5.0,55,0.00,,SKC,0.00,VWS V13.01,2013-02-11 09:02:00,
2013-02-11 01:03:00,41.8,27.3,30.05,SE,141,4.0,5.0,56,0.00,,SKC,0.00,VWS V13.01,2013-02-11 09:03:00,
2013-02-11 01:04:00,41.7,27.2,30.05,SE,140,4.0,5.0,56,0.00,,SKC,0.00,VWS V13.01,2013-02-11 09:04:00,
2013-02-11 01:05:00,41.6,27.1,30.05,SE,140,3.0,5.0,56,0.00,,SKC,0.00,VWS V13.01,2013-02-11 09:05:00,
2013-02-11 01:06:00,41.5,26.5,30.05,ESE,116,5.0,5.0,55,0.00,,SKC,0.00,VWS V13.01,2013-02-11 09:06:00,
2013-02-11 01:07:00,41.5,26.1,30.05,ESE,117,2.0,5.0,54,0.00,,SKC,0.00,VWS V13.01,2013-02-11 09:07:00,
2013-02-11 01:08:00,41.5,26.1,30.05,ESE,115,3.0,5.0,54,0.00,,SKC,0.00,VWS V13.01,2013-02-11 09:08:00,
2013-02-11 01:09:00,41.6,26.2,30.05,ESE,114,3.0,5.0,54,0.00,,SKC,0.00,VWS V13.01,2013-02-11 09:09:00,
2013-02-11 01:10:00,41.7,26.3,30.05,ESE,107,4.0,5.0,54,0.00,,SKC,0.00,VWS V13.01,2013-02-11 09:10:00,
2013-02-11 01:11:00,41.9,26.0,30.05,ESE,114,3.0,5.0,53,0.00,,SKC,0.00,VWS V13.01,2013-02-11 09:11:00,
2013-02-11 01:12:00,42.1,26.2,30.05,East,92,5.0,5.0,53,0.00,,SKC,0.00,VWS V13.01,2013-02-11 09:12:00,
2013-02-11 01:13:00,42.2,26.3,30.05,ESE,111,3.0,5.0,53,0.00,,SKC,0.00,VWS V13.01,2013-02-11 09:13:00,
2013-02-11 01:14:00,42.3,25.9,30.05,ESE,111,3.0,5.0,52,0.00,,SKC,0.00,VWS V13.01,2013-02-11 09:14:00,
2013-02-11 01:15:00,42.5,26.1,30.05,ESE,114,5.0,6.0,52,0.00,,SKC,0.00,VWS V13.01,2013-02-11 09:15:00,
2013-02-11 01:16:00,42.6,26.2,30.05,ESE,115,5.0,6.0,52,0.00,,SKC,0.00,VWS V13.01,2013-02-11 09:16:00,
2013-02-11 01:17:00,42.7,26.3,30.05,ESE,103,3.0,6.0,52,0.00,,SKC,0.00,VWS V13.01,2013-02-11 09:17:00,
2013-02-11 01:18:00,42.8,26.4,30.05,East,101,2.0,6.0,52,0.00,,SKC,0.00,VWS V13.01,2013-02-11 09:18:00,
2013-02-11 01:19:00,42.9,26.0,30.05,East,97,5.0,6.0,51,0.00,,SKC,0.00,VWS V13.01,2013-02-11 09:19:00,
2013-02-11 01:20:00,43.0,26.1,30.05,East,101,2.0,6.0,51,0.00,,SKC,0.00,VWS V13.01,2013-02-11 09:20:00,
2013-02-11 01:21:00,43.2,26.3,30.05,ESE,108,4.0,5.0,51,0.00,,SKC,0.00,VWS V13.01,2013-02-11 09:21:00,
2013-02-11 01:22:00,43.3,25.9,30.05,ESE,110,4.0,6.0,50,0.00,,SKC,0.00,VWS V13.01,2013-02-11 09:22:00,
2013-02-11 01:23:00,43.5,26.1,30.05,ESE,120,6.0,9.0,50,0.00,,SKC,0.00,VWS V13.01,2013-02-11 09:23:00,
2013-02-11 01:24:00,43.8,25.9,30.04,ESE,113,3.0,9.0,49,0.00,,SKC,0.00,VWS V13.01,2013-02-11 09:24:00,
2013-02-11 01:25:00,44.0,26.1,30.04,ESE,111,3.0,9.0,49,0.00,,SKC,0.00,VWS V13.01,2013-02-11 09:25:00,
2013-02-11 01:26:00,44.2,25.8,30.05,ESE,117,7.0,8.0,48,0.00,,SKC,0.00,VWS V13.01,2013-02-11 09:26:00,
2013-02-11 01:27:00,44.5,26.0,30.04,East,99,3.0,9.0,48,0.00,,SKC,0.00,VWS V13.01,2013-02-11 09:27:00,
2013-02-11 01:28:00,44.7,26.2,30.04,ESE,107,5.0,9.0,48,0.00,,SKC,0.00,VWS V13.01,2013-02-11 09:28:00,
2013-02-11 01:29:00,45.0,26.0,30.04,ESE,111,3.0,9.0,47,0.00,,SKC,0.00,VWS V13.01,2013-02-11 09:29:00,
2013-02-11 01:30:00,45.2,26.2,30.04,ESE,115,5.0,9.0,47,0.00,,SKC,0.00,VWS V13.01,2013-02-11 09:30:00,
2013-02-11 01:31:00,45.4,25.9,30.04,ESE,103,4.0,7.0,46,0.00,,SKC,0.00,VWS V13.01,2013-02-11 09:31:00,
2013-02-11 01:32:00,45.4,26.4,30.04,ESE,113,3.0,7.0,47,0.00,,SKC,0.00,VWS V13.01,2013-02-11 09:32:00,
2013-02-11 01:33:00,45.5,26.5,30.04,ESE,115,3.0,7.0,47,0.00,,SKC,0.00,VWS V13.01,2013-02-11 09:33:00,
2013-02-11 01:34:00,45.5,25.9,30.05,ESE,123,3.0,7.0,46,0.00,,SKC,0.00,VWS V13.01,2013-02-11 09:34:00,
2013-02-11 01:35:00,45.6,26.5,30.05,SE,126,5.0,7.0,47,0.00,,SKC,0.00,VWS V13.01,2013-02-11 09:35:00,
2013-02-11 01:36:00,45.6,26.0,30.04,ESE,121,6.0,10.0,46,0.00,,SKC,0.00,VWS V13.01,2013-02-11 09:36:00,
2013-02-11 01:37:00,45.5,26.5,30.05,SE,139,9.0,11.0,47,0.00,,SKC,0.00,VWS V13.01,2013-02-11 09:37:00,
2013-02-11 01:38:00,45.4,25.9,30.05,SE,136,4.0,11.0,46,0.00,,SKC,0.00,VWS V13.01,2013-02-11 09:38:00,
2013-02-11 01:39:00,45.3,26.3,30.05,SE,135,6.0,11.0,47,0.00,,SKC,0.00,VWS V13.01,2013-02-11 09:39:00,
2013-02-11 01:40:00,45.2,26.2,30.05,SE,138,8.0,11.0,47,0.00,,SKC,0.00,VWS V13.01,2013-02-11 09:40:00,
2013-02-11 01:41:00,45.0,26.0,30.04,SE,132,5.0,8.0,47,0.00,,SKC,0.00,VWS V13.01,2013-02-11 09:41:00,
2013-02-11 01:42:00,45.0,26.5,30.05,SE,138,7.0,8.0,48,0.00,,SKC,0.00,VWS V13.01,2013-02-11 09:42:00,
2013-02-11 01:43:00,44.9,26.4,30.05,SE,132,6.0,8.0,48,0.00,,SKC,0.00,VWS V13.01,2013-02-11 09:43:00,
2013-02-11 01:44:00,44.8,26.3,30.05,SE,139,7.0,8.0,48,0.00,,SKC,0.00,VWS V13.01,2013-02-11 09:44:00,
2013-02-11 01:45:00,44.7,26.2,30.05,SSE,152,6.0,8.0,48,0.00,,SKC,0.00,VWS V13.01,2013-02-11 09:45:00,
2013-02-11 01:46:00,44.6,26.1,30.05,SE,138,6.0,9.0,48,0.00,,SKC,0.00,VWS V13.01,2013-02-11 09:46:00,
2013-02-11 01:47:00,44.5,26.0,30.05,SE,132,6.0,9.0,48,0.00,,SKC,0.00,VWS V13.01,2013-02-11 09:47:00,
2013-02-11 01:48:00,44.5,26.0,30.05,SE,131,3.0,9.0,48,0.00,,SKC,0.00,VWS V13.01,2013-02-11 09:48:00,
2013-02-11 01:49:00,44.4,26.0,30.05,SE,143,6.0,9.0,48,0.00,,SKC,0.00,VWS V13.01,2013-02-11 09:49:00,
2013-02-11 01:50:00,44.4,26.0,30.05,SE,142,7.0,9.0,48,0.00,,SKC,0.00,VWS V13.01,2013-02-11 09:50:00,
2013-02-11 01:51:00,44.4,26.0,30.06,SE,136,10.0,10.0,48,0.00,,SKC,0.00,VWS V13.01,2013-02-11 09:51:00,
2013-02-11 01:52:00,44.3,25.9,30.06,SE,134,6.0,11.0,48,0.00,,SKC,0.00,VWS V13.01,2013-02-11 09:52:00,
2013-02-11 01:53:00,44.3,26.4,30.06,ESE,110,4.0,11.0,49,0.00,,SKC,0.00,VWS V13.01,2013-02-11 09:53:00,
2013-02-11 01:54:00,44.3,25.9,30.06,ESE,109,8.0,11.0,48,0.00,,SKC,0.00,VWS V13.01,2013-02-11 09:54:00,
2013-02-11 01:55:00,44.4,26.0,30.05,ESE,119,3.0,11.0,48,0.00,,SKC,0.00,VWS V13.01,2013-02-11 09:55:00,
2013-02-11 01:56:00,44.5,26.0,30.05,ESE,104,4.0,9.0,48,0.00,,SKC,0.00,VWS V13.01,2013-02-11 09:56:00,
2013-02-11 01:57:00,44.6,25.6,30.05,ESE,106,9.0,9.0,47,0.00,,SKC,0.00,VWS V13.01,2013-02-11 09:57:00,
2013-02-11 01:58:00,44.7,25.7,30.05,ESE,121,4.0,9.0,47,0.00,,SKC,0.00,VWS V13.01,2013-02-11 09:58:00,
2013-02-11 01:59:00,44.8,25.8,30.05,ESE,109,5.0,9.0,47,0.00,,SKC,0.00,VWS V13.01,2013-02-11 09:59:00,
2013-02-11 02:00:00,45.0,26.0,30.05,ESE,117,11.0,11.0,47,0.00,,SKC,0.00,VWS V13.01,2013-02-11 10:00:00,
2013-02-11 02:01:00,45.0,25.5,30.05,East,94,6.0,11.0,46,0.00,,SKC,0.00,VWS V13.01,2013-02-11 10:01:00,
2013-02-11 02:02:00,45.1,25.6,30.05,ESE,106,4.0,11.0,46,0.00,,SKC,0.00,VWS V13.01,2013-02-11 10:02:00,
2013-02-11 02:03:00,45.2,25.7,30.05,ESE,112,5.0,11.0,46,0.00,,SKC,0.00,VWS V13.01,2013-02-11 10:03:00,
2013-02-11 02:04:00,45.3,25.8,30.05,East,92,5.0,11.0,46,0.00,,SKC,0.00,VWS V13.01,2013-02-11 10:04:00,
2013-02-11 02:05:00,45.4,25.3,30.05,East,92,5.0,11.0,45,0.00,,SKC,0.00,VWS V13.01,2013-02-11 10:05:00,
2013-02-11 02:06:00,45.5,25.4,30.05,East,93,7.0,7.0,45,0.00,,SKC,0.00,VWS V13.01,2013-02-11 10:06:00,
2013-02-11 02:07:00,45.6,25.5,30.05,ENE,74,5.0,8.0,45,0.00,,SKC,0.00,VWS V13.01,2013-02-11 10:07:00,
2013-02-11 02:08:00,45.6,25.5,30.05,East,97,5.0,9.0,45,0.00,,SKC,0.00,VWS V13.01,2013-02-11 10:08:00,
2013-02-11 02:09:00,45.7,25.6,30.05,ESE,102,6.0,9.0,45,0.00,,SKC,0.00,VWS V13.01,2013-02-11 10:09:00,
2013-02-11 02:10:00,45.8,25.7,30.05,ESE,108,4.0,9.0,45,0.00,,SKC,0.00,VWS V13.01,2013-02-11 10:10:00,
2013-02-11 02:11:00,45.8,25.7,30.05,ENE,72,2.0,6.0,45,0.00,,SKC,0.00,VWS V13.01,2013-02-11 10:11:00,
2013-02-11 02:12:00,45.8,25.7,30.05,East,83,4.0,7.0,45,0.00,,SKC,0.00,VWS V13.01,2013-02-11 10:12:00,
2013-02-11 02:13:00,45.9,25.8,30.05,East,96,4.0,10.0,45,0.00,,SKC,0.00,VWS V13.01,2013-02-11 10:13:00,
2013-02-11 02:14:00,45.9,25.2,30.05,ESE,109,4.0,10.0,44,0.00,,SKC,0.00,VWS V13.01,2013-02-11 10:14:00,
2013-02-11 02:15:00,46.0,25.3,30.05,East,93,5.0,10.0,44,0.00,,SKC,0.00,VWS V13.01,2013-02-11 10:15:00,
2013-02-11 02:16:00,46.0,25.3,30.05,ESE,106,4.0,9.0,44,0.00,,SKC,0.00,VWS V13.01,2013-02-11 10:16:00,
2013-02-11 02:17:00,46.0,25.3,30.05,East,100,7.0,9.0,44,0.00,,SKC,0.00,VWS V13.01,2013-02-11 10:17:00,
2013-02-11 02:18:00,46.1,25.4,30.05,ESE,113,6.0,9.0,44,0.00,,SKC,0.00,VWS V13.01,2013-02-11 10:18:00,
2013-02-11 02:19:00,46.1,25.4,30.05,East,101,6.0,9.0,44,0.00,,SKC,0.00,VWS V13.01,2013-02-11 10:19:00,
2013-02-11 02:20:00,46.2,25.5,30.05,East,96,7.0,11.0,44,0.00,,SKC,0.00,VWS V13.01,2013-02-11 10:20:00,
2013-02-11 02:21:00,46.2,25.5,30.05,ESE,123,5.0,9.0,44,0.00,,SKC,0.00,VWS V13.01,2013-02-11 10:21:00,
2013-02-11 02:22:00,46.2,25.5,30.05,ESE,103,6.0,10.0,44,0.00,,SKC,0.00,VWS V13.01,2013-02-11 10:22:00,
2013-02-11 02:23:00,46.3,25.6,30.05,East,98,7.0,10.0,44,0.00,,SKC,0.00,VWS V13.01,2013-02-11 10:23:00,
2013-02-11 02:24:00,46.2,25.5,30.05,ESE,117,3.0,10.0,44,0.00,,SKC,0.00,VWS V13.01,2013-02-11 10:24:00,
2013-02-11 02:25:00,46.2,25.5,30.05,ESE,116,4.0,10.0,44,0.00,,SKC,0.00,VWS V13.01,2013-02-11 10:25:00,
2013-02-11 02:26:00,46.2,25.5,30.05,ESE,116,6.0,7.0,44,0.00,,SKC,0.00,VWS V13.01,2013-02-11 10:26:00,
2013-02-11 02:27:00,46.1,25.4,30.05,SE,125,5.0,9.0,44,0.00,,SKC,0.00,VWS V13.01,2013-02-11 10:27:00,
2013-02-11 02:28:00,46.0,25.3,30.05,ESE,107,3.0,9.0,44,0.00,,SKC,0.00,VWS V13.01,2013-02-11 10:28:00,
2013-02-11 02:29:00,45.9,25.8,30.05,ESE,108,2.0,9.0,45,0.00,,SKC,0.00,VWS V13.01,2013-02-11 10:29:00,
2013-02-11 02:30:00,45.9,25.8,30.05,SE,135,5.0,9.0,45,0.00,,SKC,0.00,VWS V13.01,2013-02-11 10:30:00,
2013-02-11 02:31:00,45.8,25.7,30.05,SE,126,1.0,6.0,45,0.00,,SKC,0.00,VWS V13.01,2013-02-11 10:31:00,
2013-02-11 02:32:00,45.6,25.5,30.05,SE,126,2.0,6.0,45,0.00,,SKC,0.00,VWS V13.01,2013-02-11 10:32:00,
2013-02-11 02:33:00,45.5,25.4,30.05,ESE,118,2.0,6.0,45,0.00,,SKC,0.00,VWS V13.01,2013-02-11 10:33:00,
2013-02-11 02:34:00,45.4,25.3,30.05,ESE,118,4.0,6.0,45,0.00,,SKC,0.00,VWS V13.01,2013-02-11 10:34:00,
2013-02-11 02:35:00,45.3,25.8,30.05,ESE,119,3.0,6.0,46,0.00,,SKC,0.00,VWS V13.01,2013-02-11 10:35:00,
2013-02-11 02:36:00,45.2,25.1,30.05,SE,128,3.0,5.0,45,0.00,,SKC,0.00,VWS V13.01,2013-02-11 10:36:00,
2013-02-11 02:37:00,45.0,25.5,30.05,SE,137,3.0,6.0,46,0.00,,SKC,0.00,VWS V13.01,2013-02-11 10:37:00,
2013-02-11 02:38:00,45.0,25.5,30.05,ESE,120,5.0,6.0,46,0.00,,SKC,0.00,VWS V13.01,2013-02-11 10:38:00,
2013-02-11 02:39:00,45.0,25.5,30.05,SE,129,3.0,7.0,46,0.00,,SKC,0.00,VWS V13.01,2013-02-11 10:39:00,
2013-02-11 02:40:00,44.9,25.4,30.05,SE,129,3.0,7.0,46,0.00,,SKC,0.00,VWS V13.01,2013-02-11 10:40:00,
2013-02-11 02:41:00,44.7,25.2,30.05,ESE,123,3.0,5.0,46,0.00,,SKC,0.00,VWS V13.01,2013-02-11 10:41:00,
2013-02-11 02:42:00,44.7,25.2,30.04,ESE,103,2.0,5.0,46,0.00,,SKC,0.00,VWS V13.01,2013-02-11 10:42:00,
2013-02-11 02:43:00,44.7,25.2,30.04,SE,136,4.0,5.0,46,0.00,,SKC,0.00,VWS V13.01,2013-02-11 10:43:00,
2013-02-11 02:44:00,44.6,25.1,30.04,ESE,104,5.0,6.0,46,0.00,,SKC,0.00,VWS V13.01,2013-02-11 10:44:00,
2013-02-11 02:45:00,44.6,25.1,30.04,ESE,115,1.0,6.0,46,0.00,,SKC,0.00,VWS V13.01,2013-02-11 10:45:00,
2013-02-11 02:46:00,44.5,25.5,30.04,ESE,115,2.0,3.0,47,0.00,,SKC,0.00,VWS V13.01,2013-02-11 10:46:00,
2013-02-11 02:47:00,44.5,25.0,30.04,ESE,115,3.0,3.0,46,0.00,,SKC,0.00,VWS V13.01,2013-02-11 10:47:00,
2013-02-11 02:48:00,44.4,24.9,30.04,ESE,105,2.0,4.0,46,0.00,,SKC,0.00,VWS V13.01,2013-02-11 10:48:00,
2013-02-11 02:49:00,44.4,24.9,30.04,ESE,107,2.0,4.0,46,0.00,,SKC,0.00,VWS V13.01,2013-02-11 10:49:00,
2013-02-11 02:50:00,44.3,24.8,30.04,ESE,107,4.0,4.0,46,0.00,,SKC,0.00,VWS V13.01,2013-02-11 10:50:00,
2013-02-11 02:51:00,44.3,24.8,30.04,ESE,105,3.0,4.0,46,0.00,,SKC,0.00,VWS V13.01,2013-02-11 10:51:00,
2013-02-11 02:52:00,44.3,24.8,30.05,ESE,105,3.0,4.0,46,0.00,,SKC,0.00,VWS V13.01,2013-02-11 10:52:00,
2013-02-11 02:53:00,44.2,24.8,30.05,East,90,5.0,5.0,46,0.00,,SKC,0.00,VWS V13.01,2013-02-11 10:53:00,
2013-02-11 02:54:00,44.2,24.8,30.05,East,98,2.0,5.0,46,0.00,,SKC,0.00,VWS V13.01,2013-02-11 10:54:00,
2013-02-11 02:55:00,44.2,24.8,30.05,East,99,3.0,5.0,46,0.00,,SKC,0.00,VWS V13.01,2013-02-11 10:55:00,
2013-02-11 02:56:00,44.1,25.2,30.04,ESE,102,2.0,4.0,47,0.00,,SKC,0.00,VWS V13.01,2013-02-11 10:56:00,
2013-02-11 02:57:00,44.0,25.1,30.05,ESE,102,2.0,4.0,47,0.00,,SKC,0.00,VWS V13.01,2013-02-11 10:57:00,
2013-02-11 02:58:00,43.9,25.0,30.05,ESE,109,4.0,4.0,47,0.00,,SKC,0.00,VWS V13.01,2013-02-11 10:58:00,
2013-02-11 02:59:00,43.9,25.0,30.05,ESE,113,3.0,4.0,47,0.00,,SKC,0.00,VWS V13.01,2013-02-11 10:59:00,
2013-02-11 03:00:00,43.8,24.9,30.05,ESE,110,3.0,5.0,47,0.00,,SKC,0.00,VWS V13.01,2013-02-11 11:00:00,
2013-02-11 03:01:00,43.8,24.9,30.04,ESE,109,4.0,5.0,47,0.00,,SKC,0.00,VWS V13.01,2013-02-11 11:01:00,
2013-02-11 03:02:00,43.8,25.4,30.04,ESE,111,2.0,5.0,48,0.00,,SKC,0.00,VWS V13.01,2013-02-11 11:02:00,
2013-02-11 03:03:00,43.7,25.3,30.04,ESE,115,3.0,5.0,48,0.00,,SKC,0.00,VWS V13.01,2013-02-11 11:03:00,
2013-02-11 03:04:00,43.7,24.8,30.04,SE,126,5.0,5.0,47,0.00,,SKC,0.00,VWS V13.01,2013-02-11 11:04:00,
2013-02-11 03:05:00,43.6,25.2,30.04,ESE,119,2.0,6.0,48,0.00,,SKC,0.00,VWS V13.01,2013-02-11 11:05:00,
2013-02-11 03:06:00,43.6,25.2,30.04,SE,127,6.0,6.0,48,0.00,,SKC,0.00,VWS V13.01,2013-02-11 11:06:00,
2013-02-11 03:07:00,43.6,25.2,30.04,SE,127,3.0,6.0,48,0.00,,SKC,0.00,VWS V13.01,2013-02-11 11:07:00,
2013-02-11 03:08:00,43.5,25.1,30.04,SE,125,3.0,6.0,48,0.00,,SKC,0.00,VWS V13.01,2013-02-11 11:08:00,
2013-02-11 03:09:00,43.5,25.1,30.04,SE,126,2.0,6.0,48,0.00,,SKC,0.00,VWS V13.01,2013-02-11 11:09:00,
2013-02-11 03:10:00,43.4,25.0,30.04,SE,126,3.0,6.0,48,0.00,,SKC,0.00,VWS V13.01,2013-02-11 11:10:00,
2013-02-11 03:11:00,43.4,25.0,30.05,ESE,123,3.0,7.0,48,0.00,,SKC,0.00,VWS V13.01,2013-02-11 11:11:00,
2013-02-11 03:12:00,43.4,25.0,30.04,ESE,103,2.0,7.0,48,0.00,,SKC,0.00,VWS V13.01,2013-02-11 11:12:00,
2013-02-11 03:13:00,43.4,25.0,30.05,ESE,113,2.0,7.0,48,0.00,,SKC,0.00,VWS V13.01,2013-02-11 11:13:00,
2013-02-11 03:14:00,43.4,25.0,30.05,East,101,2.0,7.0,48,0.00,,SKC,0.00,VWS V13.01,2013-02-11 11:14:00,
2013-02-11 03:15:00,43.4,25.0,30.05,East,101,5.0,7.0,48,0.00,,SKC,0.00,VWS V13.01,2013-02-11 11:15:00,
2013-02-11 03:16:00,43.4,24.5,30.05,ESE,104,3.0,7.0,47,0.00,,SKC,0.00,VWS V13.01,2013-02-11 11:16:00,
2013-02-11 03:17:00,43.4,25.0,30.04,ESE,113,5.0,7.0,48,0.00,,SKC,0.00,VWS V13.01,2013-02-11 11:17:00,
2013-02-11 03:18:00,43.5,25.1,30.04,ESE,119,1.0,7.0,48,0.00,,SKC,0.00,VWS V13.01,2013-02-11 11:18:00,
2013-02-11 03:19:00,43.5,25.1,30.04,ESE,117,3.0,7.0,48,0.00,,SKC,0.00,VWS V13.01,2013-02-11 11:19:00,
2013-02-11 03:20:00,43.5,25.1,30.04,ESE,117,3.0,7.0,48,0.00,,SKC,0.00,VWS V13.01,2013-02-11 11:20:00,
2013-02-11 03:21:00,43.5,25.1,30.04,ESE,111,3.0,4.0,48,0.00,,SKC,0.00,VWS V13.01,2013-02-11 11:21:00,
2013-02-11 03:22:00,43.5,25.1,30.04,East,96,4.0,4.0,48,0.00,,SKC,0.00,VWS V13.01,2013-02-11 11:22:00,
2013-02-11 03:23:00,43.4,24.5,30.05,East,98,3.0,4.0,47,0.00,,SKC,0.00,VWS V13.01,2013-02-11 11:23:00,
2013-02-11 03:24:00,43.4,24.5,30.05,East,92,3.0,4.0,47,0.00,,SKC,0.00,VWS V13.01,2013-02-11 11:24:00,
2013-02-11 03:25:00,43.4,24.5,30.05,East,92,3.0,4.0,47,0.00,,SKC,0.00,VWS V13.01,2013-02-11 11:25:00,
2013-02-11 03:26:00,43.4,24.5,30.05,East,92,3.0,4.0,47,0.00,,SKC,0.00,VWS V13.01,2013-02-11 11:26:00,
2013-02-11 03:27:00,43.3,24.4,30.05,East,80,4.0,5.0,47,0.00,,SKC,0.00,VWS V13.01,2013-02-11 11:27:00,
2013-02-11 03:28:00,43.2,24.9,30.05,East,80,3.0,5.0,48,0.00,,SKC,0.00,VWS V13.01,2013-02-11 11:28:00,
2013-02-11 03:29:00,43.1,24.8,30.05,East,80,4.0,5.0,48,0.00,,SKC,0.00,VWS V13.01,2013-02-11 11:29:00,
2013-02-11 03:30:00,43.1,24.8,30.05,East,95,3.0,5.0,48,0.00,,SKC,0.00,VWS V13.01,2013-02-11 11:30:00,
2013-02-11 03:31:00,42.9,24.6,30.05,East,91,3.0,4.0,48,0.00,,SKC,0.00,VWS V13.01,2013-02-11 11:31:00,
2013-02-11 03:32:00,42.9,24.6,30.05,East,96,3.0,4.0,48,0.00,,SKC,0.00,VWS V13.01,2013-02-11 11:32:00,
2013-02-11 03:33:00,42.8,24.5,30.05,East,96,2.0,4.0,48,0.00,,SKC,0.00,VWS V13.01,2013-02-11 11:33:00,
2013-02-11 03:34:00,42.8,24.5,30.05,East,96,2.0,4.0,48,0.00,,SKC,0.00,VWS V13.01,2013-02-11 11:34:00,
2013-02-11 03:35:00,42.7,24.4,30.05,East,96,5.0,5.0,48,0.00,,SKC,0.00,VWS V13.01,2013-02-11 11:35:00,
2013-02-11 03:36:00,42.7,24.4,30.05,East,97,3.0,5.0,48,0.00,,SKC,0.00,VWS V13.01,2013-02-11 11:36:00,
2013-02-11 03:37:00,42.7,24.4,30.05,ENE,77,4.0,6.0,48,0.00,,SKC,0.00,VWS V13.01,2013-02-11 11:37:00,
2013-02-11 03:38:00,42.7,24.4,30.05,East,90,4.0,6.0,48,0.00,,SKC,0.00,VWS V13.01,2013-02-11 11:38:00,
2013-02-11 03:39:00,42.7,24.4,30.05,East,79,5.0,6.0,48,0.00,,SKC,0.00,VWS V13.01,2013-02-11 11:39:00,
2013-02-11 03:40:00,42.7,24.4,30.05,East,89,4.0,6.0,48,0.00,,SKC,0.00,VWS V13.01,2013-02-11 11:40:00,
2013-02-11 03:41:00,42.7,24.4,30.05,East,88,4.0,5.0,48,0.00,,SKC,0.00,VWS V13.01,2013-02-11 11:41:00,
2013-02-11 03:42:00,42.7,24.4,30.05,East,88,3.0,5.0,48,0.00,,SKC,0.00,VWS V13.01,2013-02-11 11:42:00,
2013-02-11 03:43:00,42.7,24.4,30.05,East,80,3.0,5.0,48,0.00,,SKC,0.00,VWS V13.01,2013-02-11 11:43:00,
2013-02-11 03:44:00,42.7,24.4,30.05,East,82,5.0,5.0,48,0.00,,SKC,0.00,VWS V13.01,2013-02-11 11:44:00,
2013-02-11 03:45:00,42.8,24.5,30.05,East,92,4.0,5.0,48,0.00,,SKC,0.00,VWS V13.01,2013-02-11 11:45:00,
2013-02-11 03:46:00,42.8,24.0,30.05,ENE,65,3.0,6.0,47,0.00,,SKC,0.00,VWS V13.01,2013-02-11 11:46:00,
2013-02-11 03:47:00,42.8,24.5,30.05,ENE,76,3.0,6.0,48,0.00,,SKC,0.00,VWS V13.01,2013-02-11 11:47:00,
2013-02-11 03:48:00,42.9,24.1,30.05,ENE,76,2.0,6.0,47,0.00,,SKC,0.00,VWS V13.01,2013-02-11 11:48:00,
2013-02-11 03:49:00,42.9,24.1,30.05,ENE,76,0.0,6.0,47,0.00,,SKC,0.00,VWS V13.01,2013-02-11 11:49:00,
2013-02-11 03:50:00,42.9,24.1,30.05,ENE,76,0.0,6.0,47,0.00,,SKC,0.00,VWS V13.01,2013-02-11 11:50:00,
2013-02-11 03:51:00,42.9,24.1,30.05,ENE,77,0.0,0.0,47,0.00,,SKC,0.00,VWS V13.01,2013-02-11 11:51:00,
2013-02-11 03:52:00,43.0,24.2,30.05,ENE,77,0.0,0.0,47,0.00,,SKC,0.00,VWS V13.01,2013-02-11 11:52:00,
2013-02-11 03:53:00,42.9,24.6,30.06,ENE,76,3.0,4.0,48,0.00,,SKC,0.00,VWS V13.01,2013-02-11 11:53:00,
2013-02-11 03:54:00,42.8,24.5,30.06,ENE,76,3.0,5.0,48,0.00,,SKC,0.00,VWS V13.01,2013-02-11 11:54:00,
2013-02-11 03:55:00,42.6,24.8,30.06,ENE,76,3.0,5.0,49,0.00,,SKC,0.00,VWS V13.01,2013-02-11 11:55:00,
2013-02-11 03:56:00,42.4,24.6,30.06,ENE,76,3.0,4.0,49,0.00,,SKC,0.00,VWS V13.01,2013-02-11 11:56:00,
2013-02-11 03:57:00,42.2,24.9,30.06,NW,322,5.0,5.0,50,0.00,,SKC,0.00,VWS V13.01,2013-02-11 11:57:00,
2013-02-11 03:58:00,42.0,24.7,30.06,NW,309,3.0,5.0,50,0.00,,SKC,0.00,VWS V13.01,2013-02-11 11:58:00,
2013-02-11 03:59:00,41.7,24.5,30.06,NW,309,5.0,5.0,50,0.00,,SKC,0.00,VWS V13.01,2013-02-11 11:59:00,
2013-02-11 04:00:00,41.5,24.7,30.06,WNW,299,4.0,6.0,51,0.00,,SKC,0.00,VWS V13.01,2013-02-11 12:00:00,
2013-02-11 04:01:00,41.4,24.6,30.06,WNW,299,3.0,5.0,51,0.00,,SKC,0.00,VWS V13.01,2013-02-11 12:01:00,
2013-02-11 04:02:00,41.2,24.5,30.07,WNW,299,3.0,5.0,51,0.00,,SKC,0.00,VWS V13.01,2013-02-11 12:02:00,
2013-02-11 04:03:00,41.1,24.4,30.07,WNW,299,4.0,5.0,51,0.00,,SKC,0.00,VWS V13.01,2013-02-11 12:03:00,
2013-02-11 04:04:00,41.0,24.7,30.07,WNW,298,2.0,5.0,52,0.00,,SKC,0.00,VWS V13.01,2013-02-11 12:04:00,
2013-02-11 04:05:00,40.9,24.2,30.07,WNW,298,2.0,5.0,51,0.00,,SKC,0.00,VWS V13.01,2013-02-11 12:05:00,
2013-02-11 04:06:00,40.8,24.5,30.07,WNW,298,2.0,3.0,52,0.00,,SKC,0.00,VWS V13.01,2013-02-11 12:06:00,
2013-02-11 04:07:00,40.8,24.5,30.07,WNW,298,2.0,3.0,52,0.00,,SKC,0.00,VWS V13.01,2013-02-11 12:07:00,
2013-02-11 04:08:00,40.6,24.4,30.07,WNW,298,0.0,3.0,52,0.00,,SKC,0.00,VWS V13.01,2013-02-11 12:08:00,
2013-02-11 04:09:00,40.5,24.7,30.07,WNW,298,0.0,3.0,53,0.00,,SKC,0.00,VWS V13.01,2013-02-11 12:09:00,
2013-02-11 04:10:00,40.5,24.7,30.07,WNW,298,0.0,3.0,53,0.00,,SKC,0.00,VWS V13.01,2013-02-11 12:10:00,
2013-02-11 04:11:00,40.3,24.5,30.07,WNW,298,0.0,0.0,53,0.00,,SKC,0.00,VWS V13.01,2013-02-11 12:11:00,
2013-02-11 04:12:00,40.2,25.3,30.07,WNW,298,0.0,0.0,55,0.00,,SKC,0.00,VWS V13.01,2013-02-11 12:12:00,
2013-02-11 04:13:00,40.1,25.2,30.07,WNW,298,0.0,0.0,55,0.00,,SKC,0.00,VWS V13.01,2013-02-11 12:13:00,
2013-02-11 04:14:00,40.0,24.7,30.07,WNW,298,0.0,0.0,54,0.00,,SKC,0.00,VWS V13.01,2013-02-11 12:14:00,
2013-02-11 04:15:00,39.8,24.5,30.07,WNW,298,0.0,0.0,54,0.00,,SKC,0.00,VWS V13.01,2013-02-11 12:15:00,
2013-02-11 04:16:00,39.7,24.9,30.07,WNW,298,0.0,0.0,55,0.00,,SKC,0.00,VWS V13.01,2013-02-11 12:16:00,
2013-02-11 04:17:00,39.5,24.7,30.07,WNW,298,0.0,0.0,55,0.00,,SKC,0.00,VWS V13.01,2013-02-11 12:17:00,
2013-02-11 04:18:00,39.4,25.0,30.07,WNW,298,0.0,0.0,56,0.00,,SKC,0.00,VWS V13.01,2013-02-11 12:18:00,
2013-02-11 04:19:00,39.3,24.9,30.07,WNW,298,0.0,0.0,56,0.00,,SKC,0.00,VWS V13.01,2013-02-11 12:19:00,
2013-02-11 04:20:00,39.2,24.8,30.07,WNW,298,0.0,0.0,56,0.00,,SKC,0.00,VWS V13.01,2013-02-11 12:20:00,
2013-02-11 04:21:00,39.1,24.7,30.08,WNW,298,0.0,0.0,56,0.00,,SKC,0.00,VWS V13.01,2013-02-11 12:21:00,
2013-02-11 04:22:00,39.0,24.6,30.08,WNW,298,0.0,0.0,56,0.00,,SKC,0.00,VWS V13.01,2013-02-11 12:22:00,
2013-02-11 04:23:00,38.8,25.3,30.08,WNW,298,0.0,0.0,58,0.00,,SKC,0.00,VWS V13.01,2013-02-11 12:23:00,
2013-02-11 04:24:00,38.6,25.1,30.08,WNW,298,0.0,0.0,58,0.00,,SKC,0.00,VWS V13.01,2013-02-11 12:24:00,
2013-02-11 04:25:00,38.4,24.9,30.08,WNW,298,3.0,3.0,58,0.00,,SKC,0.00,VWS V13.01,2013-02-11 12:25:00,
2013-02-11 04:26:00,38.2,25.1,30.08,WNW,298,2.0,3.0,59,0.00,,SKC,0.00,VWS V13.01,2013-02-11 12:26:00,
2013-02-11 04:27:00,38.0,25.4,30.08,WNW,298,2.0,3.0,60,0.00,,SKC,0.00,VWS V13.01,2013-02-11 12:27:00,
2013-02-11 04:28:00,37.8,25.2,30.08,WNW,298,1.0,3.0,60,0.00,,SKC,0.00,VWS V13.01,2013-02-11 12:28:00,
2013-02-11 04:29:00,37.7,25.5,30.08,WNW,298,1.0,3.0,61,0.00,,SKC,0.00,VWS V13.01,2013-02-11 12:29:00,
2013-02-11 04:30:00,37.5,25.3,30.08,WNW,298,1.0,3.0,61,0.00,,SKC,0.00,VWS V13.01,2013-02-11 12:30:00,
2013-02-11 04:31:00,37.3,25.1,30.08,WNW,298,1.0,2.0,61,0.00,,SKC,0.00,VWS V13.01,2013-02-11 12:31:00,
2013-02-11 04:32:00,37.1,25.3,30.08,WNW,298,0.0,2.0,62,0.00,,SKC,0.00,VWS V13.01,2013-02-11 12:32:00,
2013-02-11 04:33:00,37.1,25.3,30.08,WNW,298,0.0,2.0,62,0.00,,SKC,0.00,VWS V13.01,2013-02-11 12:33:00,
2013-02-11 04:34:00,37.0,24.8,30.08,WNW,298,0.0,2.0,61,0.00,,SKC,0.00,VWS V13.01,2013-02-11 12:34:00,
2013-02-11 04:35:00,36.8,25.0,30.08,WNW,298,0.0,2.0,62,0.00,,SKC,0.00,VWS V13.01,2013-02-11 12:35:00,
2013-02-11 04:36:00,36.6,25.2,30.08,WNW,298,0.0,0.0,63,0.00,,SKC,0.00,VWS V13.01,2013-02-11 12:36:00,
2013-02-11 04:37:00,36.5,25.1,30.08,WNW,298,0.0,0.0,63,0.00,,SKC,0.00,VWS V13.01,2013-02-11 12:37:00,
2013-02-11 04:38:00,36.4,25.0,30.08,WNW,298,0.0,0.0,63,0.00,,SKC,0.00,VWS V13.01,2013-02-11 12:38:00,
2013-02-11 04:39:00,36.3,24.9,30.08,WNW,298,0.0,0.0,63,0.00,,SKC,0.00,VWS V13.01,2013-02-11 12:39:00,
2013-02-11 04:40:00,36.2,24.8,30.08,WNW,298,0.0,0.0,63,0.00,,SKC,0.00,VWS V13.01,2013-02-11 12:40:00,
2013-02-11 04:41:00,36.1,24.7,30.08,WNW,298,0.0,0.0,63,0.00,,SKC,0.00,VWS V13.01,2013-02-11 12:41:00,
2013-02-11 04:42:00,36.1,25.1,30.08,WNW,298,2.0,3.0,64,0.00,,SKC,0.00,VWS V13.01,2013-02-11 12:42:00,
2013-02-11 04:43:00,36.0,25.0,30.08,WNW,298,1.0,3.0,64,0.00,,SKC,0.00,VWS V13.01,2013-02-11 12:43:00,
2013-02-11 04:44:00,35.9,24.9,30.08,WNW,298,3.0,3.0,64,0.00,,SKC,0.00,VWS V13.01,2013-02-11 12:44:00,
2013-02-11 04:45:00,35.8,24.8,30.08,WNW,299,2.0,3.0,64,0.00,,SKC,0.00,VWS V13.01,2013-02-11 12:45:00,
2013-02-11 04:46:00,35.8,24.8,30.08,WNW,299,1.0,3.0,64,0.00,,SKC,0.00,VWS V13.01,2013-02-11 12:46:00,
2013-02-11 04:47:00,35.7,24.7,30.08,WNW,299,2.0,3.0,64,0.00,,SKC,0.00,VWS V13.01,2013-02-11 12:47:00,
2013-02-11 04:48:00,35.7,24.7,30.08,WNW,299,2.0,3.0,64,0.00,,SKC,0.00,VWS V13.01,2013-02-11 12:48:00,
2013-02-11 04:49:00,35.6,25.0,30.08,WNW,299,2.0,3.0,65,0.00,,SKC,0.00,VWS V13.01,2013-02-11 12:49:00,
2013-02-11 04:50:00,35.6,25.0,30.09,WNW,299,1.0,3.0,65,0.00,,SKC,0.00,VWS V13.01,2013-02-11 12:50:00,
2013-02-11 04:51:00,35.5,24.9,30.09,WNW,299,2.0,3.0,65,0.00,,SKC,0.00,VWS V13.01,2013-02-11 12:51:00,
2013-02-11 04:52:00,35.5,24.9,30.09,WNW,299,3.0,3.0,65,0.00,,SKC,0.00,VWS V13.01,2013-02-11 12:52:00,
2013-02-11 04:53:00,35.4,24.8,30.09,WSW,250,3.0,4.0,65,0.00,,SKC,0.00,VWS V13.01,2013-02-11 12:53:00,
2013-02-11 04:54:00,35.4,24.5,30.09,WSW,250,1.0,4.0,64,0.00,,SKC,0.00,VWS V13.01,2013-02-11 12:54:00,
2013-02-11 04:55:00,35.5,24.5,30.09,WSW,250,0.0,4.0,64,0.00,,SKC,0.00,VWS V13.01,2013-02-11 12:55:00,
2013-02-11 04:56:00,35.6,24.6,30.09,WSW,250,1.0,3.0,64,0.00,,SKC,0.00,VWS V13.01,2013-02-11 12:56:00,
2013-02-11 04:57:00,35.6,24.6,30.09,WSW,249,2.0,3.0,64,0.00,,SKC,0.00,VWS V13.01,2013-02-11 12:57:00,
2013-02-11 04:58:00,35.7,24.7,30.09,WSW,249,0.0,3.0,64,0.00,,SKC,0.00,VWS V13.01,2013-02-11 12:58:00,
2013-02-11 04:59:00,35.7,24.7,30.09,WSW,249,0.0,3.0,64,0.00,,SKC,0.00,VWS V13.01,2013-02-11 12:59:00,
2013-02-11 05:00:00,35.7,24.7,30.09,WSW,249,0.0,3.0,64,0.00,,SKC,0.00,VWS V13.01,2013-02-11 13:00:00,
2013-02-11 05:01:00,35.8,24.8,30.09,WSW,249,0.0,0.0,64,0.00,,SKC,0.00,VWS V13.01,2013-02-11 13:01:00,
2013-02-11 05:02:00,35.8,24.8,30.09,WSW,249,0.0,0.0,64,0.00,,SKC,0.00,VWS V13.01,2013-02-11 13:02:00,
2013-02-11 05:03:00,35.9,24.9,30.10,WSW,241,4.0,4.0,64,0.00,,SKC,0.00,VWS V13.01,2013-02-11 13:03:00,
2013-02-11 05:04:00,36.0,25.0,30.10,WSW,241,2.0,4.0,64,0.00,,SKC,0.00,VWS V13.01,2013-02-11 13:04:00,
2013-02-11 05:05:00,36.1,25.1,30.10,SE,145,2.0,4.0,64,0.00,,SKC,0.00,VWS V13.01,2013-02-11 13:05:00,
2013-02-11 05:06:00,36.3,25.3,30.10,SE,145,1.0,3.0,64,0.00,,SKC,0.00,VWS V13.01,2013-02-11 13:06:00,
2013-02-11 05:07:00,36.6,25.2,30.10,SE,145,1.0,3.0,63,0.00,,SKC,0.00,VWS V13.01,2013-02-11 13:07:00,
2013-02-11 05:08:00,36.9,25.5,30.09,SE,145,0.0,3.0,63,0.00,,SKC,0.00,VWS V13.01,2013-02-11 13:08:00,
2013-02-11 05:09:00,37.1,25.3,30.09,SE,145,2.0,3.0,62,0.00,,SKC,0.00,VWS V13.01,2013-02-11 13:09:00,
2013-02-11 05:10:00,37.5,25.3,30.09,SE,145,2.0,3.0,61,0.00,,SKC,0.00,VWS V13.01,2013-02-11 13:10:00,
2013-02-11 05:11:00,37.8,24.8,30.09,SE,145,3.0,3.0,59,0.00,,SKC,0.00,VWS V13.01,2013-02-11 13:11:00,
2013-02-11 05:12:00,38.1,25.1,30.10,SE,145,2.0,3.0,59,0.00,,SKC,0.00,VWS V13.01,2013-02-11 13:12:00,
2013-02-11 05:13:00,38.2,25.1,30.10,SE,145,0.0,3.0,59,0.00,,SKC,0.00,VWS V13.01,2013-02-11 13:13:00,
2013-02-11 05:14:00,38.3,25.2,30.10,SE,145,2.0,3.0,59,0.00,,SKC,0.00,VWS V13.01,2013-02-11 13:14:00,
2013-02-11 05:15:00,38.4,24.9,30.10,SE,145,1.0,3.0,58,0.00,,SKC,0.00,VWS V13.01,2013-02-11 13:15:00,
2013-02-11 05:16:00,38.4,24.9,30.10,SE,145,0.0,1.0,58,0.00,,SKC,0.00,VWS V13.01,2013-02-11 13:16:00,
2013-02-11 05:17:00,38.4,24.9,30.10,SE,145,0.0,1.0,58,0.00,,SKC,0.00,VWS V13.01,2013-02-11 13:17:00,
2013-02-11 05:18:00,38.4,25.3,30.10,SE,145,0.0,1.0,59,0.00,,SKC,0.00,VWS V13.01,2013-02-11 13:18:00,
2013-02-11 05:19:00,38.3,25.2,30.10,SE,145,0.0,1.0,59,0.00,,SKC,0.00,VWS V13.01,2013-02-11 13:19:00,
2013-02-11 05:20:00,38.2,25.1,30.10,SE,145,0.0,1.0,59,0.00,,SKC,0.00,VWS V13.01,2013-02-11 13:20:00,
2013-02-11 05:21:00,38.0,25.0,30.10,SE,145,0.0,0.0,59,0.00,,SKC,0.00,VWS V13.01,2013-02-11 13:21:00,
2013-02-11 05:22:00,37.9,25.7,30.10,SE,145,0.0,0.0,61,0.00,,SKC,0.00,VWS V13.01,2013-02-11 13:22:00,
2013-02-11 05:23:00,37.8,26.0,30.10,SE,145,0.0,0.0,62,0.00,,SKC,0.00,VWS V13.01,2013-02-11 13:23:00,
2013-02-11 05:24:00,37.5,25.7,30.10,SE,145,0.0,0.0,62,0.00,,SKC,0.00,VWS V13.01,2013-02-11 13:24:00,
2013-02-11 05:25:00,37.3,25.5,30.10,SE,145,0.0,0.0,62,0.00,,SKC,0.00,VWS V13.01,2013-02-11 13:25:00,
2013-02-11 05:29:00,36.7,25.3,30.10,SE,145,0.0,0.0,63,0.00,,SKC,0.00,VWS V13.01,2013-02-11 13:29:00,
2013-02-11 05:30:00,36.5,25.5,30.10,SE,145,2.0,3.0,64,0.00,,SKC,0.00,VWS V13.01,2013-02-11 13:30:00,
2013-02-11 05:31:00,36.4,25.4,30.10,SE,145,0.0,2.0,64,0.00,,SKC,0.00,VWS V13.01,2013-02-11 13:31:00,
2013-02-11 05:32:00,36.3,25.3,30.10,SE,145,0.0,2.0,64,0.00,,SKC,0.00,VWS V13.01,2013-02-11 13:32:00,
2013-02-11 05:33:00,36.2,25.2,30.10,SE,145,0.0,2.0,64,0.00,,SKC,0.00,VWS V13.01,2013-02-11 13:33:00,
2013-02-11 05:34:00,36.1,25.5,30.11,SE,145,0.0,2.0,65,0.00,,SKC,0.00,VWS V13.01,2013-02-11 13:34:00,
2013-02-11 05:35:00,36.0,25.4,30.11,SE,145,0.0,2.0,65,0.00,,SKC,0.00,VWS V13.01,2013-02-11 13:35:00,
2013-02-11 05:36:00,35.9,25.3,30.11,SE,145,0.0,0.0,65,0.00,,SKC,0.00,VWS V13.01,2013-02-11 13:36:00,
2013-02-11 05:37:00,35.7,25.5,30.11,SE,145,0.0,0.0,66,0.00,,SKC,0.00,VWS V13.01,2013-02-11 13:37:00,
2013-02-11 05:38:00,35.6,25.4,30.11,SE,145,0.0,0.0,66,0.00,,SKC,0.00,VWS V13.01,2013-02-11 13:38:00,
2013-02-11 05:39:00,35.4,25.2,30.11,SE,145,0.0,0.0,66,0.00,,SKC,0.00,VWS V13.01,2013-02-11 13:39:00,
2013-02-11 05:40:00,35.2,25.4,30.11,SE,145,1.0,1.0,67,0.00,,SKC,0.00,VWS V13.01,2013-02-11 13:40:00,
2013-02-11 05:41:00,35.1,25.6,30.11,SE,145,0.0,2.0,68,0.00,,SKC,0.00,VWS V13.01,2013-02-11 13:41:00,
2013-02-11 05:42:00,34.9,25.4,30.11,SE,145,0.0,2.0,68,0.00,,SKC,0.00,VWS V13.01,2013-02-11 13:42:00,
2013-02-11 05:43:00,34.8,25.3,30.11,SE,145,0.0,2.0,68,0.00,,SKC,0.00,VWS V13.01,2013-02-11 13:43:00,
2013-02-11 05:44:00,34.6,24.8,30.11,SE,145,0.0,2.0,67,0.00,,SKC,0.00,VWS V13.01,2013-02-11 13:44:00,
2013-02-11 05:45:00,34.5,24.7,30.11,SE,145,0.0,2.0,67,0.00,,SKC,0.00,VWS V13.01,2013-02-11 13:45:00,
2013-02-11 05:46:00,34.4,25.0,30.11,SE,145,2.0,4.0,68,0.00,,SKC,0.00,VWS V13.01,2013-02-11 13:46:00,
2013-02-11 05:47:00,34.4,25.0,30.11,SE,145,2.0,4.0,68,0.00,,SKC,0.00,VWS V13.01,2013-02-11 13:47:00,
2013-02-11 05:48:00,34.4,25.0,30.11,SE,145,2.0,4.0,68,0.00,,SKC,0.00,VWS V13.01,2013-02-11 13:48:00,
2013-02-11 05:49:00,34.4,25.0,30.11,SE,145,1.0,4.0,68,0.00,,SKC,0.00,VWS V13.01,2013-02-11 13:49:00,
2013-02-11 05:50:00,34.4,25.0,30.11,SE,145,0.0,4.0,68,0.00,,SKC,0.00,VWS V13.01,2013-02-11 13:50:00,
2013-02-11 05:51:00,34.4,24.6,30.11,SE,145,0.0,0.0,67,0.00,,SKC,0.00,VWS V13.01,2013-02-11 13:51:00,
2013-02-11 05:52:00,34.4,25.0,30.12,SE,145,0.0,0.0,68,0.00,,SKC,0.00,VWS V13.01,2013-02-11 13:52:00,
2013-02-11 05:53:00,34.4,25.3,30.12,SE,145,0.0,0.0,69,0.00,,SKC,0.00,VWS V13.01,2013-02-11 13:53:00,
2013-02-11 05:54:00,34.4,25.3,30.11,SE,139,3.0,3.0,69,0.00,,SKC,0.00,VWS V13.01,2013-02-11 13:54:00,
2013-02-11 05:55:00,34.4,25.3,30.11,SE,139,2.0,3.0,69,0.00,,SKC,0.00,VWS V13.01,2013-02-11 13:55:00,
2013-02-11 05:56:00,34.4,25.3,30.11,SE,139,4.0,5.0,69,0.00,,SKC,0.00,VWS V13.01,2013-02-11 13:56:00,
2013-02-11 05:57:00,34.4,25.3,30.11,SE,139,2.0,5.0,69,0.00,,SKC,0.00,VWS V13.01,2013-02-11 13:57:00,
2013-02-11 05:58:00,34.3,25.2,30.11,SE,139,1.0,5.0,69,0.00,,SKC,0.00,VWS V13.01,2013-02-11 13:58:00,
2013-02-11 05:59:00,34.4,25.3,30.12,SE,139,0.0,5.0,69,0.00,,SKC,0.00,VWS V13.01,2013-02-11 13:59:00,
2013-02-11 06:00:00,34.4,25.3,30.13,SE,139,0.0,5.0,69,0.00,,SKC,0.00,VWS V13.01,2013-02-11 14:00:00,
2013-02-11 06:01:00,34.4,25.3,30.13,SE,139,0.0,0.0,69,0.00,,SKC,0.00,VWS V13.01,2013-02-11 14:01:00,
2013-02-11 06:02:00,34.4,25.3,30.13,SE,139,0.0,0.0,69,0.00,,SKC,0.00,VWS V13.01,2013-02-11 14:02:00,
2013-02-11 06:03:00,34.4,25.3,30.13,SE,139,0.0,0.0,69,0.00,,SKC,0.00,VWS V13.01,2013-02-11 14:03:00,
2013-02-11 06:04:00,34.4,25.6,30.13,SE,139,0.0,0.0,70,0.00,,SKC,0.00,VWS V13.01,2013-02-11 14:04:00,
2013-02-11 06:05:00,34.4,25.6,30.13,SE,139,0.0,0.0,70,0.00,,SKC,0.00,VWS V13.01,2013-02-11 14:05:00,
2013-02-11 06:06:00,34.4,25.6,30.13,SE,139,0.0,0.0,70,0.00,,SKC,0.00,VWS V13.01,2013-02-11 14:06:00,
2013-02-11 06:07:00,34.4,25.6,30.13,SE,139,2.0,3.0,70,0.00,,SKC,0.00,VWS V13.01,2013-02-11 14:07:00,
2013-02-11 06:08:00,34.4,25.3,30.13,SE,139,2.0,3.0,69,0.00,,SKC,0.00,VWS V13.01,2013-02-11 14:08:00,
2013-02-11 06:09:00,34.5,25.4,30.13,SE,139,2.0,3.0,69,0.00,,SKC,0.00,VWS V13.01,2013-02-11 14:09:00,
2013-02-11 06:10:00,34.7,25.6,30.13,SE,139,2.0,3.0,69,0.00,,SKC,0.00,VWS V13.01,2013-02-11 14:10:00,
2013-02-11 06:11:00,34.8,25.3,30.13,SE,139,2.0,3.0,68,0.00,,SKC,0.00,VWS V13.01,2013-02-11 14:11:00,
2013-02-11 06:12:00,34.9,25.4,30.13,SE,139,1.0,3.0,68,0.00,,SKC,0.00,VWS V13.01,2013-02-11 14:12:00,
2013-02-11 06:13:00,35.0,25.5,30.14,SE,139,0.0,3.0,68,0.00,,SKC,0.00,VWS V13.01,2013-02-11 14:13:00,
2013-02-11 06:14:00,35.0,25.5,30.14,SE,139,0.0,3.0,68,0.00,,SKC,0.00,VWS V13.01,2013-02-11 14:14:00,
2013-02-11 06:15:00,35.0,25.5,30.14,SE,139,0.0,3.0,68,0.00,,SKC,0.00,VWS V13.01,2013-02-11 14:15:00,
2013-02-11 06:16:00,34.9,25.4,30.14,SE,139,0.0,0.0,68,0.00,,SKC,0.00,VWS V13.01,2013-02-11 14:16:00,
2013-02-11 06:17:00,34.9,25.4,30.14,SE,139,3.0,4.0,68,0.00,,SKC,0.00,VWS V13.01,2013-02-11 14:17:00,
2013-02-11 06:18:00,35.1,25.6,30.14,SE,139,4.0,4.0,68,0.00,,SKC,0.00,VWS V13.01,2013-02-11 14:18:00,
2013-02-11 06:19:00,35.3,26.2,30.14,SE,139,3.0,4.0,69,0.00,,SKC,0.00,VWS V13.01,2013-02-11 14:19:00,
2013-02-11 06:20:00,35.6,26.5,30.13,SE,139,2.0,2.0,69,0.00,,SKC,0.00,VWS V13.01,2013-02-11 14:20:00,
2013-02-11 06:21:00,35.7,26.2,30.13,SE,139,2.0,3.0,68,0.00,,SKC,0.00,VWS V13.01,2013-02-11 14:21:00,
2013-02-11 06:22:00,35.9,26.4,30.13,SE,139,2.0,3.0,68,0.00,,SKC,0.00,VWS V13.01,2013-02-11 14:22:00,
2013-02-11 06:23:00,36.0,26.5,30.13,SE,139,0.0,3.0,68,0.00,,SKC,0.00,VWS V13.01,2013-02-11 14:23:00,
2013-02-11 06:24:00,36.0,26.1,30.13,SE,139,0.0,3.0,67,0.00,,SKC,0.00,VWS V13.01,2013-02-11 14:24:00,
2013-02-11 06:25:00,36.1,26.2,30.13,SE,139,0.0,3.0,67,0.00,,SKC,0.00,VWS V13.01,2013-02-11 14:25:00,
2013-02-11 06:26:00,36.1,26.2,30.13,SE,139,1.0,2.0,67,0.00,,SKC,0.00,VWS V13.01,2013-02-11 14:26:00,
2013-02-11 06:27:00,36.0,26.1,30.13,SE,139,0.0,2.0,67,0.00,,SKC,0.00,VWS V13.01,2013-02-11 14:27:00,
2013-02-11 06:28:00,36.0,26.5,30.13,SE,139,2.0,2.0,68,0.00,,SKC,0.00,VWS V13.01,2013-02-11 14:28:00,
2013-02-11 06:29:00,36.0,26.5,30.13,SE,139,0.0,3.0,68,0.00,,SKC,0.00,VWS V13.01,2013-02-11 14:29:00,
2013-02-11 06:30:00,36.0,26.8,30.13,SE,139,0.0,3.0,69,0.00,,SKC,0.00,VWS V13.01,2013-02-11 14:30:00,
2013-02-11 06:31:00,36.0,26.5,30.14,SE,139,0.0,1.0,68,0.00,,SKC,0.00,VWS V13.01,2013-02-11 14:31:00,
2013-02-11 06:32:00,36.0,26.5,30.14,SE,139,0.0,1.0,68,0.00,,SKC,0.00,VWS V13.01,2013-02-11 14:32:00,
2013-02-11 06:33:00,35.9,26.4,30.14,SE,139,0.0,1.0,68,0.00,,SKC,0.00,VWS V13.01,2013-02-11 14:33:00,
2013-02-11 06:34:00,35.8,26.3,30.14,SE,139,0.0,1.0,68,0.00,,SKC,0.00,VWS V13.01,2013-02-11 14:34:00,
2013-02-11 06:35:00,35.7,26.5,30.14,SE,139,0.0,1.0,69,0.00,,SKC,0.00,VWS V13.01,2013-02-11 14:35:00,
2013-02-11 06:36:00,35.6,26.5,30.14,SE,139,0.0,0.0,69,0.00,,SKC,0.00,VWS V13.01,2013-02-11 14:36:00,
2013-02-11 06:37:00,35.5,26.4,30.14,SE,139,0.0,0.0,69,0.00,,SKC,0.00,VWS V13.01,2013-02-11 14:37:00,
2013-02-11 06:38:00,35.4,26.6,30.14,SE,139,0.0,0.0,70,0.00,,SKC,0.00,VWS V13.01,2013-02-11 14:38:00,
2013-02-11 06:39:00,35.2,26.4,30.15,SE,139,0.0,0.0,70,0.00,,SKC,0.00,VWS V13.01,2013-02-11 14:39:00,
2013-02-11 06:40:00,35.1,26.3,30.15,SE,139,0.0,0.0,70,0.00,,SKC,0.00,VWS V13.01,2013-02-11 14:40:00,
2013-02-11 06:41:00,35.0,26.2,30.15,SE,139,0.0,0.0,70,0.00,,SKC,0.00,VWS V13.01,2013-02-11 14:41:00,
2013-02-11 06:42:00,34.9,26.1,30.15,SE,139,0.0,0.0,70,0.00,,SKC,0.00,VWS V13.01,2013-02-11 14:42:00,
2013-02-11 06:43:00,34.8,26.0,30.15,SE,139,0.0,0.0,70,0.00,,SKC,0.00,VWS V13.01,2013-02-11 14:43:00,
2013-02-11 06:44:00,34.6,25.8,30.15,SE,139,0.0,0.0,70,0.00,,SKC,0.00,VWS V13.01,2013-02-11 14:44:00,
2013-02-11 06:45:00,34.5,26.1,30.14,SE,139,0.0,0.0,71,0.00,,SKC,0.00,VWS V13.01,2013-02-11 14:45:00,
2013-02-11 06:46:00,34.4,26.0,30.14,SE,139,0.0,0.0,71,0.00,,SKC,0.00,VWS V13.01,2013-02-11 14:46:00,
2013-02-11 06:47:00,34.4,26.0,30.14,SE,139,0.0,0.0,71,0.00,,SKC,0.00,VWS V13.01,2013-02-11 14:47:00,
2013-02-11 06:48:00,34.4,26.3,30.14,SE,139,0.0,0.0,72,0.00,,SKC,0.00,VWS V13.01,2013-02-11 14:48:00,
2013-02-11 06:49:00,34.4,26.0,30.15,SE,139,0.0,0.0,71,0.00,,SKC,0.00,VWS V13.01,2013-02-11 14:49:00,
2013-02-11 06:50:00,34.2,26.1,30.14,SE,139,0.0,0.0,72,0.00,,SKC,0.00,VWS V13.01,2013-02-11 14:50:00,
2013-02-11 06:51:00,34.1,26.0,30.14,SE,139,0.0,0.0,72,0.00,,SKC,0.00,VWS V13.01,2013-02-11 14:51:00,
2013-02-11 06:52:00,33.9,25.8,30.14,SE,139,0.0,0.0,72,0.00,,SKC,0.00,VWS V13.01,2013-02-11 14:52:00,
2013-02-11 06:53:00,33.8,26.1,30.14,SE,139,0.0,0.0,73,0.00,,SKC,0.00,VWS V13.01,2013-02-11 14:53:00,
2013-02-11 06:54:00,33.7,26.0,30.14,SE,139,0.0,0.0,73,0.00,,SKC,0.00,VWS V13.01,2013-02-11 14:54:00,
2013-02-11 06:55:00,33.7,26.0,30.14,SE,139,0.0,0.0,73,0.00,,SKC,0.00,VWS V13.01,2013-02-11 14:55:00,
2013-02-11 06:56:00,33.7,26.3,30.14,SE,139,0.0,0.0,74,0.00,,SKC,0.00,VWS V13.01,2013-02-11 14:56:00,
2013-02-11 06:57:00,33.7,26.3,30.15,SE,139,0.0,0.0,74,0.00,,SKC,0.00,VWS V13.01,2013-02-11 14:57:00,
2013-02-11 06:58:00,33.6,26.2,30.14,SE,139,0.0,0.0,74,0.00,,SKC,0.00,VWS V13.01,2013-02-11 14:58:00,
2013-02-11 06:59:00,33.6,26.2,30.14,SE,139,0.0,0.0,74,0.00,,SKC,0.00,VWS V13.01,2013-02-11 14:59:00,
2013-02-11 07:00:00,33.6,26.2,30.15,SE,139,0.0,0.0,74,0.00,,SKC,0.00,VWS V13.01,2013-02-11 15:00:00,
2013-02-11 07:01:00,33.6,26.2,30.14,SE,139,0.0,0.0,74,0.00,,SKC,0.00,VWS V13.01,2013-02-11 15:01:00,
2013-02-11 07:02:00,33.5,26.4,30.14,SE,139,0.0,0.0,75,0.00,,SKC,0.00,VWS V13.01,2013-02-11 15:02:00,
2013-02-11 07:03:00,33.5,26.4,30.14,SE,139,0.0,0.0,75,0.00,,SKC,0.00,VWS V13.01,2013-02-11 15:03:00,
2013-02-11 07:04:00,33.5,26.4,30.14,SE,139,0.0,0.0,75,0.00,,SKC,0.00,VWS V13.01,2013-02-11 15:04:00,
2013-02-11 07:05:00,33.5,26.4,30.14,SE,139,0.0,0.0,75,0.00,,SKC,0.00,VWS V13.01,2013-02-11 15:05:00,
2013-02-11 07:06:00,33.5,26.4,30.15,SE,139,0.0,0.0,75,0.00,,SKC,0.00,VWS V13.01,2013-02-11 15:06:00,
2013-02-11 07:07:00,33.6,26.9,30.15,SE,139,0.0,0.0,76,0.00,,SKC,0.00,VWS V13.01,2013-02-11 15:07:00,
2013-02-11 07:08:00,33.6,26.9,30.15,SE,139,0.0,0.0,76,0.00,,SKC,0.00,VWS V13.01,2013-02-11 15:08:00,
2013-02-11 07:09:00,33.7,27.0,30.15,SE,139,0.0,0.0,76,0.00,,SKC,0.00,VWS V13.01,2013-02-11 15:09:00,
2013-02-11 07:10:00,33.7,27.0,30.15,SE,139,0.0,0.0,76,0.00,,SKC,0.00,VWS V13.01,2013-02-11 15:10:00,
2013-02-11 07:11:00,33.8,27.0,30.15,SE,139,0.0,0.0,76,0.00,,SKC,0.00,VWS V13.01,2013-02-11 15:11:00,
2013-02-11 07:12:00,33.9,27.1,30.15,SE,139,0.0,0.0,76,0.00,,SKC,0.00,VWS V13.01,2013-02-11 15:12:00,
2013-02-11 07:13:00,34.0,27.2,30.15,SE,139,0.0,0.0,76,0.00,,SKC,0.00,VWS V13.01,2013-02-11 15:13:00,
2013-02-11 07:14:00,34.1,27.3,30.15,SE,139,3.0,3.0,76,0.00,,SKC,0.00,VWS V13.01,2013-02-11 15:14:00,
2013-02-11 07:15:00,34.2,27.4,30.15,SE,139,3.0,3.0,76,0.00,,SKC,0.00,VWS V13.01,2013-02-11 15:15:00,
2013-02-11 07:16:00,34.4,27.6,30.15,SE,139,1.0,3.0,76,0.00,,SKC,0.00,VWS V13.01,2013-02-11 15:16:00,
2013-02-11 07:17:00,34.4,27.6,30.15,SE,139,3.0,3.0,76,0.00,,SKC,0.00,VWS V13.01,2013-02-11 15:17:00,
2013-02-11 07:18:00,34.4,27.6,30.15,SE,139,3.0,3.0,76,0.00,,SKC,0.00,VWS V13.01,2013-02-11 15:18:00,
2013-02-11 07:19:00,34.9,28.1,30.15,SE,139,2.0,3.0,76,0.00,,SKC,0.00,VWS V13.01,2013-02-11 15:19:00,
2013-02-11 07:20:00,35.2,28.1,30.15,SE,139,3.0,4.0,75,0.00,,SKC,0.00,VWS V13.01,2013-02-11 15:20:00,
2013-02-11 07:21:00,35.3,28.2,30.15,SE,139,2.0,4.0,75,0.00,,SKC,0.00,VWS V13.01,2013-02-11 15:21:00,
2013-02-11 07:22:00,35.6,28.5,30.15,SE,139,1.0,4.0,75,0.00,,SKC,0.00,VWS V13.01,2013-02-11 15:22:00,
2013-02-11 07:23:00,35.8,28.7,30.15,SE,139,0.0,4.0,75,0.00,,SKC,0.00,VWS V13.01,2013-02-11 15:23:00,
2013-02-11 07:24:00,36.0,28.9,30.15,SE,139,0.0,4.0,75,0.00,,SKC,0.00,VWS V13.01,2013-02-11 15:24:00,
2013-02-11 07:25:00,36.2,28.7,30.15,SE,139,0.0,4.0,74,0.00,,SKC,0.00,VWS V13.01,2013-02-11 15:25:00,
2013-02-11 07:26:00,36.4,28.9,30.15,SE,139,0.0,0.0,74,0.00,,SKC,0.00,VWS V13.01,2013-02-11 15:26:00,
2013-02-11 07:27:00,36.6,29.1,30.15,SE,139,2.0,3.0,74,0.00,,SKC,0.00,VWS V13.01,2013-02-11 15:27:00,
2013-02-11 07:28:00,36.8,29.0,30.15,SE,139,2.0,3.0,73,0.00,,SKC,0.00,VWS V13.01,2013-02-11 15:28:00,
2013-02-11 07:29:00,36.9,29.1,30.15,SE,139,2.0,3.0,73,0.00,,SKC,0.00,VWS V13.01,2013-02-11 15:29:00,
2013-02-11 07:30:00,37.1,29.3,30.15,SE,139,2.0,3.0,73,0.00,,SKC,0.00,VWS V13.01,2013-02-11 15:30:00,
2013-02-11 07:31:00,37.3,29.1,30.15,SE,139,0.0,2.0,72,0.00,,SKC,0.00,VWS V13.01,2013-02-11 15:31:00,
2013-02-11 07:32:00,37.6,29.4,30.15,SE,139,0.0,2.0,72,0.00,,SKC,0.00,VWS V13.01,2013-02-11 15:32:00,
2013-02-11 07:33:00,37.9,29.4,30.15,SE,139,0.0,2.0,71,0.00,,SKC,0.00,VWS V13.01,2013-02-11 15:33:00,
2013-02-11 07:34:00,38.2,29.3,30.15,SE,139,0.0,2.0,70,0.00,,SKC,0.00,VWS V13.01,2013-02-11 15:34:00,
2013-02-11 07:35:00,38.5,29.2,30.15,SE,139,2.0,2.0,69,0.00,,SKC,0.00,VWS V13.01,2013-02-11 15:35:00,
2013-02-11 07:36:00,38.9,29.2,30.15,SE,139,0.0,2.0,68,0.00,,SKC,0.00,VWS V13.01,2013-02-11 15:36:00,
2013-02-11 07:37:00,39.2,29.5,30.15,SE,139,0.0,2.0,68,0.00,,SKC,0.00,VWS V13.01,2013-02-11 15:37:00,
2013-02-11 07:38:00,39.4,29.7,30.15,SE,139,0.0,2.0,68,0.00,,SKC,0.00,VWS V13.01,2013-02-11 15:38:00,
2013-02-11 07:39:00,39.6,29.9,30.15,SE,139,0.0,2.0,68,0.00,,SKC,0.00,VWS V13.01,2013-02-11 15:39:00,
2013-02-11 07:40:00,39.8,29.8,30.15,SE,139,0.0,0.0,67,0.00,,SKC,0.00,VWS V13.01,2013-02-11 15:40:00,
2013-02-11 07:41:00,39.9,29.9,30.15,SE,139,2.0,2.0,67,0.00,,SKC,0.00,VWS V13.01,2013-02-11 15:41:00,
2013-02-11 07:42:00,40.1,29.7,30.15,SE,139,3.0,3.0,66,0.00,,SKC,0.00,VWS V13.01,2013-02-11 15:42:00,
2013-02-11 07:43:00,40.3,29.9,30.15,SE,139,2.0,3.0,66,0.00,,SKC,0.00,VWS V13.01,2013-02-11 15:43:00,
2013-02-11 07:44:00,40.4,29.6,30.15,SE,139,1.0,3.0,65,0.00,,SKC,0.00,VWS V13.01,2013-02-11 15:44:00,
2013-02-11 07:45:00,40.6,29.8,30.15,SE,139,2.0,3.0,65,0.00,,SKC,0.00,VWS V13.01,2013-02-11 15:45:00,
2013-02-11 07:46:00,40.7,29.5,30.15,SE,139,3.0,4.0,64,0.00,,SKC,0.00,VWS V13.01,2013-02-11 15:46:00,
2013-02-11 07:47:00,40.8,29.6,30.14,SE,143,2.0,4.0,64,0.00,,SKC,0.00,VWS V13.01,2013-02-11 15:47:00,
2013-02-11 07:48:00,40.9,29.7,30.15,SE,142,2.0,4.0,64,0.00,,SKC,0.00,VWS V13.01,2013-02-11 15:48:00,
2013-02-11 07:49:00,40.9,29.7,30.15,SE,143,1.0,4.0,64,0.00,,SKC,0.00,VWS V13.01,2013-02-11 15:49:00,
2013-02-11 07:50:00,41.0,29.8,30.15,SE,143,2.0,4.0,64,0.00,,SKC,0.00,VWS V13.01,2013-02-11 15:50:00,
2013-02-11 07:51:00,41.1,29.9,30.14,SSE,153,3.0,3.0,64,0.00,,SKC,0.00,VWS V13.01,2013-02-11 15:51:00,
2013-02-11 07:52:00,41.2,29.6,30.14,SSE,153,1.0,3.0,63,0.00,,SKC,0.00,VWS V13.01,2013-02-11 15:52:00,
2013-02-11 07:53:00,41.3,29.7,30.14,SSE,153,0.0,3.0,63,0.00,,SKC,0.00,VWS V13.01,2013-02-11 15:53:00,
2013-02-11 07:54:00,41.5,29.9,30.14,SSE,153,0.0,3.0,63,0.00,,SKC,0.00,VWS V13.01,2013-02-11 15:54:00,
2013-02-11 07:55:00,41.6,30.0,30.15,South,175,1.0,2.0,63,0.00,,SKC,0.00,VWS V13.01,2013-02-11 15:55:00,
2013-02-11 07:56:00,41.8,29.8,30.15,South,175,3.0,3.0,62,0.00,,SKC,0.00,VWS V13.01,2013-02-11 15:56:00,
2013-02-11 07:57:00,42.0,29.9,30.15,South,175,1.0,3.0,62,0.00,,SKC,0.00,VWS V13.01,2013-02-11 15:57:00,
2013-02-11 07:58:00,42.2,30.1,30.15,South,175,0.0,4.0,62,0.00,,SKC,0.00,VWS V13.01,2013-02-11 15:58:00,
2013-02-11 07:59:00,42.4,30.3,30.15,South,175,0.0,4.0,62,0.00,,SKC,0.00,VWS V13.01,2013-02-11 15:59:00,
2013-02-11 08:00:00,42.7,30.6,30.15,South,175,0.0,4.0,62,0.00,,SKC,0.00,VWS V13.01,2013-02-11 16:00:00,
2013-02-11 08:01:00,42.9,30.8,30.16,South,175,0.0,0.0,62,0.00,,SKC,0.00,VWS V13.01,2013-02-11 16:01:00,
2013-02-11 08:02:00,43.1,30.6,30.16,South,175,0.0,0.0,61,0.00,,SKC,0.00,VWS V13.01,2013-02-11 16:02:00,
2013-02-11 08:03:00,43.3,30.8,30.16,South,175,0.0,0.0,61,0.00,,SKC,0.00,VWS V13.01,2013-02-11 16:03:00,
2013-02-11 08:04:00,43.4,30.9,30.16,South,175,0.0,0.0,61,0.00,,SKC,0.00,VWS V13.01,2013-02-11 16:04:00,
2013-02-11 08:05:00,43.6,31.0,30.16,South,175,0.0,0.0,61,0.00,,SKC,0.00,VWS V13.01,2013-02-11 16:05:00,
2013-02-11 08:06:00,43.7,31.1,30.16,South,175,0.0,0.0,61,0.00,,SKC,0.00,VWS V13.01,2013-02-11 16:06:00,
2013-02-11 08:07:00,43.8,30.8,30.16,South,175,0.0,0.0,60,0.00,,SKC,0.00,VWS V13.01,2013-02-11 16:07:00,
2013-02-11 08:08:00,43.9,30.9,30.16,South,175,0.0,0.0,60,0.00,,SKC,0.00,VWS V13.01,2013-02-11 16:08:00,
2013-02-11 08:09:00,44.0,31.4,30.16,South,175,0.0,0.0,61,0.00,,SKC,0.00,VWS V13.01,2013-02-11 16:09:00,
2013-02-11 08:10:00,44.1,31.5,30.16,South,175,0.0,0.0,61,0.00,,SKC,0.00,VWS V13.01,2013-02-11 16:10:00,
2013-02-11 08:11:00,44.3,31.3,30.16,South,175,0.0,0.0,60,0.00,,SKC,0.00,VWS V13.01,2013-02-11 16:11:00,
2013-02-11 08:12:00,44.6,31.6,30.16,South,175,0.0,0.0,60,0.00,,SKC,0.00,VWS V13.01,2013-02-11 16:12:00,
2013-02-11 08:13:00,44.9,31.9,30.16,South,175,0.0,0.0,60,0.00,,SKC,0.00,VWS V13.01,2013-02-11 16:13:00,
2013-02-11 08:14:00,45.1,31.6,30.16,South,175,0.0,0.0,59,0.00,,SKC,0.00,VWS V13.01,2013-02-11 16:14:00,
2013-02-11 08:15:00,45.2,31.7,30.16,South,175,0.0,0.0,59,0.00,,SKC,0.00,VWS V13.01,2013-02-11 16:15:00,
2013-02-11 08:16:00,45.5,32.0,30.16,South,175,0.0,0.0,59,0.00,,SKC,0.00,VWS V13.01,2013-02-11 16:16:00,
2013-02-11 08:17:00,45.6,32.1,30.16,South,175,0.0,0.0,59,0.00,,SKC,0.00,VWS V13.01,2013-02-11 16:17:00,
2013-02-11 08:18:00,45.8,31.9,30.16,South,175,3.0,4.0,58,0.00,,SKC,0.00,VWS V13.01,2013-02-11 16:18:00,
2013-02-11 08:19:00,45.9,32.0,30.16,SSE,155,5.0,5.0,58,0.00,,SKC,0.00,VWS V13.01,2013-02-11 16:19:00,
2013-02-11 08:20:00,45.9,31.5,30.16,SSE,155,3.0,5.0,57,0.00,,SKC,0.00,VWS V13.01,2013-02-11 16:20:00,
2013-02-11 08:21:00,46.0,31.6,30.16,SSE,155,0.0,3.0,57,0.00,,SKC,0.00,VWS V13.01,2013-02-11 16:21:00,
2013-02-11 08:22:00,46.1,31.7,30.16,SSE,155,0.0,3.0,57,0.00,,SKC,0.00,VWS V13.01,2013-02-11 16:22:00,
2013-02-11 08:23:00,46.2,31.8,30.16,SSE,155,0.0,3.0,57,0.00,,SKC,0.00,VWS V13.01,2013-02-11 16:23:00,
2013-02-11 08:24:00,46.3,32.3,30.16,SSE,155,2.0,3.0,58,0.00,,SKC,0.00,VWS V13.01,2013-02-11 16:24:00,
2013-02-11 08:25:00,46.5,32.1,30.16,South,178,5.0,5.0,57,0.00,,SKC,0.00,VWS V13.01,2013-02-11 16:25:00,
2013-02-11 08:26:00,46.6,32.2,30.16,South,178,3.0,5.0,57,0.00,,SKC,0.00,VWS V13.01,2013-02-11 16:26:00,
2013-02-11 08:27:00,46.7,32.3,30.16,South,179,3.0,5.0,57,0.00,,SKC,0.00,VWS V13.01,2013-02-11 16:27:00,
2013-02-11 08:28:00,46.7,32.7,30.16,South,187,5.0,5.0,58,0.00,,SKC,0.00,VWS V13.01,2013-02-11 16:28:00,
2013-02-11 08:29:00,46.8,32.4,30.16,South,187,3.0,5.0,57,0.00,,SKC,0.00,VWS V13.01,2013-02-11 16:29:00,
2013-02-11 08:30:00,46.8,32.4,30.16,South,187,2.0,5.0,57,0.00,,SKC,0.00,VWS V13.01,2013-02-11 16:30:00,
2013-02-11 08:31:00,46.9,32.9,30.16,South,187,4.0,4.0,58,0.00,,SKC,0.00,VWS V13.01,2013-02-11 16:31:00,
2013-02-11 08:32:00,46.9,32.5,30.16,South,189,2.0,6.0,57,0.00,,SKC,0.00,VWS V13.01,2013-02-11 16:32:00,
2013-02-11 08:33:00,47.0,32.6,30.16,WSW,245,5.0,6.0,57,0.00,,SKC,0.00,VWS V13.01,2013-02-11 16:33:00,
2013-02-11 08:34:00,46.9,32.0,30.17,WSW,247,2.0,6.0,56,0.00,,SKC,0.00,VWS V13.01,2013-02-11 16:34:00,
2013-02-11 08:35:00,46.9,32.0,30.17,WSW,247,3.0,6.0,56,0.00,,SKC,0.00,VWS V13.01,2013-02-11 16:35:00,
2013-02-11 08:36:00,46.9,32.0,30.17,WNW,284,3.0,5.0,56,0.00,,SKC,0.00,VWS V13.01,2013-02-11 16:36:00,
2013-02-11 08:37:00,46.8,32.0,30.17,WNW,284,3.0,5.0,56,0.00,,SKC,0.00,VWS V13.01,2013-02-11 16:37:00,
2013-02-11 08:38:00,46.9,32.0,30.17,WNW,286,2.0,5.0,56,0.00,,SKC,0.00,VWS V13.01,2013-02-11 16:38:00,
2013-02-11 08:39:00,46.8,32.0,30.17,WNW,286,0.0,5.0,56,0.00,,SKC,0.00,VWS V13.01,2013-02-11 16:39:00,
2013-02-11 08:40:00,46.9,32.0,30.17,WNW,286,3.0,5.0,56,0.00,,SKC,0.00,VWS V13.01,2013-02-11 16:40:00,
2013-02-11 08:41:00,46.9,32.9,30.17,WNW,286,3.0,5.0,58,0.00,,SKC,0.00,VWS V13.01,2013-02-11 16:41:00,
2013-02-11 08:42:00,47.0,33.0,30.17,WNW,286,2.0,5.0,58,0.00,,SKC,0.00,VWS V13.01,2013-02-11 16:42:00,
2013-02-11 08:43:00,47.0,33.0,30.17,WNW,286,2.0,5.0,58,0.00,,SKC,0.00,VWS V13.01,2013-02-11 16:43:00,
2013-02-11 08:44:00,47.0,33.0,30.17,WNW,286,4.0,5.0,58,0.00,,SKC,0.00,VWS V13.01,2013-02-11 16:44:00,
2013-02-11 08:45:00,47.0,33.4,30.17,WNW,286,1.0,1.0,59,0.00,,SKC,0.00,VWS V13.01,2013-02-11 16:45:00,
2013-02-11 08:46:00,47.1,33.5,30.17,WNW,286,3.0,4.0,59,0.00,,SKC,0.00,VWS V13.01,2013-02-11 16:46:00,
2013-02-11 08:47:00,47.2,33.6,30.17,WNW,286,3.0,4.0,59,0.00,,SKC,0.00,VWS V13.01,2013-02-11 16:47:00,
2013-02-11 08:48:00,47.3,34.1,30.17,WSW,254,2.0,5.0,60,0.00,,SKC,0.00,VWS V13.01,2013-02-11 16:48:00,
2013-02-11 08:49:00,47.3,34.5,30.17,WSW,254,3.0,5.0,61,0.00,,SKC,0.00,VWS V13.01,2013-02-11 16:49:00,
2013-02-11 08:50:00,47.3,34.1,30.17,WSW,254,0.0,5.0,60,0.00,,SKC,0.00,VWS V13.01,2013-02-11 16:50:00,
2013-02-11 08:51:00,47.4,34.6,30.17,WSW,254,2.0,3.0,61,0.00,,SKC,0.00,VWS V13.01,2013-02-11 16:51:00,
2013-02-11 08:52:00,47.5,34.7,30.17,WSW,254,1.0,3.0,61,0.00,,SKC,0.00,VWS V13.01,2013-02-11 16:52:00,
2013-02-11 08:53:00,47.6,34.8,30.17,WSW,253,3.0,6.0,61,0.00,,SKC,0.00,VWS V13.01,2013-02-11 16:53:00,
2013-02-11 08:54:00,47.6,34.4,30.17,WSW,253,2.0,6.0,60,0.00,,SKC,0.00,VWS V13.01,2013-02-11 16:54:00,
2013-02-11 08:55:00,47.6,34.4,30.17,WSW,253,0.0,6.0,60,0.00,,SKC,0.00,VWS V13.01,2013-02-11 16:55:00,
2013-02-11 08:56:00,47.6,34.8,30.17,WSW,253,2.0,4.0,61,0.00,,SKC,0.00,VWS V13.01,2013-02-11 16:56:00,
2013-02-11 08:57:00,47.6,34.4,30.17,WSW,253,2.0,4.0,60,0.00,,SKC,0.00,VWS V13.01,2013-02-11 16:57:00,
2013-02-11 08:58:00,47.6,34.8,30.17,WSW,253,3.0,4.0,61,0.00,,SKC,0.00,VWS V13.01,2013-02-11 16:58:00,
2013-02-11 08:59:00,47.7,34.9,30.17,WSW,252,4.0,4.0,61,0.00,,SKC,0.00,VWS V13.01,2013-02-11 16:59:00,
2013-02-11 09:00:00,47.8,35.0,30.17,WSW,246,3.0,6.0,61,0.00,,SKC,0.00,VWS V13.01,2013-02-11 17:00:00,
2013-02-11 09:01:00,47.8,35.0,30.17,WSW,246,3.0,5.0,61,0.00,,SKC,0.00,VWS V13.01,2013-02-11 17:01:00,
2013-02-11 09:02:00,47.8,35.0,30.17,WSW,246,5.0,5.0,61,0.00,,SKC,0.00,VWS V13.01,2013-02-11 17:02:00,
2013-02-11 09:03:00,47.9,35.5,30.17,WSW,245,4.0,6.0,62,0.00,,SKC,0.00,VWS V13.01,2013-02-11 17:03:00,
2013-02-11 09:04:00,47.9,35.1,30.17,WSW,244,4.0,6.0,61,0.00,,SKC,0.00,VWS V13.01,2013-02-11 17:04:00,
2013-02-11 09:05:00,47.9,35.1,30.17,WSW,244,4.0,6.0,61,0.00,,SKC,0.00,VWS V13.01,2013-02-11 17:05:00,
2013-02-11 09:06:00,47.9,35.1,30.17,WSW,244,2.0,4.0,61,0.00,,SKC,0.00,VWS V13.01,2013-02-11 17:06:00,
2013-02-11 09:07:00,47.8,35.0,30.17,WSW,244,3.0,5.0,61,0.00,,SKC,0.00,VWS V13.01,2013-02-11 17:07:00,
2013-02-11 09:08:00,47.9,35.5,30.18,WNW,303,5.0,7.0,62,0.00,,SKC,0.00,VWS V13.01,2013-02-11 17:08:00,
2013-02-11 09:09:00,47.9,35.5,30.18,West,278,3.0,7.0,62,0.00,,SKC,0.00,VWS V13.01,2013-02-11 17:09:00,
2013-02-11 09:10:00,47.9,35.5,30.18,West,279,5.0,7.0,62,0.00,,SKC,0.00,VWS V13.01,2013-02-11 17:10:00,
2013-02-11 09:11:00,47.8,35.0,30.18,West,279,5.0,6.0,61,0.00,,SKC,0.00,VWS V13.01,2013-02-11 17:11:00,
2013-02-11 09:12:00,47.7,34.9,30.18,West,279,3.0,6.0,61,0.00,,SKC,0.00,VWS V13.01,2013-02-11 17:12:00,
2013-02-11 09:13:00,47.7,34.9,30.18,WSW,254,3.0,6.0,61,0.00,,SKC,0.00,VWS V13.01,2013-02-11 17:13:00,
2013-02-11 09:14:00,47.7,34.9,30.18,WSW,254,4.0,6.0,61,0.00,,SKC,0.00,VWS V13.01,2013-02-11 17:14:00,
2013-02-11 09:15:00,47.8,35.0,30.18,WSW,254,3.0,6.0,61,0.00,,SKC,0.00,VWS V13.01,2013-02-11 17:15:00,
2013-02-11 09:16:00,47.8,35.0,30.18,WSW,254,3.0,4.0,61,0.00,,SKC,0.00,VWS V13.01,2013-02-11 17:16:00,
2013-02-11 09:17:00,47.9,35.1,30.18,WSW,256,3.0,6.0,61,0.00,,SKC,0.00,VWS V13.01,2013-02-11 17:17:00,
2013-02-11 09:18:00,47.9,35.1,30.18,WSW,256,3.0,6.0,61,0.00,,SKC,0.00,VWS V13.01,2013-02-11 17:18:00,
2013-02-11 09:19:00,48.0,35.6,30.18,West,261,3.0,6.0,62,0.00,,SKC,0.00,VWS V13.01,2013-02-11 17:19:00,
2013-02-11 09:20:00,48.0,35.6,30.18,WNW,288,1.0,6.0,62,0.00,,SKC,0.00,VWS V13.01,2013-02-11 17:20:00,
2013-02-11 09:21:00,48.1,35.7,30.18,WNW,288,0.0,1.0,62,0.00,,SKC,0.00,VWS V13.01,2013-02-11 17:21:00,
2013-02-11 09:22:00,48.2,35.8,30.18,WNW,288,4.0,4.0,62,0.00,,SKC,0.00,VWS V13.01,2013-02-11 17:22:00,
2013-02-11 09:23:00,48.3,35.9,30.18,WNW,288,2.0,4.0,62,0.00,,SKC,0.00,VWS V13.01,2013-02-11 17:23:00,
2013-02-11 09:24:00,48.4,36.0,30.18,WNW,288,1.0,4.0,62,0.00,,SKC,0.00,VWS V13.01,2013-02-11 17:24:00,
2013-02-11 09:25:00,48.5,36.1,30.18,WNW,287,2.0,4.0,62,0.00,,SKC,0.00,VWS V13.01,2013-02-11 17:25:00,
2013-02-11 09:26:00,48.6,35.8,30.18,WNW,287,1.0,3.0,61,0.00,,SKC,0.00,VWS V13.01,2013-02-11 17:26:00,
2013-02-11 09:27:00,48.8,36.4,30.18,WNW,287,0.0,3.0,62,0.00,,SKC,0.00,VWS V13.01,2013-02-11 17:27:00,
2013-02-11 09:28:00,49.0,36.6,30.18,WNW,287,3.0,3.0,62,0.00,,SKC,0.00,VWS V13.01,2013-02-11 17:28:00,
2013-02-11 09:29:00,49.1,36.7,30.18,WNW,287,1.0,3.0,62,0.00,,SKC,0.00,VWS V13.01,2013-02-11 17:29:00,
2013-02-11 09:30:00,49.2,36.8,30.18,WNW,287,3.0,5.0,62,0.00,,SKC,0.00,VWS V13.01,2013-02-11 17:30:00,
2013-02-11 09:31:00,49.2,36.8,30.18,WNW,302,0.0,4.0,62,0.00,,SKC,0.00,VWS V13.01,2013-02-11 17:31:00,
2013-02-11 09:32:00,49.2,36.8,30.19,WNW,302,4.0,4.0,62,0.00,,SKC,0.00,VWS V13.01,2013-02-11 17:32:00,
2013-02-11 09:33:00,49.2,36.3,30.19,WNW,294,3.0,7.0,61,0.00,,SKC,0.00,VWS V13.01,2013-02-11 17:33:00,
2013-02-11 09:34:00,49.2,36.3,30.19,WNW,294,0.0,7.0,61,0.00,,SKC,0.00,VWS V13.01,2013-02-11 17:34:00,
2013-02-11 09:35:00,49.2,36.3,30.19,WNW,296,4.0,7.0,61,0.00,,SKC,0.00,VWS V13.01,2013-02-11 17:35:00,
2013-02-11 09:36:00,49.2,36.3,30.19,WNW,296,0.0,4.0,61,0.00,,SKC,0.00,VWS V13.01,2013-02-11 17:36:00,
2013-02-11 09:37:00,49.2,36.3,30.19,West,278,5.0,6.0,61,0.00,,SKC,0.00,VWS V13.01,2013-02-11 17:37:00,
2013-02-11 09:38:00,49.1,35.8,30.19,WNW,286,6.0,7.0,60,0.00,,SKC,0.00,VWS V13.01,2013-02-11 17:38:00,
2013-02-11 09:39:00,49.0,36.2,30.19,WNW,292,4.0,7.0,61,0.00,,SKC,0.00,VWS V13.01,2013-02-11 17:39:00,
2013-02-11 09:40:00,48.9,36.5,30.19,NW,321,2.0,7.0,62,0.00,,SKC,0.00,VWS V13.01,2013-02-11 17:40:00,
2013-02-11 09:41:00,48.9,36.1,30.19,NW,318,2.0,4.0,61,0.00,,SKC,0.00,VWS V13.01,2013-02-11 17:41:00,
2013-02-11 09:42:00,49.0,36.6,30.19,NW,304,3.0,6.0,62,0.00,,SKC,0.00,VWS V13.01,2013-02-11 17:42:00,
2013-02-11 09:43:00,49.0,36.6,30.19,NW,304,5.0,6.0,62,0.00,,SKC,0.00,VWS V13.01,2013-02-11 17:43:00,
2013-02-11 09:44:00,49.0,36.2,30.19,NW,304,0.0,6.0,61,0.00,,SKC,0.00,VWS V13.01,2013-02-11 17:44:00,
2013-02-11 09:45:00,49.1,36.2,30.19,NW,304,2.0,6.0,61,0.00,,SKC,0.00,VWS V13.01,2013-02-11 17:45:00,
2013-02-11 09:46:00,49.2,36.3,30.19,WSW,257,3.0,5.0,61,0.00,,SKC,0.00,VWS V13.01,2013-02-11 17:46:00,
2013-02-11 09:47:00,49.2,36.3,30.19,WSW,252,3.0,5.0,61,0.00,,SKC,0.00,VWS V13.01,2013-02-11 17:47:00,
2013-02-11 09:48:00,49.2,36.3,30.19,WSW,251,2.0,5.0,61,0.00,,SKC,0.00,VWS V13.01,2013-02-11 17:48:00,
2013-02-11 09:49:00,49.3,36.4,30.19,WSW,251,2.0,5.0,61,0.00,,SKC,0.00,VWS V13.01,2013-02-11 17:49:00,
2013-02-11 09:50:00,49.4,36.5,30.19,WSW,251,2.0,5.0,61,0.00,,SKC,0.00,VWS V13.01,2013-02-11 17:50:00,
2013-02-11 09:51:00,49.5,36.6,30.18,WSW,251,3.0,4.0,61,0.00,,SKC,0.00,VWS V13.01,2013-02-11 17:51:00,
2013-02-11 09:52:00,49.5,36.6,30.18,WSW,251,5.0,5.0,61,0.00,,SKC,0.00,VWS V13.01,2013-02-11 17:52:00,
2013-02-11 09:53:00,49.5,36.2,30.19,WSW,251,3.0,5.0,60,0.00,,SKC,0.00,VWS V13.01,2013-02-11 17:53:00,
2013-02-11 09:54:00,49.6,36.3,30.19,West,269,5.0,5.0,60,0.00,,SKC,0.00,VWS V13.01,2013-02-11 17:54:00,
2013-02-11 09:55:00,49.4,36.1,30.19,WNW,284,4.0,5.0,60,0.00,,SKC,0.00,VWS V13.01,2013-02-11 17:55:00,
2013-02-11 09:56:00,49.4,36.1,30.19,WNW,285,3.0,6.0,60,0.00,,SKC,0.00,VWS V13.01,2013-02-11 17:56:00,
2013-02-11 09:57:00,49.3,36.0,30.19,WNW,284,6.0,6.0,60,0.00,,SKC,0.00,VWS V13.01,2013-02-11 17:57:00,
2013-02-11 09:58:00,49.4,36.1,30.19,WNW,284,4.0,6.0,60,0.00,,SKC,0.00,VWS V13.01,2013-02-11 17:58:00,
2013-02-11 09:59:00,49.4,36.5,30.19,WNW,284,0.0,6.0,61,0.00,,SKC,0.00,VWS V13.01,2013-02-11 17:59:00,
2013-02-11 10:00:00,49.5,36.6,30.19,WNW,284,0.0,6.0,61,0.00,,SKC,0.00,VWS V13.01,2013-02-11 18:00:00,
2013-02-11 10:01:00,49.6,36.7,30.19,WNW,284,0.0,0.0,61,0.00,,SKC,0.00,VWS V13.01,2013-02-11 18:01:00,
2013-02-11 10:02:00,49.7,36.8,30.19,WNW,284,3.0,4.0,61,0.00,,SKC,0.00,VWS V13.01,2013-02-11 18:02:00,
2013-02-11 10:03:00,49.9,36.6,30.19,WNW,284,2.0,4.0,60,0.00,,SKC,0.00,VWS V13.01,2013-02-11 18:03:00,
2013-02-11 10:04:00,50.1,36.8,30.19,SW,232,4.0,5.0,60,0.00,,SKC,0.00,VWS V13.01,2013-02-11 18:04:00,
2013-02-11 10:05:00,50.2,36.9,30.19,West,270,4.0,5.0,60,0.00,,SKC,0.00,VWS V13.01,2013-02-11 18:05:00,
2013-02-11 10:06:00,50.2,36.9,30.19,West,269,3.0,5.0,60,0.00,,SKC,0.00,VWS V13.01,2013-02-11 18:06:00,
2013-02-11 10:07:00,50.3,37.0,30.19,West,275,3.0,6.0,60,0.00,,SKC,0.00,VWS V13.01,2013-02-11 18:07:00,
2013-02-11 10:08:00,50.2,36.4,30.19,West,275,4.0,6.0,59,0.00,,SKC,0.00,VWS V13.01,2013-02-11 18:08:00,
2013-02-11 10:09:00,50.2,36.4,30.19,West,274,2.0,6.0,59,0.00,,SKC,0.00,VWS V13.01,2013-02-11 18:09:00,
2013-02-11 10:10:00,50.2,36.4,30.19,West,275,3.0,6.0,59,0.00,,SKC,0.00,VWS V13.01,2013-02-11 18:10:00,
2013-02-11 10:11:00,50.3,36.1,30.19,WNW,292,5.0,6.0,58,0.00,,SKC,0.00,VWS V13.01,2013-02-11 18:11:00,
2013-02-11 10:12:00,50.2,36.0,30.19,WNW,292,3.0,6.0,58,0.00,,SKC,0.00,VWS V13.01,2013-02-11 18:12:00,
2013-02-11 10:13:00,50.1,35.9,30.19,WNW,292,2.0,6.0,58,0.00,,SKC,0.00,VWS V13.01,2013-02-11 18:13:00,
2013-02-11 10:14:00,50.0,35.8,30.19,WNW,292,4.0,6.0,58,0.00,,SKC,0.00,VWS V13.01,2013-02-11 18:14:00,
2013-02-11 10:15:00,50.1,36.8,30.19,WNW,292,1.0,6.0,60,0.00,,SKC,0.00,VWS V13.01,2013-02-11 18:15:00,
2013-02-11 10:16:00,50.1,36.3,30.19,WNW,289,4.0,4.0,59,0.00,,SKC,0.00,VWS V13.01,2013-02-11 18:16:00,
2013-02-11 10:17:00,50.2,36.4,30.19,West,276,6.0,7.0,59,0.00,,SKC,0.00,VWS V13.01,2013-02-11 18:17:00,
2013-02-11 10:18:00,50.1,35.9,30.19,West,276,0.0,7.0,58,0.00,,SKC,0.00,VWS V13.01,2013-02-11 18:18:00,
2013-02-11 10:19:00,50.1,35.9,30.19,West,276,1.0,7.0,58,0.00,,SKC,0.00,VWS V13.01,2013-02-11 18:19:00,
2013-02-11 10:20:00,50.1,36.3,30.19,West,276,0.0,0.0,59,0.00,,SKC,0.00,VWS V13.01,2013-02-11 18:20:00,
2013-02-11 10:21:00,50.2,36.0,30.19,West,276,0.0,0.0,58,0.00,,SKC,0.00,VWS V13.01,2013-02-11 18:21:00,
2013-02-11 10:22:00,50.3,37.0,30.19,WNW,290,3.0,5.0,60,0.00,,SKC,0.00,VWS V13.01,2013-02-11 18:22:00,
2013-02-11 10:23:00,50.3,36.1,30.19,WNW,286,5.0,7.0,58,0.00,,SKC,0.00,VWS V13.01,2013-02-11 18:23:00,
2013-02-11 10:24:00,50.2,36.0,30.19,WNW,286,4.0,7.0,58,0.00,,SKC,0.00,VWS V13.01,2013-02-11 18:24:00,
2013-02-11 10:25:00,50.2,36.0,30.19,WNW,286,3.0,3.0,58,0.00,,SKC,0.00,VWS V13.01,2013-02-11 18:25:00,
2013-02-11 10:26:00,50.2,36.0,30.19,WNW,286,2.0,3.0,58,0.00,,SKC,0.00,VWS V13.01,2013-02-11 18:26:00,
2013-02-11 10:27:00,50.2,36.9,30.19,WNW,286,0.0,3.0,60,0.00,,SKC,0.00,VWS V13.01,2013-02-11 18:27:00,
2013-02-11 10:28:00,50.3,36.5,30.19,WNW,286,0.0,3.0,59,0.00,,SKC,0.00,VWS V13.01,2013-02-11 18:28:00,
2013-02-11 10:29:00,50.4,36.6,30.19,WNW,286,0.0,3.0,59,0.00,,SKC,0.00,VWS V13.01,2013-02-11 18:29:00,
2013-02-11 10:30:00,50.6,36.8,30.19,WNW,286,3.0,4.0,59,0.00,,SKC,0.00,VWS V13.01,2013-02-11 18:30:00,
2013-02-11 10:31:00,50.6,36.4,30.19,NNW,334,1.0,5.0,58,0.00,,SKC,0.00,VWS V13.01,2013-02-11 18:31:00,
2013-02-11 10:32:00,50.7,36.0,30.19,NW,318,3.0,7.0,57,0.00,,SKC,0.00,VWS V13.01,2013-02-11 18:32:00,
2013-02-11 10:33:00,50.8,36.6,30.19,NW,318,0.0,7.0,58,0.00,,SKC,0.00,VWS V13.01,2013-02-11 18:33:00,
2013-02-11 10:34:00,50.8,36.1,30.19,NW,313,5.0,7.0,57,0.00,,SKC,0.00,VWS V13.01,2013-02-11 18:34:00,
2013-02-11 10:35:00,50.8,36.6,30.19,WNW,301,3.0,7.0,58,0.00,,SKC,0.00,VWS V13.01,2013-02-11 18:35:00,
2013-02-11 10:36:00,51.0,37.2,30.19,West,272,2.0,5.0,59,0.00,,SKC,0.00,VWS V13.01,2013-02-11 18:36:00,
2013-02-11 10:37:00,51.0,36.8,30.19,West,273,4.0,5.0,58,0.00,,SKC,0.00,VWS V13.01,2013-02-11 18:37:00,
2013-02-11 10:38:00,51.0,36.3,30.19,West,281,2.0,5.0,57,0.00,,SKC,0.00,VWS V13.01,2013-02-11 18:38:00,
2013-02-11 10:39:00,51.0,36.3,30.19,West,281,0.0,5.0,57,0.00,,SKC,0.00,VWS V13.01,2013-02-11 18:39:00,
2013-02-11 10:40:00,51.0,36.8,30.19,West,281,2.0,5.0,58,0.00,,SKC,0.00,VWS V13.01,2013-02-11 18:40:00,
2013-02-11 10:41:00,51.0,36.8,30.19,West,280,2.0,2.0,58,0.00,,SKC,0.00,VWS V13.01,2013-02-11 18:41:00,
2013-02-11 10:42:00,51.2,37.4,30.19,WSW,252,5.0,5.0,59,0.00,,SKC,0.00,VWS V13.01,2013-02-11 18:42:00,
2013-02-11 10:43:00,51.4,37.1,30.19,WSW,252,3.0,5.0,58,0.00,,SKC,0.00,VWS V13.01,2013-02-11 18:43:00,
2013-02-11 10:44:00,51.6,36.9,30.18,SW,236,2.0,5.0,57,0.00,,SKC,0.00,VWS V13.01,2013-02-11 18:44:00,
2013-02-11 10:45:00,51.7,36.5,30.18,SW,236,1.0,5.0,56,0.00,,SKC,0.00,VWS V13.01,2013-02-11 18:45:00,
2013-02-11 10:46:00,51.8,36.6,30.18,SW,236,3.0,3.0,56,0.00,,SKC,0.00,VWS V13.01,2013-02-11 18:46:00,
2013-02-11 10:47:00,51.9,36.3,30.18,South,190,4.0,5.0,55,0.00,,SKC,0.00,VWS V13.01,2013-02-11 18:47:00,
2013-02-11 10:48:00,51.9,36.3,30.18,South,190,0.0,5.0,55,0.00,,SKC,0.00,VWS V13.01,2013-02-11 18:48:00,
2013-02-11 10:49:00,52.0,36.3,30.18,South,190,1.0,5.0,55,0.00,,SKC,0.00,VWS V13.01,2013-02-11 18:49:00,
2013-02-11 10:50:00,52.1,36.4,30.18,South,190,0.0,5.0,55,0.00,,SKC,0.00,VWS V13.01,2013-02-11 18:50:00,
2013-02-11 10:51:00,52.2,37.0,30.18,South,190,0.0,3.0,56,0.00,,SKC,0.00,VWS V13.01,2013-02-11 18:51:00,
2013-02-11 10:52:00,52.4,37.2,30.18,South,191,1.0,4.0,56,0.00,,SKC,0.00,VWS V13.01,2013-02-11 18:52:00,
2013-02-11 10:53:00,52.5,36.8,30.18,South,191,2.0,4.0,55,0.00,,SKC,0.00,VWS V13.01,2013-02-11 18:53:00,
2013-02-11 10:54:00,52.5,35.9,30.18,South,191,0.0,4.0,53,0.00,,SKC,0.00,VWS V13.01,2013-02-11 18:54:00,
2013-02-11 10:55:00,52.6,36.0,30.18,South,191,0.0,0.0,53,0.00,,SKC,0.00,VWS V13.01,2013-02-11 18:55:00,
2013-02-11 10:56:00,52.7,36.1,30.18,South,191,0.0,0.0,53,0.00,,SKC,0.00,VWS V13.01,2013-02-11 18:56:00,
2013-02-11 10:57:00,52.7,36.1,30.18,South,191,3.0,4.0,53,0.00,,SKC,0.00,VWS V13.01,2013-02-11 18:57:00,
2013-02-11 10:58:00,52.7,36.5,30.18,SSW,209,5.0,7.0,54,0.00,,SKC,0.00,VWS V13.01,2013-02-11 18:58:00,
2013-02-11 10:59:00,52.7,36.1,30.18,SSW,208,5.0,7.0,53,0.00,,SKC,0.00,VWS V13.01,2013-02-11 18:59:00,
2013-02-11 11:00:00,52.7,36.1,30.18,SSW,207,5.0,7.0,53,0.00,,SKC,0.00,VWS V13.01,2013-02-11 19:00:00,
2013-02-11 11:01:00,52.6,36.0,30.17,SSW,208,6.0,6.0,53,0.00,,SKC,0.00,VWS V13.01,2013-02-11 19:01:00,
2013-02-11 11:02:00,52.7,36.5,30.17,SW,231,3.0,6.0,54,0.00,,SKC,0.00,VWS V13.01,2013-02-11 19:02:00,
2013-02-11 11:03:00,52.7,36.1,30.17,SW,231,0.0,6.0,53,0.00,,SKC,0.00,VWS V13.01,2013-02-11 19:03:00,
2013-02-11 11:04:00,52.7,37.0,30.17,SW,231,0.0,6.0,55,0.00,,SKC,0.00,VWS V13.01,2013-02-11 19:04:00,
2013-02-11 11:05:00,52.7,36.5,30.17,SW,230,2.0,6.0,54,0.00,,SKC,0.00,VWS V13.01,2013-02-11 19:05:00,
2013-02-11 11:06:00,52.8,37.1,30.17,SW,230,0.0,1.0,55,0.00,,SKC,0.00,VWS V13.01,2013-02-11 19:06:00,
2013-02-11 11:07:00,52.9,36.7,30.17,SW,230,0.0,1.0,54,0.00,,SKC,0.00,VWS V13.01,2013-02-11 19:07:00,
2013-02-11 11:08:00,52.9,36.7,30.17,SW,230,0.0,1.0,54,0.00,,SKC,0.00,VWS V13.01,2013-02-11 19:08:00,
2013-02-11 11:09:00,53.0,37.3,30.17,SW,230,0.0,1.0,55,0.00,,SKC,0.00,VWS V13.01,2013-02-11 19:09:00,
2013-02-11 11:10:00,53.1,37.4,30.17,SW,230,0.0,0.0,55,0.00,,SKC,0.00,VWS V13.01,2013-02-11 19:10:00,
2013-02-11 11:11:00,53.2,36.5,30.17,SW,230,0.0,0.0,53,0.00,,SKC,0.00,VWS V13.01,2013-02-11 19:11:00,
2013-02-11 11:12:00,53.3,37.1,30.17,SW,230,0.0,2.0,54,0.00,,SKC,0.00,VWS V13.01,2013-02-11 19:12:00,
2013-02-11 11:13:00,53.5,37.3,30.17,WSW,239,0.0,3.0,54,0.00,,SKC,0.00,VWS V13.01,2013-02-11 19:13:00,
2013-02-11 11:14:00,53.6,36.4,30.16,WNW,282,3.0,4.0,52,0.00,,SKC,0.00,VWS V13.01,2013-02-11 19:14:00,
2013-02-11 11:15:00,53.6,35.9,30.16,WNW,301,0.0,4.0,51,0.00,,SKC,0.00,VWS V13.01,2013-02-11 19:15:00,
2013-02-11 11:16:00,53.7,36.0,30.16,NW,323,4.0,5.0,51,0.00,,SKC,0.00,VWS V13.01,2013-02-11 19:16:00,
2013-02-11 11:17:00,53.7,36.0,30.16,NW,323,2.0,5.0,51,0.00,,SKC,0.00,VWS V13.01,2013-02-11 19:17:00,
2013-02-11 11:18:00,53.7,36.0,30.16,NW,325,2.0,5.0,51,0.00,,SKC,0.00,VWS V13.01,2013-02-11 19:18:00,
2013-02-11 11:19:00,53.7,36.0,30.16,NW,325,0.0,5.0,51,0.00,,SKC,0.00,VWS V13.01,2013-02-11 19:19:00,
2013-02-11 11:20:00,53.6,35.4,30.16,NW,324,0.0,5.0,50,0.00,,SKC,0.00,VWS V13.01,2013-02-11 19:20:00,
2013-02-11 11:21:00,53.6,35.4,30.16,NW,324,0.0,3.0,50,0.00,,SKC,0.00,VWS V13.01,2013-02-11 19:21:00,
2013-02-11 11:22:00,53.6,35.4,30.16,NW,324,0.0,3.0,50,0.00,,SKC,0.00,VWS V13.01,2013-02-11 19:22:00,
2013-02-11 11:23:00,53.5,34.8,30.16,NW,324,3.0,3.0,49,0.00,,SKC,0.00,VWS V13.01,2013-02-11 19:23:00,
2013-02-11 11:24:00,53.5,34.8,30.16,NW,324,0.0,3.0,49,0.00,,SKC,0.00,VWS V13.01,2013-02-11 19:24:00,
2013-02-11 11:25:00,53.6,35.9,30.16,WSW,252,0.0,6.0,51,0.00,,SKC,0.00,VWS V13.01,2013-02-11 19:25:00,
2013-02-11 11:26:00,53.8,36.6,30.16,SW,224,4.0,6.0,52,0.00,,SKC,0.00,VWS V13.01,2013-02-11 19:26:00,
2013-02-11 11:27:00,53.9,36.7,30.16,SW,224,4.0,6.0,52,0.00,,SKC,0.00,VWS V13.01,2013-02-11 19:27:00,
2013-02-11 11:28:00,53.9,35.7,30.16,SW,224,3.0,6.0,50,0.00,,SKC,0.00,VWS V13.01,2013-02-11 19:28:00,
2013-02-11 11:29:00,53.9,36.2,30.16,SW,223,3.0,6.0,51,0.00,,SKC,0.00,VWS V13.01,2013-02-11 19:29:00,
2013-02-11 11:30:00,53.9,35.7,30.16,SW,223,0.0,6.0,50,0.00,,SKC,0.00,VWS V13.01,2013-02-11 19:30:00,
2013-02-11 11:31:00,53.9,35.2,30.16,SW,223,0.0,0.0,49,0.00,,SKC,0.00,VWS V13.01,2013-02-11 19:31:00,
2013-02-11 11:32:00,53.9,35.7,30.16,SW,223,0.0,0.0,50,0.00,,SKC,0.00,VWS V13.01,2013-02-11 19:32:00,
2013-02-11 11:33:00,54.0,35.8,30.15,SW,223,0.0,0.0,50,0.00,,SKC,0.00,VWS V13.01,2013-02-11 19:33:00,
2013-02-11 11:34:00,54.1,37.4,30.15,SW,223,0.0,0.0,53,0.00,,SKC,0.00,VWS V13.01,2013-02-11 19:34:00,
2013-02-11 11:35:00,54.3,36.6,30.15,SW,223,0.0,0.0,51,0.00,,SKC,0.00,VWS V13.01,2013-02-11 19:35:00,
2013-02-11 11:36:00,54.4,36.2,30.15,SW,223,4.0,4.0,50,0.00,,SKC,0.00,VWS V13.01,2013-02-11 19:36:00,
2013-02-11 11:37:00,54.5,36.3,30.15,SW,223,0.0,4.0,50,0.00,,SKC,0.00,VWS V13.01,2013-02-11 19:37:00,
2013-02-11 11:38:00,54.6,36.3,30.15,SSW,213,3.0,5.0,50,0.00,,SKC,0.00,VWS V13.01,2013-02-11 19:38:00,
2013-02-11 11:39:00,54.7,35.9,30.15,SSW,213,3.0,5.0,49,0.00,,SKC,0.00,VWS V13.01,2013-02-11 19:39:00,
2013-02-11 11:40:00,54.8,36.0,30.15,SSW,213,2.0,5.0,49,0.00,,SKC,0.00,VWS V13.01,2013-02-11 19:40:00,
2013-02-11 11:41:00,54.8,36.5,30.15,SSW,213,2.0,2.0,50,0.00,,SKC,0.00,VWS V13.01,2013-02-11 19:41:00,
2013-02-11 11:42:00,54.8,36.0,30.15,SSW,210,0.0,3.0,49,0.00,,SKC,0.00,VWS V13.01,2013-02-11 19:42:00,
2013-02-11 11:43:00,54.8,36.5,30.15,SSW,209,4.0,4.0,50,0.00,,SKC,0.00,VWS V13.01,2013-02-11 19:43:00,
2013-02-11 11:44:00,54.7,35.9,30.15,SSW,209,3.0,4.0,49,0.00,,SKC,0.00,VWS V13.01,2013-02-11 19:44:00,
2013-02-11 11:45:00,54.6,35.8,30.15,SSW,209,2.0,4.0,49,0.00,,SKC,0.00,VWS V13.01,2013-02-11 19:45:00,
2013-02-11 11:46:00,54.6,35.8,30.15,SSW,209,0.0,2.0,49,0.00,,SKC,0.00,VWS V13.01,2013-02-11 19:46:00,
2013-02-11 11:47:00,54.7,36.4,30.15,SSW,209,0.0,2.0,50,0.00,,SKC,0.00,VWS V13.01,2013-02-11 19:47:00,
2013-02-11 11:48:00,54.8,37.0,30.15,SSW,209,0.0,2.0,51,0.00,,SKC,0.00,VWS V13.01,2013-02-11 19:48:00,
2013-02-11 11:49:00,54.9,37.6,30.15,SSW,209,0.0,2.0,52,0.00,,SKC,0.00,VWS V13.01,2013-02-11 19:49:00,
2013-02-11 11:50:00,55.0,37.2,30.15,SSW,209,0.0,2.0,51,0.00,,SKC,0.00,VWS V13.01,2013-02-11 19:50:00,
2013-02-11 11:51:00,55.0,37.7,30.15,SSW,209,0.0,0.0,52,0.00,,SKC,0.00,VWS V13.01,2013-02-11 19:51:00,
2013-02-11 11:52:00,55.1,37.3,30.15,SSW,209,0.0,0.0,51,0.00,,SKC,0.00,VWS V13.01,2013-02-11 19:52:00,
2013-02-11 11:53:00,55.2,37.9,30.15,SSW,209,0.0,0.0,52,0.00,,SKC,0.00,VWS V13.01,2013-02-11 19:53:00,
2013-02-11 11:54:00,55.3,38.0,30.14,SSW,201,2.0,3.0,52,0.00,,SKC,0.00,VWS V13.01,2013-02-11 19:54:00,
2013-02-11 11:55:00,55.4,38.1,30.14,SSW,202,4.0,6.0,52,0.00,,SKC,0.00,VWS V13.01,2013-02-11 19:55:00,
2013-02-11 11:56:00,55.4,37.6,30.14,SSW,212,5.0,6.0,51,0.00,,SKC,0.00,VWS V13.01,2013-02-11 19:56:00,
2013-02-11 11:57:00,55.3,38.0,30.14,SSW,212,2.0,6.0,52,0.00,,SKC,0.00,VWS V13.01,2013-02-11 19:57:00,
2013-02-11 11:58:00,55.2,37.4,30.14,SSW,212,2.0,6.0,51,0.00,,SKC,0.00,VWS V13.01,2013-02-11 19:58:00,
2013-02-11 11:59:00,55.1,37.8,30.14,South,170,2.0,6.0,52,0.00,,SKC,0.00,VWS V13.01,2013-02-11 19:59:00,
2013-02-11 12:00:00,55.0,37.2,30.14,South,169,1.0,6.0,51,0.00,,SKC,0.00,VWS V13.01,2013-02-11 20:00:00,
2013-02-11 12:01:00,54.9,37.6,30.15,SSE,165,0.0,4.0,52,0.00,,SKC,0.00,VWS V13.01,2013-02-11 20:01:00,
2013-02-11 12:02:00,54.8,37.5,30.15,SE,136,4.0,4.0,52,0.00,,SKC,0.00,VWS V13.01,2013-02-11 20:02:00,
2013-02-11 12:03:00,54.7,37.4,30.15,SSE,168,4.0,5.0,52,0.00,,SKC,0.00,VWS V13.01,2013-02-11 20:03:00,
2013-02-11 12:04:00,54.6,36.8,30.14,South,176,0.0,5.0,51,0.00,,SKC,0.00,VWS V13.01,2013-02-11 20:04:00,
2013-02-11 12:05:00,54.6,37.3,30.14,SW,227,6.0,11.0,52,0.00,,SKC,0.00,VWS V13.01,2013-02-11 20:05:00,
2013-02-11 12:06:00,54.5,36.8,30.15,WSW,243,2.0,6.0,51,0.00,,SKC,0.00,VWS V13.01,2013-02-11 20:06:00,
2013-02-11 12:07:00,54.6,37.3,30.14,WSW,243,3.0,6.0,52,0.00,,SKC,0.00,VWS V13.01,2013-02-11 20:07:00,
2013-02-11 12:08:00,54.6,37.8,30.14,WSW,254,1.0,6.0,53,0.00,,SKC,0.00,VWS V13.01,2013-02-11 20:08:00,
2013-02-11 12:09:00,54.8,38.0,30.14,WSW,246,5.0,6.0,53,0.00,,SKC,0.00,VWS V13.01,2013-02-11 20:09:00,
2013-02-11 12:10:00,54.8,37.5,30.14,WSW,240,3.0,6.0,52,0.00,,SKC,0.00,VWS V13.01,2013-02-11 20:10:00,
2013-02-11 12:11:00,54.9,37.6,30.14,WSW,240,3.0,4.0,52,0.00,,SKC,0.00,VWS V13.01,2013-02-11 20:11:00,
2013-02-11 12:12:00,55.0,37.7,30.14,WSW,240,2.0,4.0,52,0.00,,SKC,0.00,VWS V13.01,2013-02-11 20:12:00,
2013-02-11 12:13:00,55.1,37.8,30.14,WSW,240,4.0,4.0,52,0.00,,SKC,0.00,VWS V13.01,2013-02-11 20:13:00,
2013-02-11 12:14:00,55.2,37.9,30.14,WSW,242,3.0,5.0,52,0.00,,SKC,0.00,VWS V13.01,2013-02-11 20:14:00,
2013-02-11 12:15:00,55.3,37.0,30.14,WSW,242,5.0,5.0,50,0.00,,SKC,0.00,VWS V13.01,2013-02-11 20:15:00,
2013-02-11 12:16:00,55.3,37.0,30.14,WSW,244,4.0,5.0,50,0.00,,SKC,0.00,VWS V13.01,2013-02-11 20:16:00,
2013-02-11 12:17:00,55.4,37.1,30.14,West,278,3.0,5.0,50,0.00,,SKC,0.00,VWS V13.01,2013-02-11 20:17:00,
2013-02-11 12:18:00,55.4,37.1,30.14,WNW,292,4.0,7.0,50,0.00,,SKC,0.00,VWS V13.01,2013-02-11 20:18:00,
2013-02-11 12:19:00,55.4,36.6,30.14,WNW,292,5.0,7.0,49,0.00,,SKC,0.00,VWS V13.01,2013-02-11 20:19:00,
2013-02-11 12:20:00,55.3,36.0,30.14,WNW,286,3.0,7.0,48,0.00,,SKC,0.00,VWS V13.01,2013-02-11 20:20:00,
2013-02-11 12:21:00,55.3,37.0,30.14,West,277,0.0,5.0,50,0.00,,SKC,0.00,VWS V13.01,2013-02-11 20:21:00,
2013-02-11 12:22:00,55.2,35.9,30.14,West,277,0.0,5.0,48,0.00,,SKC,0.00,VWS V13.01,2013-02-11 20:22:00,
2013-02-11 12:23:00,55.2,35.9,30.14,West,277,0.0,5.0,48,0.00,,SKC,0.00,VWS V13.01,2013-02-11 20:23:00,
2013-02-11 12:24:00,55.2,36.9,30.14,West,277,0.0,5.0,50,0.00,,SKC,0.00,VWS V13.01,2013-02-11 20:24:00,
2013-02-11 12:25:00,55.4,37.6,30.14,West,274,2.0,5.0,51,0.00,,SKC,0.00,VWS V13.01,2013-02-11 20:25:00,
2013-02-11 12:26:00,55.5,38.2,30.14,West,274,1.0,4.0,52,0.00,,SKC,0.00,VWS V13.01,2013-02-11 20:26:00,
2013-02-11 12:27:00,55.7,37.9,30.14,West,274,0.0,4.0,51,0.00,,SKC,0.00,VWS V13.01,2013-02-11 20:27:00,
2013-02-11 12:28:00,55.8,38.0,30.14,West,267,0.0,4.0,51,0.00,,SKC,0.00,VWS V13.01,2013-02-11 20:28:00,
2013-02-11 12:29:00,56.0,38.2,30.14,West,267,0.0,4.0,51,0.00,,SKC,0.00,VWS V13.01,2013-02-11 20:29:00,
2013-02-11 12:30:00,56.2,38.8,30.14,WSW,254,4.0,4.0,52,0.00,,SKC,0.00,VWS V13.01,2013-02-11 20:30:00,
2013-02-11 12:31:00,56.3,37.4,30.14,SW,221,7.0,7.0,49,0.00,,SKC,0.00,VWS V13.01,2013-02-11 20:31:00,
2013-02-11 12:32:00,56.2,36.8,30.14,SW,234,4.0,7.0,48,0.00,,SKC,0.00,VWS V13.01,2013-02-11 20:32:00,
2013-02-11 12:33:00,56.1,36.2,30.13,SW,232,5.0,7.0,47,0.00,,SKC,0.00,VWS V13.01,2013-02-11 20:33:00,
2013-02-11 12:34:00,56.0,36.6,30.13,SW,232,0.0,7.0,48,0.00,,SKC,0.00,VWS V13.01,2013-02-11 20:34:00,
2013-02-11 12:35:00,56.0,37.1,30.13,West,279,2.0,7.0,49,0.00,,SKC,0.00,VWS V13.01,2013-02-11 20:35:00,
2013-02-11 12:36:00,56.0,37.1,30.13,West,276,3.0,4.0,49,0.00,,SKC,0.00,VWS V13.01,2013-02-11 20:36:00,
2013-02-11 12:37:00,56.0,36.6,30.13,WSW,256,0.0,5.0,48,0.00,,SKC,0.00,VWS V13.01,2013-02-11 20:37:00,
2013-02-11 12:38:00,56.0,36.6,30.13,WSW,242,3.0,5.0,48,0.00,,SKC,0.00,VWS V13.01,2013-02-11 20:38:00,
2013-02-11 12:39:00,55.9,36.0,30.13,SW,214,4.0,6.0,47,0.00,,SKC,0.00,VWS V13.01,2013-02-11 20:39:00,
2013-02-11 12:40:00,55.9,36.0,30.13,SSW,199,4.0,6.0,47,0.00,,SKC,0.00,VWS V13.01,2013-02-11 20:40:00,
2013-02-11 12:41:00,55.7,35.8,30.13,SSW,197,3.0,6.0,47,0.00,,SKC,0.00,VWS V13.01,2013-02-11 20:41:00,
2013-02-11 12:42:00,55.7,36.3,30.13,SSW,198,0.0,6.0,48,0.00,,SKC,0.00,VWS V13.01,2013-02-11 20:42:00,
2013-02-11 12:43:00,55.7,35.8,30.13,WNW,290,4.0,6.0,47,0.00,,SKC,0.00,VWS V13.01,2013-02-11 20:43:00,
2013-02-11 12:44:00,55.7,35.3,30.13,WNW,293,4.0,6.0,46,0.00,,SKC,0.00,VWS V13.01,2013-02-11 20:44:00,
2013-02-11 12:45:00,55.6,35.2,30.13,WNW,293,3.0,6.0,46,0.00,,SKC,0.00,VWS V13.01,2013-02-11 20:45:00,
2013-02-11 12:46:00,55.4,35.0,30.13,WNW,293,0.0,3.0,46,0.00,,SKC,0.00,VWS V13.01,2013-02-11 20:46:00,
2013-02-11 12:47:00,55.4,35.0,30.13,WNW,293,0.0,3.0,46,0.00,,SKC,0.00,VWS V13.01,2013-02-11 20:47:00,
2013-02-11 12:48:00,55.4,35.0,30.13,NW,317,3.0,4.0,46,0.00,,SKC,0.00,VWS V13.01,2013-02-11 20:48:00,
2013-02-11 12:49:00,55.5,35.6,30.13,West,273,4.0,5.0,47,0.00,,SKC,0.00,VWS V13.01,2013-02-11 20:49:00,
2013-02-11 12:50:00,55.5,35.6,30.13,WSW,237,4.0,5.0,47,0.00,,SKC,0.00,VWS V13.01,2013-02-11 20:50:00,
2013-02-11 12:51:00,55.6,35.7,30.13,WSW,237,0.0,5.0,47,0.00,,SKC,0.00,VWS V13.01,2013-02-11 20:51:00,
2013-02-11 12:52:00,55.6,35.7,30.13,WSW,237,0.0,5.0,47,0.00,,SKC,0.00,VWS V13.01,2013-02-11 20:52:00,
2013-02-11 12:53:00,55.7,35.3,30.13,WSW,237,0.0,5.0,46,0.00,,SKC,0.00,VWS V13.01,2013-02-11 20:53:00,
2013-02-11 12:54:00,55.8,36.4,30.13,West,262,4.0,5.0,48,0.00,,SKC,0.00,VWS V13.01,2013-02-11 20:54:00,
2013-02-11 12:55:00,55.8,35.3,30.13,WNW,282,5.0,6.0,46,0.00,,SKC,0.00,VWS V13.01,2013-02-11 20:55:00,
2013-02-11 12:56:00,55.9,36.0,30.13,WNW,282,0.0,5.0,47,0.00,,SKC,0.00,VWS V13.01,2013-02-11 20:56:00,
2013-02-11 12:57:00,56.0,36.1,30.13,WNW,282,3.0,5.0,47,0.00,,SKC,0.00,VWS V13.01,2013-02-11 20:57:00,
2013-02-11 12:58:00,56.0,36.1,30.13,West,281,6.0,6.0,47,0.00,,SKC,0.00,VWS V13.01,2013-02-11 20:58:00,
2013-02-11 12:59:00,56.0,35.0,30.13,West,281,0.0,6.0,45,0.00,,SKC,0.00,VWS V13.01,2013-02-11 20:59:00,
2013-02-11 13:00:00,56.1,35.1,30.13,West,281,0.0,6.0,45,0.00,,SKC,0.00,VWS V13.01,2013-02-11 21:00:00,
2013-02-11 13:01:00,56.1,35.1,30.13,West,281,2.0,3.0,45,0.00,,SKC,0.00,VWS V13.01,2013-02-11 21:01:00,
2013-02-11 13:02:00,56.1,35.1,30.12,West,281,3.0,4.0,45,0.00,,SKC,0.00,VWS V13.01,2013-02-11 21:02:00,
2013-02-11 13:03:00,56.2,35.2,30.12,West,276,2.0,4.0,45,0.00,,SKC,0.00,VWS V13.01,2013-02-11 21:03:00,
2013-02-11 13:04:00,56.3,36.3,30.12,WSW,241,0.0,5.0,47,0.00,,SKC,0.00,VWS V13.01,2013-02-11 21:04:00,
2013-02-11 13:05:00,56.5,35.4,30.12,WSW,241,0.0,5.0,45,0.00,,SKC,0.00,VWS V13.01,2013-02-11 21:05:00,
2013-02-11 13:06:00,56.6,35.5,30.12,WSW,241,1.0,1.0,45,0.00,,SKC,0.00,VWS V13.01,2013-02-11 21:06:00,
2013-02-11 13:07:00,56.7,35.0,30.12,WSW,241,0.0,1.0,44,0.00,,SKC,0.00,VWS V13.01,2013-02-11 21:07:00,
2013-02-11 13:08:00,56.7,35.6,30.12,WSW,241,0.0,1.0,45,0.00,,SKC,0.00,VWS V13.01,2013-02-11 21:08:00,
2013-02-11 13:09:00,56.8,35.1,30.12,WSW,248,5.0,5.0,44,0.00,,SKC,0.00,VWS V13.01,2013-02-11 21:09:00,
2013-02-11 13:10:00,56.8,35.7,30.12,WNW,298,4.0,7.0,45,0.00,,SKC,0.00,VWS V13.01,2013-02-11 21:10:00,
2013-02-11 13:11:00,56.8,35.7,30.12,WSW,257,1.0,6.0,45,0.00,,SKC,0.00,VWS V13.01,2013-02-11 21:11:00,
2013-02-11 13:12:00,56.8,35.1,30.12,WSW,257,3.0,6.0,44,0.00,,SKC,0.00,VWS V13.01,2013-02-11 21:12:00,
2013-02-11 13:13:00,56.8,36.3,30.12,WSW,257,3.0,6.0,46,0.00,,SKC,0.00,VWS V13.01,2013-02-11 21:13:00,
2013-02-11 13:14:00,56.8,35.7,30.12,WSW,257,0.0,6.0,45,0.00,,SKC,0.00,VWS V13.01,2013-02-11 21:14:00,
2013-02-11 13:15:00,56.8,36.3,30.12,West,275,3.0,6.0,46,0.00,,SKC,0.00,VWS V13.01,2013-02-11 21:15:00,
2013-02-11 13:16:00,56.9,36.3,30.12,WNW,288,0.0,3.0,46,0.00,,SKC,0.00,VWS V13.01,2013-02-11 21:16:00,
2013-02-11 13:17:00,57.1,37.1,30.12,WNW,296,0.0,6.0,47,0.00,,SKC,0.00,VWS V13.01,2013-02-11 21:17:00,
2013-02-11 13:18:00,57.2,37.7,30.12,North,360,1.0,6.0,48,0.00,,SKC,0.00,VWS V13.01,2013-02-11 21:18:00,
2013-02-11 13:19:00,57.3,37.3,30.12,NNW,327,2.0,6.0,47,0.00,,SKC,0.00,VWS V13.01,2013-02-11 21:19:00,
2013-02-11 13:20:00,57.4,36.2,30.12,NW,319,0.0,6.0,45,0.00,,SKC,0.00,VWS V13.01,2013-02-11 21:20:00,
2013-02-11 13:21:00,57.5,36.3,30.12,NW,319,1.0,1.0,45,0.00,,SKC,0.00,VWS V13.01,2013-02-11 21:21:00,
2013-02-11 13:22:00,57.6,37.0,30.12,NW,319,0.0,1.0,46,0.00,,SKC,0.00,VWS V13.01,2013-02-11 21:22:00,
2013-02-11 13:23:00,57.8,37.2,30.12,West,266,2.0,5.0,46,0.00,,SKC,0.00,VWS V13.01,2013-02-11 21:23:00,
2013-02-11 13:24:00,57.8,37.2,30.12,WNW,289,7.0,10.0,46,0.00,,SKC,0.00,VWS V13.01,2013-02-11 21:24:00,
2013-02-11 13:25:00,57.8,36.6,30.12,WNW,288,5.0,10.0,45,0.00,,SKC,0.00,VWS V13.01,2013-02-11 21:25:00,
2013-02-11 13:26:00,57.7,36.5,30.12,WNW,300,4.0,7.0,45,0.00,,SKC,0.00,VWS V13.01,2013-02-11 21:26:00,
2013-02-11 13:27:00,57.5,35.8,30.12,NW,313,0.0,7.0,44,0.00,,SKC,0.00,VWS V13.01,2013-02-11 21:27:00,
2013-02-11 13:28:00,57.4,35.7,30.12,NNW,329,4.0,7.0,44,0.00,,SKC,0.00,VWS V13.01,2013-02-11 21:28:00,
2013-02-11 13:29:00,57.4,35.7,30.12,WNW,286,7.0,8.0,44,0.00,,SKC,0.00,VWS V13.01,2013-02-11 21:29:00,
2013-02-11 13:30:00,57.3,35.6,30.12,West,280,3.0,8.0,44,0.00,,SKC,0.00,VWS V13.01,2013-02-11 21:30:00,
2013-02-11 13:31:00,57.1,36.0,30.12,West,280,1.0,5.0,45,0.00,,SKC,0.00,VWS V13.01,2013-02-11 21:31:00,
2013-02-11 13:32:00,57.1,36.5,30.11,West,280,0.0,5.0,46,0.00,,SKC,0.00,VWS V13.01,2013-02-11 21:32:00,
2013-02-11 13:33:00,57.1,36.5,30.11,West,280,0.0,5.0,46,0.00,,SKC,0.00,VWS V13.01,2013-02-11 21:33:00,
2013-02-11 13:34:00,57.1,36.0,30.11,West,280,3.0,5.0,45,0.00,,SKC,0.00,VWS V13.01,2013-02-11 21:34:00,
2013-02-11 13:35:00,57.0,35.9,30.11,WNW,295,5.0,5.0,45,0.00,,SKC,0.00,VWS V13.01,2013-02-11 21:35:00,
2013-02-11 13:36:00,57.0,36.4,30.11,West,273,3.0,5.0,46,0.00,,SKC,0.00,VWS V13.01,2013-02-11 21:36:00,
2013-02-11 13:37:00,57.1,36.0,30.11,West,273,0.0,5.0,45,0.00,,SKC,0.00,VWS V13.01,2013-02-11 21:37:00,
2013-02-11 13:38:00,57.1,36.5,30.11,West,273,0.0,5.0,46,0.00,,SKC,0.00,VWS V13.01,2013-02-11 21:38:00,
2013-02-11 13:39:00,57.3,37.3,30.11,West,273,1.0,5.0,47,0.00,,SKC,0.00,VWS V13.01,2013-02-11 21:39:00,
2013-02-11 13:40:00,57.3,35.6,30.11,WNW,284,3.0,7.0,44,0.00,,SKC,0.00,VWS V13.01,2013-02-11 21:40:00,
2013-02-11 13:41:00,57.3,36.2,30.11,NW,317,4.0,6.0,45,0.00,,SKC,0.00,VWS V13.01,2013-02-11 21:41:00,
2013-02-11 13:42:00,57.3,35.6,30.11,NW,322,4.0,6.0,44,0.00,,SKC,0.00,VWS V13.01,2013-02-11 21:42:00,
2013-02-11 13:43:00,57.4,36.2,30.11,NW,321,3.0,6.0,45,0.00,,SKC,0.00,VWS V13.01,2013-02-11 21:43:00,
2013-02-11 13:44:00,57.5,36.9,30.11,WNW,303,6.0,7.0,46,0.00,,SKC,0.00,VWS V13.01,2013-02-11 21:44:00,
2013-02-11 13:45:00,57.5,36.3,30.11,WNW,301,3.0,7.0,45,0.00,,SKC,0.00,VWS V13.01,2013-02-11 21:45:00,
2013-02-11 13:46:00,57.5,36.9,30.11,WNW,301,0.0,4.0,46,0.00,,SKC,0.00,VWS V13.01,2013-02-11 21:46:00,
2013-02-11 13:47:00,57.6,35.9,30.11,WNW,301,3.0,6.0,44,0.00,,SKC,0.00,VWS V13.01,2013-02-11 21:47:00,
2013-02-11 13:48:00,57.5,35.8,30.11,WNW,301,2.0,6.0,44,0.00,,SKC,0.00,VWS V13.01,2013-02-11 21:48:00,
2013-02-11 13:49:00,57.4,35.7,30.11,NNW,332,3.0,6.0,44,0.00,,SKC,0.00,VWS V13.01,2013-02-11 21:49:00,
2013-02-11 13:50:00,57.4,35.7,30.11,NW,318,3.0,6.0,44,0.00,,SKC,0.00,VWS V13.01,2013-02-11 21:50:00,
2013-02-11 13:51:00,57.4,36.2,30.12,WNW,287,5.0,9.0,45,0.00,,SKC,0.00,VWS V13.01,2013-02-11 21:51:00,
2013-02-11 13:52:00,57.3,35.0,30.12,WNW,295,3.0,9.0,43,0.00,,SKC,0.00,VWS V13.01,2013-02-11 21:52:00,
2013-02-11 13:53:00,57.3,36.2,30.11,WNW,295,0.0,9.0,45,0.00,,SKC,0.00,VWS V13.01,2013-02-11 21:53:00,
2013-02-11 13:54:00,57.3,36.2,30.11,WNW,294,3.0,9.0,45,0.00,,SKC,0.00,VWS V13.01,2013-02-11 21:54:00,
2013-02-11 13:55:00,57.4,35.7,30.11,WNW,294,0.0,9.0,44,0.00,,SKC,0.00,VWS V13.01,2013-02-11 21:55:00,
2013-02-11 13:56:00,57.4,35.7,30.11,WNW,294,1.0,3.0,44,0.00,,SKC,0.00,VWS V13.01,2013-02-11 21:56:00,
2013-02-11 13:57:00,57.5,36.3,30.11,WNW,293,0.0,3.0,45,0.00,,SKC,0.00,VWS V13.01,2013-02-11 21:57:00,
2013-02-11 13:58:00,57.6,36.4,30.11,NW,312,7.0,7.0,45,0.00,,SKC,0.00,VWS V13.01,2013-02-11 21:58:00,
2013-02-11 13:59:00,57.7,36.5,30.11,WNW,288,5.0,7.0,45,0.00,,SKC,0.00,VWS V13.01,2013-02-11 21:59:00,
2013-02-11 14:00:00,57.8,36.0,30.11,WNW,287,3.0,7.0,44,0.00,,SKC,0.00,VWS V13.01,2013-02-11 22:00:00,
2013-02-11 14:01:00,57.8,36.0,30.11,WNW,287,2.0,4.0,44,0.00,,SKC,0.00,VWS V13.01,2013-02-11 22:01:00,
2013-02-11 14:02:00,57.8,36.0,30.11,WSW,246,0.0,4.0,44,0.00,,SKC,0.00,VWS V13.01,2013-02-11 22:02:00,
2013-02-11 14:03:00,57.9,37.3,30.11,SSW,211,6.0,6.0,46,0.00,,SKC,0.00,VWS V13.01,2013-02-11 22:03:00,
2013-02-11 14:04:00,57.8,36.0,30.11,SW,229,4.0,7.0,44,0.00,,SKC,0.00,VWS V13.01,2013-02-11 22:04:00,
2013-02-11 14:05:00,57.8,36.0,30.11,SW,223,4.0,7.0,44,0.00,,SKC,0.00,VWS V13.01,2013-02-11 22:05:00,
2013-02-11 14:06:00,57.7,36.0,30.11,SW,223,4.0,4.0,44,0.00,,SKC,0.00,VWS V13.01,2013-02-11 22:06:00,
2013-02-11 14:07:00,57.7,36.0,30.11,SSW,209,6.0,6.0,44,0.00,,SKC,0.00,VWS V13.01,2013-02-11 22:07:00,
2013-02-11 14:08:00,57.7,36.0,30.11,SSW,193,5.0,7.0,44,0.00,,SKC,0.00,VWS V13.01,2013-02-11 22:08:00,
2013-02-11 14:09:00,57.6,35.9,30.11,SSW,208,4.0,7.0,44,0.00,,SKC,0.00,VWS V13.01,2013-02-11 22:09:00,
2013-02-11 14:10:00,57.5,36.3,30.11,WSW,244,3.0,7.0,45,0.00,,SKC,0.00,VWS V13.01,2013-02-11 22:10:00,
2013-02-11 14:11:00,57.6,36.4,30.11,West,270,7.0,7.0,45,0.00,,SKC,0.00,VWS V13.01,2013-02-11 22:11:00,
2013-02-11 14:12:00,57.6,36.4,30.11,WNW,297,4.0,7.0,45,0.00,,SKC,0.00,VWS V13.01,2013-02-11 22:12:00,
2013-02-11 14:13:00,57.7,36.0,30.11,WNW,293,2.0,7.0,44,0.00,,SKC,0.00,VWS V13.01,2013-02-11 22:13:00,
2013-02-11 14:14:00,57.7,36.0,30.11,WNW,293,3.0,7.0,44,0.00,,SKC,0.00,VWS V13.01,2013-02-11 22:14:00,
2013-02-11 14:15:00,57.8,36.0,30.11,WNW,294,5.0,7.0,44,0.00,,SKC,0.00,VWS V13.01,2013-02-11 22:15:00,
2013-02-11 14:16:00,57.8,36.0,30.11,WNW,287,3.0,5.0,44,0.00,,SKC,0.00,VWS V13.01,2013-02-11 22:16:00,
2013-02-11 14:17:00,58.0,36.2,30.11,WNW,298,1.0,6.0,44,0.00,,SKC,0.00,VWS V13.01,2013-02-11 22:17:00,
2013-02-11 14:18:00,58.1,36.3,30.11,WNW,292,5.0,6.0,44,0.00,,SKC,0.00,VWS V13.01,2013-02-11 22:18:00,
2013-02-11 14:19:00,58.1,35.7,30.11,WNW,297,2.0,6.0,43,0.00,,SKC,0.00,VWS V13.01,2013-02-11 22:19:00,
2013-02-11 14:20:00,58.1,35.7,30.11,WNW,294,6.0,6.0,43,0.00,,SKC,0.00,VWS V13.01,2013-02-11 22:20:00,
2013-02-11 14:21:00,58.2,35.8,30.11,WNW,293,4.0,6.0,43,0.00,,SKC,0.00,VWS V13.01,2013-02-11 22:21:00,
2013-02-11 14:22:00,58.2,35.8,30.11,WNW,302,3.0,6.0,43,0.00,,SKC,0.00,VWS V13.01,2013-02-11 22:22:00,
2013-02-11 14:23:00,58.2,35.2,30.11,WNW,302,1.0,6.0,42,0.00,,SKC,0.00,VWS V13.01,2013-02-11 22:23:00,
2013-02-11 14:24:00,58.2,35.2,30.11,WNW,302,2.0,6.0,42,0.00,,SKC,0.00,VWS V13.01,2013-02-11 22:24:00,
2013-02-11 14:25:00,58.3,35.3,30.11,WNW,302,3.0,6.0,42,0.00,,SKC,0.00,VWS V13.01,2013-02-11 22:25:00,
2013-02-11 14:26:00,58.4,37.2,30.11,WNW,302,0.0,3.0,45,0.00,,SKC,0.00,VWS V13.01,2013-02-11 22:26:00,
2013-02-11 14:27:00,58.6,36.2,30.11,WNW,302,0.0,3.0,43,0.00,,SKC,0.00,VWS V13.01,2013-02-11 22:27:00,
2013-02-11 14:28:00,58.7,36.9,30.11,WNW,302,2.0,4.0,44,0.00,,SKC,0.00,VWS V13.01,2013-02-11 22:28:00,
2013-02-11 14:29:00,58.9,35.9,30.11,WNW,300,2.0,4.0,42,0.00,,SKC,0.00,VWS V13.01,2013-02-11 22:29:00,
2013-02-11 14:30:00,59.0,36.6,30.11,WNW,300,0.0,4.0,43,0.00,,SKC,0.00,VWS V13.01,2013-02-11 22:30:00,
2013-02-11 14:31:00,59.0,36.0,30.11,WNW,300,0.0,0.0,42,0.00,,SKC,0.00,VWS V13.01,2013-02-11 22:31:00,
2013-02-11 14:32:00,59.0,36.6,30.11,WNW,300,0.0,0.0,43,0.00,,SKC,0.00,VWS V13.01,2013-02-11 22:32:00,
2013-02-11 14:33:00,59.0,37.7,30.11,WNW,300,0.0,0.0,45,0.00,,SKC,0.00,VWS V13.01,2013-02-11 22:33:00,
2013-02-11 14:34:00,59.2,36.7,30.11,WNW,300,0.0,0.0,43,0.00,,SKC,0.00,VWS V13.01,2013-02-11 22:34:00,
2013-02-11 14:35:00,59.4,36.9,30.11,WNW,300,0.0,2.0,43,0.00,,SKC,0.00,VWS V13.01,2013-02-11 22:35:00,
2013-02-11 14:36:00,59.4,36.3,30.11,WNW,285,0.0,4.0,42,0.00,,SKC,0.00,VWS V13.01,2013-02-11 22:36:00,
2013-02-11 14:37:00,59.4,35.7,30.11,WNW,285,1.0,4.0,41,0.00,,SKC,0.00,VWS V13.01,2013-02-11 22:37:00,
2013-02-11 14:38:00,59.4,35.7,30.11,WNW,285,3.0,4.0,41,0.00,,SKC,0.00,VWS V13.01,2013-02-11 22:38:00,
2013-02-11 14:39:00,59.4,35.7,30.11,WNW,285,0.0,5.0,41,0.00,,SKC,0.00,VWS V13.01,2013-02-11 22:39:00,
2013-02-11 14:40:00,59.4,36.3,30.11,WNW,285,0.0,5.0,42,0.00,,SKC,0.00,VWS V13.01,2013-02-11 22:40:00,
2013-02-11 14:41:00,59.5,36.4,30.11,WNW,285,3.0,4.0,42,0.00,,SKC,0.00,VWS V13.01,2013-02-11 22:41:00,
2013-02-11 14:42:00,59.5,36.4,30.11,West,275,2.0,5.0,42,0.00,,SKC,0.00,VWS V13.01,2013-02-11 22:42:00,
2013-02-11 14:43:00,59.5,36.4,30.11,SW,223,7.0,7.0,42,0.00,,SKC,0.00,VWS V13.01,2013-02-11 22:43:00,
2013-02-11 14:44:00,59.3,36.2,30.11,SW,225,5.0,11.0,42,0.00,,SKC,0.00,VWS V13.01,2013-02-11 22:44:00,
2013-02-11 14:45:00,59.0,36.6,30.11,WSW,242,5.0,11.0,43,0.00,,SKC,0.00,VWS V13.01,2013-02-11 22:45:00,
2013-02-11 14:46:00,59.0,35.3,30.11,WSW,249,10.0,10.0,41,0.00,,SKC,0.00,VWS V13.01,2013-02-11 22:46:00,
2013-02-11 14:47:00,59.0,36.0,30.11,West,271,5.0,10.0,42,0.00,,SKC,0.00,VWS V13.01,2013-02-11 22:47:00,
2013-02-11 14:48:00,59.0,35.3,30.12,WNW,287,4.0,10.0,41,0.00,,SKC,0.00,VWS V13.01,2013-02-11 22:48:00,
2013-02-11 14:49:00,58.9,35.3,30.12,WNW,287,3.0,10.0,41,0.00,,SKC,0.00,VWS V13.01,2013-02-11 22:49:00,
2013-02-11 14:50:00,58.7,35.1,30.11,WSW,254,3.0,10.0,41,0.00,,SKC,0.00,VWS V13.01,2013-02-11 22:50:00,
2013-02-11 14:51:00,58.7,35.7,30.12,West,262,2.0,5.0,42,0.00,,SKC,0.00,VWS V13.01,2013-02-11 22:51:00,
2013-02-11 14:52:00,58.7,35.1,30.11,West,262,2.0,5.0,41,0.00,,SKC,0.00,VWS V13.01,2013-02-11 22:52:00,
2013-02-11 14:53:00,58.7,35.7,30.11,West,262,0.0,5.0,42,0.00,,SKC,0.00,VWS V13.01,2013-02-11 22:53:00,
2013-02-11 14:54:00,58.8,35.8,30.11,West,262,1.0,5.0,42,0.00,,SKC,0.00,VWS V13.01,2013-02-11 22:54:00,
2013-02-11 14:55:00,58.8,35.2,30.11,West,262,2.0,5.0,41,0.00,,SKC,0.00,VWS V13.01,2013-02-11 22:55:00,
2013-02-11 14:56:00,58.9,35.3,30.11,West,262,3.0,4.0,41,0.00,,SKC,0.00,VWS V13.01,2013-02-11 22:56:00,
2013-02-11 14:57:00,58.9,35.9,30.11,West,262,3.0,4.0,42,0.00,,SKC,0.00,VWS V13.01,2013-02-11 22:57:00,
2013-02-11 14:58:00,59.0,36.0,30.11,West,262,0.0,4.0,42,0.00,,SKC,0.00,VWS V13.01,2013-02-11 22:58:00,
2013-02-11 14:59:00,59.0,36.0,30.11,West,262,0.0,4.0,42,0.00,,SKC,0.00,VWS V13.01,2013-02-11 22:59:00,
2013-02-11 15:00:00,59.0,36.6,30.11,West,262,1.0,4.0,43,0.00,,SKC,0.00,VWS V13.01,2013-02-11 23:00:00,
2013-02-11 15:01:00,59.0,37.1,30.11,West,261,3.0,4.0,44,0.00,,SKC,0.00,VWS V13.01,2013-02-11 23:01:00,
2013-02-11 15:02:00,59.0,37.1,30.11,SW,232,2.0,7.0,44,0.00,,SKC,0.00,VWS V13.01,2013-02-11 23:02:00,
2013-02-11 15:03:00,59.0,36.0,30.11,WSW,242,3.0,7.0,42,0.00,,SKC,0.00,VWS V13.01,2013-02-11 23:03:00,
2013-02-11 15:04:00,59.0,36.6,30.11,WSW,252,3.0,7.0,43,0.00,,SKC,0.00,VWS V13.01,2013-02-11 23:04:00,
2013-02-11 15:05:00,59.0,36.0,30.11,West,270,1.0,7.0,42,0.00,,SKC,0.00,VWS V13.01,2013-02-11 23:05:00,
2013-02-11 15:06:00,59.0,35.3,30.11,West,266,4.0,4.0,41,0.00,,SKC,0.00,VWS V13.01,2013-02-11 23:06:00,
2013-02-11 15:07:00,59.0,36.6,30.11,WSW,244,3.0,6.0,43,0.00,,SKC,0.00,VWS V13.01,2013-02-11 23:07:00,
2013-02-11 15:08:00,59.0,35.3,30.11,WSW,244,4.0,6.0,41,0.00,,SKC,0.00,VWS V13.01,2013-02-11 23:08:00,
2013-02-11 15:09:00,59.0,37.1,30.11,WSW,244,3.0,6.0,44,0.00,,SKC,0.00,VWS V13.01,2013-02-11 23:09:00,
2013-02-11 15:10:00,59.0,36.0,30.11,WSW,241,0.0,6.0,42,0.00,,SKC,0.00,VWS V13.01,2013-02-11 23:10:00,
2013-02-11 15:11:00,59.0,36.0,30.11,WSW,241,5.0,5.0,42,0.00,,SKC,0.00,VWS V13.01,2013-02-11 23:11:00,
2013-02-11 15:12:00,58.9,35.9,30.11,WSW,241,0.0,5.0,42,0.00,,SKC,0.00,VWS V13.01,2013-02-11 23:12:00,
2013-02-11 15:13:00,58.9,36.5,30.11,WSW,241,0.0,5.0,43,0.00,,SKC,0.00,VWS V13.01,2013-02-11 23:13:00,
2013-02-11 15:14:00,59.0,37.1,30.11,WSW,241,0.0,5.0,44,0.00,,SKC,0.00,VWS V13.01,2013-02-11 23:14:00,
2013-02-11 15:15:00,59.0,37.1,30.11,WSW,241,0.0,5.0,44,0.00,,SKC,0.00,VWS V13.01,2013-02-11 23:15:00,
2013-02-11 15:16:00,59.0,36.6,30.11,WSW,241,0.0,0.0,43,0.00,,SKC,0.00,VWS V13.01,2013-02-11 23:16:00,
2013-02-11 15:17:00,59.0,36.6,30.11,West,266,5.0,5.0,43,0.00,,SKC,0.00,VWS V13.01,2013-02-11 23:17:00,
2013-02-11 15:18:00,59.0,36.6,30.11,West,266,3.0,5.0,43,0.00,,SKC,0.00,VWS V13.01,2013-02-11 23:18:00,
2013-02-11 15:19:00,59.0,36.0,30.11,West,265,3.0,6.0,42,0.00,,SKC,0.00,VWS V13.01,2013-02-11 23:19:00,
2013-02-11 15:20:00,59.0,35.3,30.11,West,265,4.0,6.0,41,0.00,,SKC,0.00,VWS V13.01,2013-02-11 23:20:00,
2013-02-11 15:21:00,59.0,36.6,30.11,WSW,245,3.0,5.0,43,0.00,,SKC,0.00,VWS V13.01,2013-02-11 23:21:00,
2013-02-11 15:22:00,59.0,36.0,30.11,WSW,245,4.0,5.0,42,0.00,,SKC,0.00,VWS V13.01,2013-02-11 23:22:00,
2013-02-11 15:23:00,59.0,36.0,30.11,WSW,254,5.0,7.0,42,0.00,,SKC,0.00,VWS V13.01,2013-02-11 23:23:00,
2013-02-11 15:24:00,59.0,36.0,30.11,WSW,246,3.0,7.0,42,0.00,,SKC,0.00,VWS V13.01,2013-02-11 23:24:00,
2013-02-11 15:25:00,59.0,36.0,30.11,WSW,240,4.0,7.0,42,0.00,,SKC,0.00,VWS V13.01,2013-02-11 23:25:00,
2013-02-11 15:26:00,58.9,36.5,30.11,WSW,240,2.0,5.0,43,0.00,,SKC,0.00,VWS V13.01,2013-02-11 23:26:00,
2013-02-11 15:27:00,58.8,36.4,30.11,WSW,242,0.0,5.0,43,0.00,,SKC,0.00,VWS V13.01,2013-02-11 23:27:00,
2013-02-11 15:28:00,58.9,36.5,30.12,West,262,3.0,5.0,43,0.00,,SKC,0.00,VWS V13.01,2013-02-11 23:28:00,
2013-02-11 15:29:00,58.9,35.9,30.12,WNW,288,4.0,5.0,42,0.00,,SKC,0.00,VWS V13.01,2013-02-11 23:29:00,
2013-02-11 15:30:00,58.9,35.9,30.12,WNW,287,3.0,6.0,42,0.00,,SKC,0.00,VWS V13.01,2013-02-11 23:30:00,
2013-02-11 15:31:00,59.0,36.0,30.12,WNW,286,1.0,5.0,42,0.00,,SKC,0.00,VWS V13.01,2013-02-11 23:31:00,
2013-02-11 15:32:00,59.0,36.0,30.12,WNW,299,5.0,5.0,42,0.00,,SKC,0.00,VWS V13.01,2013-02-11 23:32:00,
2013-02-11 15:33:00,59.0,36.0,30.12,WNW,299,3.0,5.0,42,0.00,,SKC,0.00,VWS V13.01,2013-02-11 23:33:00,
2013-02-11 15:34:00,59.0,36.0,30.12,WNW,299,2.0,5.0,42,0.00,,SKC,0.00,VWS V13.01,2013-02-11 23:34:00,
2013-02-11 15:35:00,59.0,36.0,30.12,WNW,299,0.0,5.0,42,0.00,,SKC,0.00,VWS V13.01,2013-02-11 23:35:00,
2013-02-11 15:36:00,59.0,36.6,30.12,WNW,295,3.0,4.0,43,0.00,,SKC,0.00,VWS V13.01,2013-02-11 23:36:00,
2013-02-11 15:37:00,59.0,35.3,30.12,West,279,2.0,5.0,41,0.00,,SKC,0.00,VWS V13.01,2013-02-11 23:37:00,
2013-02-11 15:38:00,59.0,36.0,30.12,West,279,3.0,5.0,42,0.00,,SKC,0.00,VWS V13.01,2013-02-11 23:38:00,
2013-02-11 15:39:00,59.0,35.3,30.12,West,279,3.0,5.0,41,0.00,,SKC,0.00,VWS V13.01,2013-02-11 23:39:00,
2013-02-11 15:40:00,59.0,36.0,30.12,West,277,3.0,5.0,42,0.00,,SKC,0.00,VWS V13.01,2013-02-11 23:40:00,
2013-02-11 15:41:00,59.0,36.0,30.12,West,271,4.0,4.0,42,0.00,,SKC,0.00,VWS V13.01,2013-02-11 23:41:00,
2013-02-11 15:42:00,58.9,35.9,30.12,West,259,2.0,4.0,42,0.00,,SKC,0.00,VWS V13.01,2013-02-11 23:42:00,
2013-02-11 15:43:00,58.8,35.8,30.12,West,259,0.0,4.0,42,0.00,,SKC,0.00,VWS V13.01,2013-02-11 23:43:00,
2013-02-11 15:44:00,58.8,36.4,30.12,West,259,5.0,5.0,43,0.00,,SKC,0.00,VWS V13.01,2013-02-11 23:44:00,
2013-02-11 15:45:00,58.8,35.8,30.12,West,259,2.0,5.0,42,0.00,,SKC,0.00,VWS V13.01,2013-02-11 23:45:00,
2013-02-11 15:46:00,58.7,36.3,30.12,WSW,256,3.0,3.0,43,0.00,,SKC,0.00,VWS V13.01,2013-02-11 23:46:00,
2013-02-11 15:47:00,58.6,36.2,30.12,SW,223,5.0,7.0,43,0.00,,SKC,0.00,VWS V13.01,2013-02-11 23:47:00,
2013-02-11 15:48:00,58.6,35.6,30.12,SW,215,5.0,7.0,42,0.00,,SKC,0.00,VWS V13.01,2013-02-11 23:48:00,
2013-02-11 15:49:00,58.5,36.1,30.12,SW,214,4.0,7.0,43,0.00,,SKC,0.00,VWS V13.01,2013-02-11 23:49:00,
2013-02-11 15:50:00,58.5,36.1,30.12,SW,219,4.0,7.0,43,0.00,,SKC,0.00,VWS V13.01,2013-02-11 23:50:00,
2013-02-11 15:51:00,58.3,35.9,30.12,SSW,202,3.0,6.0,43,0.00,,SKC,0.00,VWS V13.01,2013-02-11 23:51:00,
2013-02-11 15:52:00,58.3,36.5,30.12,SSW,199,2.0,6.0,44,0.00,,SKC,0.00,VWS V13.01,2013-02-11 23:52:00,
2013-02-11 15:53:00,58.2,36.4,30.12,SSW,199,0.0,6.0,44,0.00,,SKC,0.00,VWS V13.01,2013-02-11 23:53:00,
2013-02-11 15:54:00,58.3,37.1,30.12,SSW,199,0.0,6.0,45,0.00,,SKC,0.00,VWS V13.01,2013-02-11 23:54:00,
2013-02-11 15:55:00,58.3,37.1,30.12,SSW,200,5.0,6.0,45,0.00,,SKC,0.00,VWS V13.01,2013-02-11 23:55:00,
2013-02-11 15:56:00,58.2,35.8,30.12,SW,223,3.0,5.0,43,0.00,,SKC,0.00,VWS V13.01,2013-02-11 23:56:00,
2013-02-11 15:57:00,58.2,36.4,30.12,SSW,200,5.0,8.0,44,0.00,,SKC,0.00,VWS V13.01,2013-02-11 23:57:00,
2013-02-11 15:58:00,58.2,35.8,30.12,SSW,200,5.0,8.0,43,0.00,,SKC,0.00,VWS V13.01,2013-02-11 23:58:00,
2013-02-11 15:59:00,58.1,36.3,30.12,SSW,200,5.0,8.0,44,0.00,,SKC,0.00,VWS V13.01,2013-02-11 23:59:00,
2013-02-11 16:00:00,58.1,36.3,30.12,SSW,201,5.0,8.0,44,0.00,,SKC,0.00,VWS V13.01,2013-02-12 00:00:00,
2013-02-11 16:01:00,58.0,36.2,30.13,SSW,194,4.0,5.0,44,0.00,,SKC,0.00,VWS V13.01,2013-02-12 00:01:00,
2013-02-11 16:02:00,57.9,36.7,30.13,SW,215,5.0,7.0,45,0.00,,SKC,0.00,VWS V13.01,2013-02-12 00:02:00,
2013-02-11 16:03:00,57.9,36.7,30.13,SW,226,4.0,7.0,45,0.00,,SKC,0.00,VWS V13.01,2013-02-12 00:03:00,
2013-02-11 16:04:00,57.8,36.6,30.13,SW,214,6.0,9.0,45,0.00,,SKC,0.00,VWS V13.01,2013-02-12 00:04:00,
2013-02-11 16:05:00,57.7,36.5,30.13,SW,215,4.0,9.0,45,0.00,,SKC,0.00,VWS V13.01,2013-02-12 00:05:00,
2013-02-11 16:06:00,57.6,36.4,30.13,SSW,208,9.0,9.0,45,0.00,,SKC,0.00,VWS V13.01,2013-02-12 00:06:00,
2013-02-11 16:07:00,57.5,36.3,30.13,SSW,192,5.0,10.0,45,0.00,,SKC,0.00,VWS V13.01,2013-02-12 00:07:00,
2013-02-11 16:08:00,57.4,36.2,30.13,SSW,194,5.0,10.0,45,0.00,,SKC,0.00,VWS V13.01,2013-02-12 00:08:00,
2013-02-11 16:09:00,57.3,36.2,30.14,SSW,207,7.0,10.0,45,0.00,,SKC,0.00,VWS V13.01,2013-02-12 00:09:00,
2013-02-11 16:10:00,57.2,36.1,30.14,SSW,209,6.0,10.0,45,0.00,,SKC,0.00,VWS V13.01,2013-02-12 00:10:00,
2013-02-11 16:11:00,57.2,36.1,30.14,SSW,204,5.0,9.0,45,0.00,,SKC,0.00,VWS V13.01,2013-02-12 00:11:00,
2013-02-11 16:12:00,57.1,36.5,30.14,SSW,209,4.0,9.0,46,0.00,,SKC,0.00,VWS V13.01,2013-02-12 00:12:00,
2013-02-11 16:13:00,57.1,36.0,30.14,SSW,196,5.0,9.0,45,0.00,,SKC,0.00,VWS V13.01,2013-02-12 00:13:00,
2013-02-11 16:14:00,57.0,35.9,30.14,SSW,207,5.0,9.0,45,0.00,,SKC,0.00,VWS V13.01,2013-02-12 00:14:00,
2013-02-11 16:15:00,57.0,35.9,30.14,SSW,207,3.0,9.0,45,0.00,,SKC,0.00,VWS V13.01,2013-02-12 00:15:00,
2013-02-11 16:16:00,56.9,36.3,30.14,SSW,212,7.0,7.0,46,0.00,,SKC,0.00,VWS V13.01,2013-02-12 00:16:00,
2013-02-11 16:17:00,56.9,35.8,30.14,SSW,212,7.0,9.0,45,0.00,,SKC,0.00,VWS V13.01,2013-02-12 00:17:00,
2013-02-11 16:18:00,56.8,36.3,30.14,SSW,211,5.0,9.0,46,0.00,,SKC,0.00,VWS V13.01,2013-02-12 00:18:00,
2013-02-11 16:19:00,56.7,36.2,30.14,SW,229,4.0,9.0,46,0.00,,SKC,0.00,VWS V13.01,2013-02-12 00:19:00,
2013-02-11 16:20:00,56.6,36.1,30.14,SSW,207,6.0,9.0,46,0.00,,SKC,0.00,VWS V13.01,2013-02-12 00:20:00,
2013-02-11 16:21:00,56.6,36.1,30.14,SSW,208,4.0,6.0,46,0.00,,SKC,0.00,VWS V13.01,2013-02-12 00:21:00,
2013-02-11 16:22:00,56.5,36.5,30.14,SSW,208,3.0,6.0,47,0.00,,SKC,0.00,VWS V13.01,2013-02-12 00:22:00,
2013-02-11 16:23:00,56.4,36.4,30.14,SSW,207,6.0,7.0,47,0.00,,SKC,0.00,VWS V13.01,2013-02-12 00:23:00,
2013-02-11 16:24:00,56.4,36.4,30.14,SSW,194,3.0,7.0,47,0.00,,SKC,0.00,VWS V13.01,2013-02-12 00:24:00,
2013-02-11 16:25:00,56.4,36.4,30.14,SSW,207,7.0,10.0,47,0.00,,SKC,0.00,VWS V13.01,2013-02-12 00:25:00,
2013-02-11 16:26:00,56.3,36.3,30.14,SSW,206,7.0,7.0,47,0.00,,SKC,0.00,VWS V13.01,2013-02-12 00:26:00,
2013-02-11 16:27:00,56.3,36.3,30.14,SSW,202,4.0,8.0,47,0.00,,SKC,0.00,VWS V13.01,2013-02-12 00:27:00,
2013-02-11 16:28:00,56.2,36.3,30.14,SSW,213,6.0,8.0,47,0.00,,SKC,0.00,VWS V13.01,2013-02-12 00:28:00,
2013-02-11 16:29:00,56.2,36.3,30.14,SSW,208,8.0,9.0,47,0.00,,SKC,0.00,VWS V13.01,2013-02-12 00:29:00,
2013-02-11 16:30:00,56.1,36.2,30.14,SSW,207,7.0,9.0,47,0.00,,SKC,0.00,VWS V13.01,2013-02-12 00:30:00,
2013-02-11 16:31:00,56.1,36.2,30.14,SW,217,4.0,7.0,47,0.00,,SKC,0.00,VWS V13.01,2013-02-12 00:31:00,
2013-02-11 16:32:00,56.1,36.2,30.14,South,191,5.0,7.0,47,0.00,,SKC,0.00,VWS V13.01,2013-02-12 00:32:00,
2013-02-11 16:33:00,56.0,36.1,30.14,SSW,204,4.0,7.0,47,0.00,,SKC,0.00,VWS V13.01,2013-02-12 00:33:00,
2013-02-11 16:34:00,56.0,36.6,30.14,SSW,205,6.0,9.0,48,0.00,,SKC,0.00,VWS V13.01,2013-02-12 00:34:00,
2013-02-11 16:35:00,55.9,36.0,30.14,SSW,205,3.0,9.0,47,0.00,,SKC,0.00,VWS V13.01,2013-02-12 00:35:00,
2013-02-11 16:36:00,55.9,36.0,30.14,SSW,205,3.0,5.0,47,0.00,,SKC,0.00,VWS V13.01,2013-02-12 00:36:00,
2013-02-11 16:37:00,55.9,36.0,30.14,SSW,205,4.0,7.0,47,0.00,,SKC,0.00,VWS V13.01,2013-02-12 00:37:00,
2013-02-11 16:38:00,55.9,36.5,30.14,SSW,205,5.0,7.0,48,0.00,,SKC,0.00,VWS V13.01,2013-02-12 00:38:00,
2013-02-11 16:39:00,55.8,36.4,30.14,SSW,205,3.0,7.0,48,0.00,,SKC,0.00,VWS V13.01,2013-02-12 00:39:00,
2013-02-11 16:40:00,55.8,36.4,30.14,SSW,205,2.0,7.0,48,0.00,,SKC,0.00,VWS V13.01,2013-02-12 00:40:00,
2013-02-11 16:41:00,55.7,36.3,30.14,SSW,205,4.0,5.0,48,0.00,,SKC,0.00,VWS V13.01,2013-02-12 00:41:00,
2013-02-11 16:42:00,55.7,36.3,30.14,SSW,205,2.0,5.0,48,0.00,,SKC,0.00,VWS V13.01,2013-02-12 00:42:00,
2013-02-11 16:43:00,55.6,36.2,30.14,SSW,205,3.0,5.0,48,0.00,,SKC,0.00,VWS V13.01,2013-02-12 00:43:00,
2013-02-11 16:44:00,55.6,36.2,30.14,SSW,205,4.0,5.0,48,0.00,,SKC,0.00,VWS V13.01,2013-02-12 00:44:00,
2013-02-11 16:45:00,55.5,36.2,30.14,SSW,205,4.0,5.0,48,0.00,,SKC,0.00,VWS V13.01,2013-02-12 00:45:00,
2013-02-11 16:46:00,55.5,36.2,30.14,SSW,205,0.0,4.0,48,0.00,,SKC,0.00,VWS V13.01,2013-02-12 00:46:00,
2013-02-11 16:47:00,55.5,36.2,30.14,SSW,205,2.0,4.0,48,0.00,,SKC,0.00,VWS V13.01,2013-02-12 00:47:00,
2013-02-11 16:48:00,55.4,36.1,30.14,SSW,205,2.0,4.0,48,0.00,,SKC,0.00,VWS V13.01,2013-02-12 00:48:00,
2013-02-11 16:49:00,55.4,36.6,30.14,SSW,205,0.0,4.0,49,0.00,,SKC,0.00,VWS V13.01,2013-02-12 00:49:00,
2013-02-11 16:50:00,55.3,36.5,30.14,SSW,205,0.0,4.0,49,0.00,,SKC,0.00,VWS V13.01,2013-02-12 00:50:00,
2013-02-11 16:51:00,55.3,36.5,30.14,SSW,205,2.0,3.0,49,0.00,,SKC,0.00,VWS V13.01,2013-02-12 00:51:00,
2013-02-11 16:52:00,55.2,36.4,30.14,SSW,205,0.0,3.0,49,0.00,,SKC,0.00,VWS V13.01,2013-02-12 00:52:00,
2013-02-11 16:53:00,55.1,36.3,30.14,SSW,205,0.0,3.0,49,0.00,,SKC,0.00,VWS V13.01,2013-02-12 00:53:00,
2013-02-11 16:54:00,55.1,36.3,30.14,SSW,205,2.0,4.0,49,0.00,,SKC,0.00,VWS V13.01,2013-02-12 00:54:00,
2013-02-11 16:55:00,55.0,36.2,30.14,SSW,205,4.0,4.0,49,0.00,,SKC,0.00,VWS V13.01,2013-02-12 00:55:00,
2013-02-11 16:56:00,55.0,36.2,30.14,SSW,205,5.0,5.0,49,0.00,,SKC,0.00,VWS V13.01,2013-02-12 00:56:00,
2013-02-11 16:57:00,55.0,36.2,30.14,SSW,205,3.0,5.0,49,0.00,,SKC,0.00,VWS V13.01,2013-02-12 00:57:00,
2013-02-11 16:58:00,55.0,36.2,30.14,SSW,205,2.0,5.0,49,0.00,,SKC,0.00,VWS V13.01,2013-02-12 00:58:00,
2013-02-11 16:59:00,54.9,36.1,30.14,SSW,205,4.0,5.0,49,0.00,,SKC,0.00,VWS V13.01,2013-02-12 00:59:00,
2013-02-11 17:00:00,54.9,36.1,30.14,SSW,205,3.0,5.0,49,0.00,,SKC,0.00,VWS V13.01,2013-02-12 01:00:00,
2013-02-11 17:01:00,54.8,36.0,30.15,SSW,205,2.0,3.0,49,0.00,,SKC,0.00,VWS V13.01,2013-02-12 01:01:00,
2013-02-11 17:02:00,54.7,35.9,30.15,SSW,205,3.0,3.0,49,0.00,,SKC,0.00,VWS V13.01,2013-02-12 01:02:00,
2013-02-11 17:03:00,54.6,35.8,30.15,SSW,205,4.0,4.0,49,0.00,,SKC,0.00,VWS V13.01,2013-02-12 01:03:00,
2013-02-11 17:04:00,54.6,35.8,30.15,SSW,205,2.0,4.0,49,0.00,,SKC,0.00,VWS V13.01,2013-02-12 01:04:00,
2013-02-11 17:05:00,54.5,35.8,30.15,SSW,205,2.0,4.0,49,0.00,,SKC,0.00,VWS V13.01,2013-02-12 01:05:00,
2013-02-11 17:06:00,54.5,36.3,30.15,SSW,205,2.0,3.0,50,0.00,,SKC,0.00,VWS V13.01,2013-02-12 01:06:00,
2013-02-11 17:07:00,54.5,36.3,30.15,SSW,205,3.0,4.0,50,0.00,,SKC,0.00,VWS V13.01,2013-02-12 01:07:00,
2013-02-11 17:08:00,54.4,36.2,30.15,SSW,205,2.0,4.0,50,0.00,,SKC,0.00,VWS V13.01,2013-02-12 01:08:00,
2013-02-11 17:09:00,54.3,36.1,30.15,SSW,205,3.0,4.0,50,0.00,,SKC,0.00,VWS V13.01,2013-02-12 01:09:00,
2013-02-11 17:10:00,54.3,36.1,30.15,SSW,205,0.0,4.0,50,0.00,,SKC,0.00,VWS V13.01,2013-02-12 01:10:00,
2013-02-11 17:11:00,54.2,36.0,30.15,SSW,205,0.0,0.0,50,0.00,,SKC,0.00,VWS V13.01,2013-02-12 01:11:00,
2013-02-11 17:12:00,54.1,35.9,30.15,SSW,205,0.0,0.0,50,0.00,,SKC,0.00,VWS V13.01,2013-02-12 01:12:00,
2013-02-11 17:13:00,54.0,35.8,30.15,SSW,205,0.0,0.0,50,0.00,,SKC,0.00,VWS V13.01,2013-02-12 01:13:00,
2013-02-11 17:14:00,53.9,36.2,30.15,SSW,205,2.0,2.0,51,0.00,,SKC,0.00,VWS V13.01,2013-02-12 01:14:00,
2013-02-11 17:15:00,53.8,36.1,30.15,SSW,205,1.0,3.0,51,0.00,,SKC,0.00,VWS V13.01,2013-02-12 01:15:00,
2013-02-11 17:16:00,53.7,36.0,30.15,SSW,205,0.0,2.0,51,0.00,,SKC,0.00,VWS V13.01,2013-02-12 01:16:00,
2013-02-11 17:17:00,53.6,35.9,30.15,SSW,205,0.0,2.0,51,0.00,,SKC,0.00,VWS V13.01,2013-02-12 01:17:00,
2013-02-11 17:18:00,53.5,36.3,30.15,SSW,205,0.0,2.0,52,0.00,,SKC,0.00,VWS V13.01,2013-02-12 01:18:00,
2013-02-11 17:19:00,53.4,36.2,30.16,SSW,205,0.0,2.0,52,0.00,,SKC,0.00,VWS V13.01,2013-02-12 01:19:00,
2013-02-11 17:20:00,53.2,36.0,30.16,SSW,205,0.0,2.0,52,0.00,,SKC,0.00,VWS V13.01,2013-02-12 01:20:00,
2013-02-11 17:21:00,53.0,35.9,30.16,SSW,205,0.0,0.0,52,0.00,,SKC,0.00,VWS V13.01,2013-02-12 01:21:00,
2013-02-11 17:22:00,52.9,36.2,30.16,SSW,205,0.0,0.0,53,0.00,,SKC,0.00,VWS V13.01,2013-02-12 01:22:00,
2013-02-11 17:23:00,52.8,36.2,30.16,SSW,205,0.0,0.0,53,0.00,,SKC,0.00,VWS V13.01,2013-02-12 01:23:00,
2013-02-11 17:24:00,52.6,36.0,30.16,SSW,205,0.0,0.0,53,0.00,,SKC,0.00,VWS V13.01,2013-02-12 01:24:00,
2013-02-11 17:25:00,52.5,35.9,30.16,SSW,205,0.0,0.0,53,0.00,,SKC,0.00,VWS V13.01,2013-02-12 01:25:00,
2013-02-11 17:26:00,52.4,35.8,30.16,SSW,205,0.0,0.0,53,0.00,,SKC,0.00,VWS V13.01,2013-02-12 01:26:00,
2013-02-11 17:27:00,52.3,36.2,30.16,SSW,205,0.0,0.0,54,0.00,,SKC,0.00,VWS V13.01,2013-02-12 01:27:00,
2013-02-11 17:28:00,52.1,36.0,30.16,SSW,205,0.0,0.0,54,0.00,,SKC,0.00,VWS V13.01,2013-02-12 01:28:00,
2013-02-11 17:29:00,52.0,35.9,30.16,SSW,205,0.0,0.0,54,0.00,,SKC,0.00,VWS V13.01,2013-02-12 01:29:00,
2013-02-11 17:30:00,51.9,35.8,30.16,SSW,205,0.0,0.0,54,0.00,,SKC,0.00,VWS V13.01,2013-02-12 01:30:00,
2013-02-11 17:31:00,51.7,36.1,30.16,SSW,205,0.0,0.0,55,0.00,,SKC,0.00,VWS V13.01,2013-02-12 01:31:00,
2013-02-11 17:32:00,51.5,35.9,30.16,SSW,205,0.0,0.0,55,0.00,,SKC,0.00,VWS V13.01,2013-02-12 01:32:00,
2013-02-11 17:33:00,51.4,35.8,30.17,SSW,205,0.0,0.0,55,0.00,,SKC,0.00,VWS V13.01,2013-02-12 01:33:00,
2013-02-11 17:34:00,51.3,36.2,30.17,SSW,205,0.0,0.0,56,0.00,,SKC,0.00,VWS V13.01,2013-02-12 01:34:00,
2013-02-11 17:35:00,51.2,36.1,30.16,SSW,205,0.0,0.0,56,0.00,,SKC,0.00,VWS V13.01,2013-02-12 01:35:00,
2013-02-11 17:36:00,51.0,35.9,30.17,SSW,205,1.0,2.0,56,0.00,,SKC,0.00,VWS V13.01,2013-02-12 01:36:00,
2013-02-11 17:37:00,50.8,35.7,30.17,SSW,205,1.0,2.0,56,0.00,,SKC,0.00,VWS V13.01,2013-02-12 01:37:00,
2013-02-11 17:38:00,50.7,35.6,30.17,SSW,205,1.0,2.0,56,0.00,,SKC,0.00,VWS V13.01,2013-02-12 01:38:00,
2013-02-11 17:39:00,50.5,35.8,30.16,SSW,205,2.0,2.0,57,0.00,,SKC,0.00,VWS V13.01,2013-02-12 01:39:00,
2013-02-11 17:40:00,50.3,35.7,30.16,SSW,205,1.0,2.0,57,0.00,,SKC,0.00,VWS V13.01,2013-02-12 01:40:00,
2013-02-11 17:41:00,50.1,35.9,30.17,SSW,205,2.0,2.0,58,0.00,,SKC,0.00,VWS V13.01,2013-02-12 01:41:00,
2013-02-11 17:42:00,50.0,35.8,30.17,SSW,205,2.0,2.0,58,0.00,,SKC,0.00,VWS V13.01,2013-02-12 01:42:00,
2013-02-11 17:43:00,49.9,35.7,30.17,SSW,205,0.0,2.0,58,0.00,,SKC,0.00,VWS V13.01,2013-02-12 01:43:00,
2013-02-11 17:44:00,49.8,35.6,30.17,SSW,205,0.0,2.0,58,0.00,,SKC,0.00,VWS V13.01,2013-02-12 01:44:00,
2013-02-11 17:45:00,49.7,36.0,30.17,SSW,205,0.0,2.0,59,0.00,,SKC,0.00,VWS V13.01,2013-02-12 01:45:00,
2013-02-11 17:46:00,49.5,35.8,30.17,SSW,205,0.0,0.0,59,0.00,,SKC,0.00,VWS V13.01,2013-02-12 01:46:00,
2013-02-11 17:47:00,49.3,36.0,30.17,SSW,205,0.0,0.0,60,0.00,,SKC,0.00,VWS V13.01,2013-02-12 01:47:00,
2013-02-11 17:48:00,49.1,35.8,30.17,SSW,205,0.0,0.0,60,0.00,,SKC,0.00,VWS V13.01,2013-02-12 01:48:00,
2013-02-11 17:49:00,48.8,36.0,30.17,SSW,205,0.0,0.0,61,0.00,,SKC,0.00,VWS V13.01,2013-02-12 01:49:00,
2013-02-11 17:50:00,48.5,35.7,30.17,SSW,205,0.0,0.0,61,0.00,,SKC,0.00,VWS V13.01,2013-02-12 01:50:00,
2013-02-11 17:51:00,48.3,35.5,30.17,SSW,205,0.0,0.0,61,0.00,,SKC,0.00,VWS V13.01,2013-02-12 01:51:00,
2013-02-11 17:52:00,48.0,35.6,30.17,SSW,205,0.0,0.0,62,0.00,,SKC,0.00,VWS V13.01,2013-02-12 01:52:00,
2013-02-11 17:53:00,47.8,35.4,30.17,SSW,205,0.0,0.0,62,0.00,,SKC,0.00,VWS V13.01,2013-02-12 01:53:00,
2013-02-11 17:54:00,47.6,35.2,30.17,SSW,205,0.0,0.0,62,0.00,,SKC,0.00,VWS V13.01,2013-02-12 01:54:00,
2013-02-11 17:55:00,47.5,35.5,30.17,SSW,205,0.0,0.0,63,0.00,,SKC,0.00,VWS V13.01,2013-02-12 01:55:00,
2013-02-11 17:56:00,47.4,35.5,30.18,SSW,205,0.0,0.0,63,0.00,,SKC,0.00,VWS V13.01,2013-02-12 01:56:00,
2013-02-11 17:57:00,47.2,35.3,30.18,SSW,205,0.0,0.0,63,0.00,,SKC,0.00,VWS V13.01,2013-02-12 01:57:00,
2013-02-11 17:58:00,47.1,35.6,30.18,SSW,205,0.0,0.0,64,0.00,,SKC,0.00,VWS V13.01,2013-02-12 01:58:00,
2013-02-11 17:59:00,47.0,35.5,30.18,SSW,205,0.0,0.0,64,0.00,,SKC,0.00,VWS V13.01,2013-02-12 01:59:00,
2013-02-11 18:00:00,46.9,35.4,30.18,SSW,205,0.0,0.0,64,0.00,,SKC,0.00,VWS V13.01,2013-02-12 02:00:00,
2013-02-11 18:01:00,46.8,35.7,30.18,SSW,205,0.0,0.0,65,0.00,,SKC,0.00,VWS V13.01,2013-02-12 02:01:00,
2013-02-11 18:02:00,46.7,35.6,30.18,SSW,205,0.0,0.0,65,0.00,,SKC,0.00,VWS V13.01,2013-02-12 02:02:00,
2013-02-11 18:03:00,46.6,35.5,30.18,SSW,205,0.0,0.0,65,0.00,,SKC,0.00,VWS V13.01,2013-02-12 02:03:00,
2013-02-11 18:04:00,46.5,35.4,30.18,SSW,205,0.0,0.0,65,0.00,,SKC,0.00,VWS V13.01,2013-02-12 02:04:00,
2013-02-11 18:05:00,46.4,35.3,30.18,SSW,205,0.0,0.0,65,0.00,,SKC,0.00,VWS V13.01,2013-02-12 02:05:00,
2013-02-11 18:06:00,46.3,35.2,30.18,SSW,205,0.0,0.0,65,0.00,,SKC,0.00,VWS V13.01,2013-02-12 02:06:00,
2013-02-11 18:07:00,46.2,35.5,30.18,SSW,205,0.0,0.0,66,0.00,,SKC,0.00,VWS V13.01,2013-02-12 02:07:00,
2013-02-11 18:08:00,46.2,35.5,30.18,SSW,205,0.0,0.0,66,0.00,,SKC,0.00,VWS V13.01,2013-02-12 02:08:00,
2013-02-11 18:09:00,46.2,35.5,30.18,SSW,205,0.0,0.0,66,0.00,,SKC,0.00,VWS V13.01,2013-02-12 02:09:00,
2013-02-11 18:10:00,46.2,35.5,30.18,SSW,205,0.0,0.0,66,0.00,,SKC,0.00,VWS V13.01,2013-02-12 02:10:00,
2013-02-11 18:11:00,46.1,35.4,30.18,SSW,205,0.0,0.0,66,0.00,,SKC,0.00,VWS V13.01,2013-02-12 02:11:00,
2013-02-11 18:12:00,46.0,35.7,30.18,SSW,205,0.0,0.0,67,0.00,,SKC,0.00,VWS V13.01,2013-02-12 02:12:00,
2013-02-11 18:13:00,46.0,35.3,30.18,SSW,205,0.0,0.0,66,0.00,,SKC,0.00,VWS V13.01,2013-02-12 02:13:00,
2013-02-11 18:14:00,45.9,35.6,30.18,SSW,205,0.0,0.0,67,0.00,,SKC,0.00,VWS V13.01,2013-02-12 02:14:00,
2013-02-11 18:15:00,45.8,35.5,30.18,SSW,205,2.0,3.0,67,0.00,,SKC,0.00,VWS V13.01,2013-02-12 02:15:00,
2013-02-11 18:16:00,45.7,35.4,30.18,SSW,205,0.0,2.0,67,0.00,,SKC,0.00,VWS V13.01,2013-02-12 02:16:00,
2013-02-11 18:17:00,45.7,35.4,30.18,SSW,205,0.0,2.0,67,0.00,,SKC,0.00,VWS V13.01,2013-02-12 02:17:00,
2013-02-11 18:18:00,45.6,35.3,30.18,SSW,205,0.0,2.0,67,0.00,,SKC,0.00,VWS V13.01,2013-02-12 02:18:00,
2013-02-11 18:19:00,45.5,35.2,30.18,SSW,205,0.0,2.0,67,0.00,,SKC,0.00,VWS V13.01,2013-02-12 02:19:00,
2013-02-11 18:20:00,45.4,35.5,30.18,SSW,205,0.0,2.0,68,0.00,,SKC,0.00,VWS V13.01,2013-02-12 02:20:00,
2013-02-11 18:21:00,45.4,35.5,30.19,SSW,205,0.0,0.0,68,0.00,,SKC,0.00,VWS V13.01,2013-02-12 02:21:00,
2013-02-11 18:22:00,45.3,35.4,30.19,SSW,205,0.0,0.0,68,0.00,,SKC,0.00,VWS V13.01,2013-02-12 02:22:00,
2013-02-11 18:23:00,45.2,35.3,30.19,SSW,205,0.0,0.0,68,0.00,,SKC,0.00,VWS V13.01,2013-02-12 02:23:00,
2013-02-11 18:24:00,45.2,35.3,30.19,SSW,205,0.0,0.0,68,0.00,,SKC,0.00,VWS V13.01,2013-02-12 02:24:00,
2013-02-11 18:25:00,45.2,35.7,30.19,SSW,205,2.0,2.0,69,0.00,,SKC,0.00,VWS V13.01,2013-02-12 02:25:00,
2013-02-11 18:26:00,45.2,35.3,30.19,SSW,205,2.0,3.0,68,0.00,,SKC,0.00,VWS V13.01,2013-02-12 02:26:00,
2013-02-11 18:27:00,45.3,35.4,30.19,SSW,205,0.0,3.0,68,0.00,,SKC,0.00,VWS V13.01,2013-02-12 02:27:00,
2013-02-11 18:28:00,45.3,35.7,30.19,SSW,205,2.0,3.0,69,0.00,,SKC,0.00,VWS V13.01,2013-02-12 02:28:00,
2013-02-11 18:29:00,45.3,35.4,30.19,SSW,205,0.0,3.0,68,0.00,,SKC,0.00,VWS V13.01,2013-02-12 02:29:00,
2013-02-11 18:30:00,45.2,35.7,30.19,SSW,205,0.0,3.0,69,0.00,,SKC,0.00,VWS V13.01,2013-02-12 02:30:00,
2013-02-11 18:31:00,45.1,35.5,30.19,SSW,205,0.0,0.0,69,0.00,,SKC,0.00,VWS V13.01,2013-02-12 02:31:00,
2013-02-11 18:32:00,45.1,35.5,30.19,SSW,205,0.0,0.0,69,0.00,,SKC,0.00,VWS V13.01,2013-02-12 02:32:00,
2013-02-11 18:33:00,45.0,35.5,30.19,SSW,205,0.0,0.0,69,0.00,,SKC,0.00,VWS V13.01,2013-02-12 02:33:00,
2013-02-11 18:34:00,44.9,35.4,30.19,SSW,205,0.0,0.0,69,0.00,,SKC,0.00,VWS V13.01,2013-02-12 02:34:00,
2013-02-11 18:35:00,44.7,35.5,30.19,SSW,205,0.0,0.0,70,0.00,,SKC,0.00,VWS V13.01,2013-02-12 02:35:00,
2013-02-11 18:36:00,44.7,35.5,30.19,SSW,205,0.0,0.0,70,0.00,,SKC,0.00,VWS V13.01,2013-02-12 02:36:00,
2013-02-11 18:37:00,44.6,35.4,30.19,SSW,205,0.0,0.0,70,0.00,,SKC,0.00,VWS V13.01,2013-02-12 02:37:00,
2013-02-11 18:38:00,44.6,35.4,30.19,SSW,205,1.0,3.0,70,0.00,,SKC,0.00,VWS V13.01,2013-02-12 02:38:00,
2013-02-11 18:39:00,44.5,35.3,30.19,SSW,205,2.0,3.0,70,0.00,,SKC,0.00,VWS V13.01,2013-02-12 02:39:00,
2013-02-11 18:40:00,44.5,35.3,30.19,SSW,205,2.0,3.0,70,0.00,,SKC,0.00,VWS V13.01,2013-02-12 02:40:00,
2013-02-11 18:41:00,44.5,35.3,30.19,SSW,205,3.0,4.0,70,0.00,,SKC,0.00,VWS V13.01,2013-02-12 02:41:00,
2013-02-11 18:42:00,44.5,35.3,30.19,SSW,205,2.0,4.0,70,0.00,,SKC,0.00,VWS V13.01,2013-02-12 02:42:00,
2013-02-11 18:43:00,44.6,35.4,30.19,SSW,205,3.0,4.0,70,0.00,,SKC,0.00,VWS V13.01,2013-02-12 02:43:00,
2013-02-11 18:44:00,44.6,35.4,30.19,SSW,205,2.0,4.0,70,0.00,,SKC,0.00,VWS V13.01,2013-02-12 02:44:00,
2013-02-11 18:45:00,44.6,35.4,30.19,SSW,205,2.0,4.0,70,0.00,,SKC,0.00,VWS V13.01,2013-02-12 02:45:00,
2013-02-11 18:46:00,44.7,35.5,30.19,SSW,205,2.0,3.0,70,0.00,,SKC,0.00,VWS V13.01,2013-02-12 02:46:00,
2013-02-11 18:47:00,44.7,35.5,30.19,SSW,205,2.0,3.0,70,0.00,,SKC,0.00,VWS V13.01,2013-02-12 02:47:00,
2013-02-11 18:48:00,44.7,35.5,30.19,SSW,205,3.0,3.0,70,0.00,,SKC,0.00,VWS V13.01,2013-02-12 02:48:00,
2013-02-11 18:49:00,44.7,35.5,30.19,SSW,205,3.0,4.0,70,0.00,,SKC,0.00,VWS V13.01,2013-02-12 02:49:00,
2013-02-11 18:50:00,44.7,35.5,30.19,SSW,205,2.0,4.0,70,0.00,,SKC,0.00,VWS V13.01,2013-02-12 02:50:00,
2013-02-11 18:51:00,44.7,35.5,30.20,SSW,205,3.0,3.0,70,0.00,,SKC,0.00,VWS V13.01,2013-02-12 02:51:00,
2013-02-11 18:52:00,44.7,35.5,30.20,SSW,205,3.0,3.0,70,0.00,,SKC,0.00,VWS V13.01,2013-02-12 02:52:00,
2013-02-11 18:53:00,44.7,35.5,30.20,SSW,205,2.0,3.0,70,0.00,,SKC,0.00,VWS V13.01,2013-02-12 02:53:00,
2013-02-11 18:54:00,44.7,35.5,30.20,SSW,205,1.0,4.0,70,0.00,,SKC,0.00,VWS V13.01,2013-02-12 02:54:00,
2013-02-11 18:55:00,44.8,35.6,30.20,SSW,205,3.0,4.0,70,0.00,,SKC,0.00,VWS V13.01,2013-02-12 02:55:00,
2013-02-11 18:56:00,44.9,36.1,30.19,SSW,202,2.0,4.0,71,0.00,,SKC,0.00,VWS V13.01,2013-02-12 02:56:00,
2013-02-11 18:57:00,45.0,36.2,30.19,SSW,202,4.0,4.0,71,0.00,,SKC,0.00,VWS V13.01,2013-02-12 02:57:00,
2013-02-11 18:58:00,45.0,36.2,30.19,SSW,202,3.0,4.0,71,0.00,,SKC,0.00,VWS V13.01,2013-02-12 02:58:00,
2013-02-11 18:59:00,45.1,36.3,30.20,SSW,202,1.0,4.0,71,0.00,,SKC,0.00,VWS V13.01,2013-02-12 02:59:00,
2013-02-11 19:00:00,45.2,36.4,30.20,SSW,202,3.0,4.0,71,0.00,,SKC,0.00,VWS V13.01,2013-02-12 03:00:00,
2013-02-11 19:01:00,45.3,36.5,30.18,SSW,202,2.0,4.0,71,0.00,,SKC,0.00,VWS V13.01,2013-02-12 03:01:00,
2013-02-11 19:02:00,45.4,36.6,30.18,SSW,202,3.0,5.0,71,0.00,,SKC,0.00,VWS V13.01,2013-02-12 03:02:00,
2013-02-11 19:03:00,45.5,36.7,30.18,SSW,201,3.0,5.0,71,0.00,,SKC,0.00,VWS V13.01,2013-02-12 03:03:00,
2013-02-11 19:04:00,45.6,36.8,30.18,SSW,201,2.0,5.0,71,0.00,,SKC,0.00,VWS V13.01,2013-02-12 03:04:00,
2013-02-11 19:05:00,45.6,36.8,30.18,SSW,201,4.0,5.0,71,0.00,,SKC,0.00,VWS V13.01,2013-02-12 03:05:00,
2013-02-11 19:06:00,45.7,36.8,30.18,SSW,201,2.0,4.0,71,0.00,,SKC,0.00,VWS V13.01,2013-02-12 03:06:00,
2013-02-11 19:07:00,45.8,37.0,30.18,SSW,201,2.0,4.0,71,0.00,,SKC,0.00,VWS V13.01,2013-02-12 03:07:00,
2013-02-11 19:08:00,45.9,37.0,30.18,SSW,201,0.0,4.0,71,0.00,,SKC,0.00,VWS V13.01,2013-02-12 03:08:00,
2013-02-11 19:09:00,45.9,36.7,30.18,SSW,201,0.0,4.0,70,0.00,,SKC,0.00,VWS V13.01,2013-02-12 03:09:00,
2013-02-11 19:10:00,46.0,36.8,30.19,SSW,201,0.0,4.0,70,0.00,,SKC,0.00,VWS V13.01,2013-02-12 03:10:00,
2013-02-11 19:11:00,46.0,36.8,30.18,SSW,201,0.0,0.0,70,0.00,,SKC,0.00,VWS V13.01,2013-02-12 03:11:00,
2013-02-11 19:12:00,46.0,36.8,30.19,SSW,201,0.0,0.0,70,0.00,,SKC,0.00,VWS V13.01,2013-02-12 03:12:00,
2013-02-11 19:13:00,46.0,36.8,30.19,SSW,201,0.0,0.0,70,0.00,,SKC,0.00,VWS V13.01,2013-02-12 03:13:00,
2013-02-11 19:14:00,45.9,36.7,30.19,SSW,193,2.0,3.0,70,0.00,,SKC,0.00,VWS V13.01,2013-02-12 03:14:00,
2013-02-11 19:15:00,45.8,36.6,30.19,SSW,193,1.0,3.0,70,0.00,,SKC,0.00,VWS V13.01,2013-02-12 03:15:00,
2013-02-11 19:16:00,45.7,36.5,30.19,South,191,1.0,3.0,70,0.00,,SKC,0.00,VWS V13.01,2013-02-12 03:16:00,
2013-02-11 19:17:00,45.6,36.4,30.18,South,191,2.0,3.0,70,0.00,,SKC,0.00,VWS V13.01,2013-02-12 03:17:00,
2013-02-11 19:18:00,45.5,36.3,30.18,South,191,0.0,3.0,70,0.00,,SKC,0.00,VWS V13.01,2013-02-12 03:18:00,
2013-02-11 19:19:00,45.4,36.2,30.18,South,191,0.0,3.0,70,0.00,,SKC,0.00,VWS V13.01,2013-02-12 03:19:00,
2013-02-11 19:20:00,45.4,36.6,30.19,South,191,0.0,3.0,71,0.00,,SKC,0.00,VWS V13.01,2013-02-12 03:20:00,
2013-02-11 19:21:00,45.3,36.5,30.18,South,191,0.0,0.0,71,0.00,,SKC,0.00,VWS V13.01,2013-02-12 03:21:00,
2013-02-11 19:22:00,45.3,36.5,30.18,South,191,0.0,0.0,71,0.00,,SKC,0.00,VWS V13.01,2013-02-12 03:22:00,
2013-02-11 19:23:00,45.3,36.5,30.18,South,191,0.0,0.0,71,0.00,,SKC,0.00,VWS V13.01,2013-02-12 03:23:00,
2013-02-11 19:24:00,45.2,36.4,30.18,South,191,0.0,0.0,71,0.00,,SKC,0.00,VWS V13.01,2013-02-12 03:24:00,
2013-02-11 19:25:00,45.2,36.4,30.18,South,191,0.0,0.0,71,0.00,,SKC,0.00,VWS V13.01,2013-02-12 03:25:00,
2013-02-11 19:26:00,45.2,36.4,30.18,South,191,0.0,0.0,71,0.00,,SKC,0.00,VWS V13.01,2013-02-12 03:26:00,
2013-02-11 19:27:00,45.1,36.3,30.18,South,191,0.0,0.0,71,0.00,,SKC,0.00,VWS V13.01,2013-02-12 03:27:00,
2013-02-11 19:28:00,45.0,36.2,30.18,South,191,0.0,0.0,71,0.00,,SKC,0.00,VWS V13.01,2013-02-12 03:28:00,
2013-02-11 19:29:00,44.9,36.1,30.18,South,191,0.0,0.0,71,0.00,,SKC,0.00,VWS V13.01,2013-02-12 03:29:00,
2013-02-11 19:30:00,44.7,35.9,30.18,South,191,0.0,0.0,71,0.00,,SKC,0.00,VWS V13.01,2013-02-12 03:30:00,
2013-02-11 19:31:00,44.5,35.7,30.18,South,191,0.0,0.0,71,0.00,,SKC,0.00,VWS V13.01,2013-02-12 03:31:00,
2013-02-11 19:32:00,44.3,35.9,30.18,South,191,0.0,0.0,72,0.00,,SKC,0.00,VWS V13.01,2013-02-12 03:32:00,
2013-02-11 19:33:00,44.1,35.7,30.19,South,191,0.0,0.0,72,0.00,,SKC,0.00,VWS V13.01,2013-02-12 03:33:00,
2013-02-11 19:34:00,44.0,35.6,30.19,South,191,0.0,0.0,72,0.00,,SKC,0.00,VWS V13.01,2013-02-12 03:34:00,
2013-02-11 19:35:00,43.8,35.4,30.19,South,191,0.0,0.0,72,0.00,,SKC,0.00,VWS V13.01,2013-02-12 03:35:00,
2013-02-11 19:36:00,43.6,35.2,30.19,South,191,0.0,0.0,72,0.00,,SKC,0.00,VWS V13.01,2013-02-12 03:36:00,
2013-02-11 19:37:00,43.4,35.3,30.19,South,191,0.0,0.0,73,0.00,,SKC,0.00,VWS V13.01,2013-02-12 03:37:00,
2013-02-11 19:38:00,43.2,35.1,30.19,South,191,0.0,0.0,73,0.00,,SKC,0.00,VWS V13.01,2013-02-12 03:38:00,
2013-02-11 19:39:00,43.1,35.0,30.19,South,191,0.0,0.0,73,0.00,,SKC,0.00,VWS V13.01,2013-02-12 03:39:00,
2013-02-11 19:40:00,43.0,35.0,30.19,South,191,0.0,0.0,73,0.00,,SKC,0.00,VWS V13.01,2013-02-12 03:40:00,
2013-02-11 19:41:00,42.9,35.2,30.19,South,191,0.0,0.0,74,0.00,,SKC,0.00,VWS V13.01,2013-02-12 03:41:00,
2013-02-11 19:42:00,42.7,35.0,30.19,South,191,0.0,0.0,74,0.00,,SKC,0.00,VWS V13.01,2013-02-12 03:42:00,
2013-02-11 19:43:00,42.6,34.9,30.19,South,191,0.0,0.0,74,0.00,,SKC,0.00,VWS V13.01,2013-02-12 03:43:00,
2013-02-11 19:44:00,42.5,34.8,30.19,South,191,0.0,0.0,74,0.00,,SKC,0.00,VWS V13.01,2013-02-12 03:44:00,
2013-02-11 19:45:00,42.4,35.0,30.20,South,191,0.0,0.0,75,0.00,,SKC,0.00,VWS V13.01,2013-02-12 03:45:00,
2013-02-11 19:46:00,42.3,35.0,30.20,South,191,0.0,0.0,75,0.00,,SKC,0.00,VWS V13.01,2013-02-12 03:46:00,
2013-02-11 19:47:00,42.3,35.0,30.20,South,191,0.0,0.0,75,0.00,,SKC,0.00,VWS V13.01,2013-02-12 03:47:00,
2013-02-11 19:48:00,42.2,34.9,30.20,South,191,0.0,0.0,75,0.00,,SKC,0.00,VWS V13.01,2013-02-12 03:48:00,
2013-02-11 19:49:00,42.1,34.8,30.20,South,191,0.0,0.0,75,0.00,,SKC,0.00,VWS V13.01,2013-02-12 03:49:00,
2013-02-11 19:50:00,42.1,34.8,30.20,South,191,0.0,0.0,75,0.00,,SKC,0.00,VWS V13.01,2013-02-12 03:50:00,
2013-02-11 19:51:00,42.0,34.7,30.20,South,191,0.0,0.0,75,0.00,,SKC,0.00,VWS V13.01,2013-02-12 03:51:00,
2013-02-11 19:52:00,42.0,34.7,30.20,South,191,0.0,0.0,75,0.00,,SKC,0.00,VWS V13.01,2013-02-12 03:52:00,
2013-02-11 19:53:00,41.9,34.9,30.20,South,191,0.0,0.0,76,0.00,,SKC,0.00,VWS V13.01,2013-02-12 03:53:00,
2013-02-11 19:54:00,41.9,34.9,30.20,South,191,0.0,0.0,76,0.00,,SKC,0.00,VWS V13.01,2013-02-12 03:54:00,
2013-02-11 19:55:00,41.8,34.8,30.20,South,191,0.0,0.0,76,0.00,,SKC,0.00,VWS V13.01,2013-02-12 03:55:00,
2013-02-11 19:56:00,41.8,34.8,30.20,South,191,0.0,0.0,76,0.00,,SKC,0.00,VWS V13.01,2013-02-12 03:56:00,
2013-02-11 19:57:00,41.7,34.7,30.20,South,191,0.0,0.0,76,0.00,,SKC,0.00,VWS V13.01,2013-02-12 03:57:00,
2013-02-11 19:58:00,41.6,34.6,30.20,South,191,0.0,0.0,76,0.00,,SKC,0.00,VWS V13.01,2013-02-12 03:58:00,
2013-02-11 19:59:00,41.6,34.6,30.20,South,191,0.0,0.0,76,0.00,,SKC,0.00,VWS V13.01,2013-02-12 03:59:00,
2013-02-11 20:00:00,41.5,34.5,30.20,South,191,0.0,0.0,76,0.00,,SKC,0.00,VWS V13.01,2013-02-12 04:00:00,
2013-02-11 20:01:00,41.5,34.5,30.19,South,191,0.0,0.0,76,0.00,,SKC,0.00,VWS V13.01,2013-02-12 04:01:00,
2013-02-11 20:02:00,41.4,34.4,30.19,South,191,0.0,0.0,76,0.00,,SKC,0.00,VWS V13.01,2013-02-12 04:02:00,
2013-02-11 20:03:00,41.3,34.3,30.19,South,191,0.0,0.0,76,0.00,,SKC,0.00,VWS V13.01,2013-02-12 04:03:00,
2013-02-11 20:04:00,41.3,34.3,30.20,South,191,0.0,0.0,76,0.00,,SKC,0.00,VWS V13.01,2013-02-12 04:04:00,
2013-02-11 20:05:00,41.2,34.2,30.20,South,191,0.0,0.0,76,0.00,,SKC,0.00,VWS V13.01,2013-02-12 04:05:00,
2013-02-11 20:06:00,41.1,34.1,30.19,South,191,0.0,0.0,76,0.00,,SKC,0.00,VWS V13.01,2013-02-12 04:06:00,
2013-02-11 20:07:00,41.1,34.1,30.20,South,191,0.0,0.0,76,0.00,,SKC,0.00,VWS V13.01,2013-02-12 04:07:00,
2013-02-11 20:08:00,41.1,34.1,30.20,South,191,0.0,0.0,76,0.00,,SKC,0.00,VWS V13.01,2013-02-12 04:08:00,
2013-02-11 20:09:00,40.9,33.9,30.20,South,191,0.0,0.0,76,0.00,,SKC,0.00,VWS V13.01,2013-02-12 04:09:00,
2013-02-11 20:10:00,40.9,34.3,30.20,South,191,0.0,0.0,77,0.00,,SKC,0.00,VWS V13.01,2013-02-12 04:10:00,
2013-02-11 20:11:00,40.8,34.2,30.20,South,191,0.0,0.0,77,0.00,,SKC,0.00,VWS V13.01,2013-02-12 04:11:00,
2013-02-11 20:12:00,40.7,34.1,30.20,South,191,0.0,0.0,77,0.00,,SKC,0.00,VWS V13.01,2013-02-12 04:12:00,
2013-02-11 20:13:00,40.6,34.0,30.20,South,191,0.0,0.0,77,0.00,,SKC,0.00,VWS V13.01,2013-02-12 04:13:00,
2013-02-11 20:14:00,40.5,33.9,30.20,South,191,0.0,0.0,77,0.00,,SKC,0.00,VWS V13.01,2013-02-12 04:14:00,
2013-02-11 20:15:00,40.4,33.8,30.20,South,191,0.0,0.0,77,0.00,,SKC,0.00,VWS V13.01,2013-02-12 04:15:00,
2013-02-11 20:16:00,40.3,33.7,30.20,South,191,0.0,0.0,77,0.00,,SKC,0.00,VWS V13.01,2013-02-12 04:16:00,
2013-02-11 20:17:00,40.2,33.6,30.20,South,191,0.0,0.0,77,0.00,,SKC,0.00,VWS V13.01,2013-02-12 04:17:00,
2013-02-11 20:18:00,40.2,33.6,30.20,South,191,0.0,0.0,77,0.00,,SKC,0.00,VWS V13.01,2013-02-12 04:18:00,
2013-02-11 20:19:00,40.1,33.5,30.20,South,191,0.0,0.0,77,0.00,,SKC,0.00,VWS V13.01,2013-02-12 04:19:00,
2013-02-11 20:20:00,40.1,33.8,30.20,South,191,0.0,0.0,78,0.00,,SKC,0.00,VWS V13.01,2013-02-12 04:20:00,
2013-02-11 20:21:00,40.1,33.8,30.20,South,191,0.0,0.0,78,0.00,,SKC,0.00,VWS V13.01,2013-02-12 04:21:00,
2013-02-11 20:22:00,40.1,33.8,30.20,South,191,0.0,0.0,78,0.00,,SKC,0.00,VWS V13.01,2013-02-12 04:22:00,
2013-02-11 20:23:00,40.1,33.8,30.20,South,191,0.0,0.0,78,0.00,,SKC,0.00,VWS V13.01,2013-02-12 04:23:00,
2013-02-11 20:24:00,40.1,33.8,30.20,South,191,0.0,0.0,78,0.00,,SKC,0.00,VWS V13.01,2013-02-12 04:24:00,
2013-02-11 20:25:00,40.0,33.7,30.20,South,191,0.0,0.0,78,0.00,,SKC,0.00,VWS V13.01,2013-02-12 04:25:00,
2013-02-11 20:26:00,40.0,33.7,30.20,South,191,0.0,0.0,78,0.00,,SKC,0.00,VWS V13.01,2013-02-12 04:26:00,
2013-02-11 20:27:00,39.9,33.6,30.20,South,191,0.0,0.0,78,0.00,,SKC,0.00,VWS V13.01,2013-02-12 04:27:00,
2013-02-11 20:28:00,39.8,33.5,30.20,South,191,0.0,0.0,78,0.00,,SKC,0.00,VWS V13.01,2013-02-12 04:28:00,
2013-02-11 20:29:00,39.7,33.4,30.20,South,191,0.0,0.0,78,0.00,,SKC,0.00,VWS V13.01,2013-02-12 04:29:00,
2013-02-11 20:30:00,39.7,33.4,30.20,South,191,0.0,0.0,78,0.00,,SKC,0.00,VWS V13.01,2013-02-12 04:30:00,
2013-02-11 20:31:00,39.7,33.4,30.20,South,191,0.0,0.0,78,0.00,,SKC,0.00,VWS V13.01,2013-02-12 04:31:00,
2013-02-11 20:32:00,39.6,33.6,30.20,South,191,0.0,0.0,79,0.00,,SKC,0.00,VWS V13.01,2013-02-12 04:32:00,
2013-02-11 20:33:00,39.6,33.6,30.20,South,191,0.0,0.0,79,0.00,,SKC,0.00,VWS V13.01,2013-02-12 04:33:00,
2013-02-11 20:34:00,39.5,33.5,30.20,South,191,0.0,0.0,79,0.00,,SKC,0.00,VWS V13.01,2013-02-12 04:34:00,
2013-02-11 20:35:00,39.5,33.5,30.21,South,191,0.0,0.0,79,0.00,,SKC,0.00,VWS V13.01,2013-02-12 04:35:00,
2013-02-11 20:36:00,39.5,33.5,30.21,South,191,0.0,0.0,79,0.00,,SKC,0.00,VWS V13.01,2013-02-12 04:36:00,
2013-02-11 20:37:00,39.5,33.5,30.21,South,191,0.0,0.0,79,0.00,,SKC,0.00,VWS V13.01,2013-02-12 04:37:00,
2013-02-11 20:38:00,39.4,33.4,30.21,South,191,0.0,0.0,79,0.00,,SKC,0.00,VWS V13.01,2013-02-12 04:38:00,
2013-02-11 20:39:00,39.4,33.4,30.21,South,191,0.0,0.0,79,0.00,,SKC,0.00,VWS V13.01,2013-02-12 04:39:00,
2013-02-11 20:40:00,39.4,33.4,30.21,South,191,0.0,0.0,79,0.00,,SKC,0.00,VWS V13.01,2013-02-12 04:40:00,
2013-02-11 20:41:00,39.4,33.4,30.21,South,191,0.0,0.0,79,0.00,,SKC,0.00,VWS V13.01,2013-02-12 04:41:00,
2013-02-11 20:42:00,39.4,33.4,30.21,South,191,0.0,0.0,79,0.00,,SKC,0.00,VWS V13.01,2013-02-12 04:42:00,
2013-02-11 20:43:00,39.3,33.3,30.21,South,191,0.0,0.0,79,0.00,,SKC,0.00,VWS V13.01,2013-02-12 04:43:00,
2013-02-11 20:44:00,39.3,33.7,30.21,South,191,0.0,0.0,80,0.00,,SKC,0.00,VWS V13.01,2013-02-12 04:44:00,
2013-02-11 20:45:00,39.3,33.7,30.21,South,191,0.0,0.0,80,0.00,,SKC,0.00,VWS V13.01,2013-02-12 04:45:00,
2013-02-11 20:46:00,39.3,33.7,30.21,South,191,0.0,0.0,80,0.00,,SKC,0.00,VWS V13.01,2013-02-12 04:46:00,
2013-02-11 20:47:00,39.3,33.7,30.21,South,191,0.0,0.0,80,0.00,,SKC,0.00,VWS V13.01,2013-02-12 04:47:00,
2013-02-11 20:48:00,39.3,33.7,30.21,South,191,2.0,2.0,80,0.00,,SKC,0.00,VWS V13.01,2013-02-12 04:48:00,
2013-02-11 20:49:00,39.3,33.7,30.21,South,191,2.0,3.0,80,0.00,,SKC,0.00,VWS V13.01,2013-02-12 04:49:00,
2013-02-11 20:50:00,39.3,33.7,30.21,South,191,2.0,3.0,80,0.00,,SKC,0.00,VWS V13.01,2013-02-12 04:50:00,
2013-02-11 20:51:00,39.3,33.7,30.21,South,191,1.0,3.0,80,0.00,,SKC,0.00,VWS V13.01,2013-02-12 04:51:00,
2013-02-11 20:52:00,39.4,33.8,30.21,South,191,2.0,3.0,80,0.00,,SKC,0.00,VWS V13.01,2013-02-12 04:52:00,
2013-02-11 20:53:00,39.4,33.8,30.21,SSE,161,4.0,4.0,80,0.00,,SKC,0.00,VWS V13.01,2013-02-12 04:53:00,
2013-02-11 20:54:00,39.5,33.8,30.21,SSE,161,2.0,4.0,80,0.00,,SKC,0.00,VWS V13.01,2013-02-12 04:54:00,
2013-02-11 20:55:00,39.5,33.8,30.21,SSE,161,2.0,4.0,80,0.00,,SKC,0.00,VWS V13.01,2013-02-12 04:55:00,
2013-02-11 20:56:00,39.5,33.8,30.21,SSE,161,1.0,3.0,80,0.00,,SKC,0.00,VWS V13.01,2013-02-12 04:56:00,
2013-02-11 20:57:00,39.6,34.0,30.21,SSE,161,2.0,3.0,80,0.00,,SKC,0.00,VWS V13.01,2013-02-12 04:57:00,
2013-02-11 20:58:00,39.6,34.0,30.21,SSE,161,0.0,3.0,80,0.00,,SKC,0.00,VWS V13.01,2013-02-12 04:58:00,
2013-02-11 20:59:00,39.7,33.7,30.21,SSE,161,2.0,3.0,79,0.00,,SKC,0.00,VWS V13.01,2013-02-12 04:59:00,
2013-02-11 21:00:00,39.7,33.7,30.21,SSE,161,2.0,3.0,79,0.00,,SKC,0.00,VWS V13.01,2013-02-12 05:00:00,
2013-02-11 21:01:00,39.7,33.7,30.20,SSE,161,1.0,3.0,79,0.00,,SKC,0.00,VWS V13.01,2013-02-12 05:01:00,
2013-02-11 21:02:00,39.7,33.7,30.20,SSE,161,4.0,4.0,79,0.00,,SKC,0.00,VWS V13.01,2013-02-12 05:02:00,
2013-02-11 21:03:00,39.8,33.8,30.21,SSE,161,3.0,4.0,79,0.00,,SKC,0.00,VWS V13.01,2013-02-12 05:03:00,
2013-02-11 21:04:00,39.8,33.8,30.21,SSE,161,1.0,4.0,79,0.00,,SKC,0.00,VWS V13.01,2013-02-12 05:04:00,
2013-02-11 21:05:00,39.8,33.8,30.21,SSE,161,2.0,4.0,79,0.00,,SKC,0.00,VWS V13.01,2013-02-12 05:05:00,
2013-02-11 21:06:00,39.8,33.8,30.21,SSE,161,0.0,2.0,79,0.00,,SKC,0.00,VWS V13.01,2013-02-12 05:06:00,
2013-02-11 21:07:00,39.8,33.8,30.21,SSE,161,0.0,2.0,79,0.00,,SKC,0.00,VWS V13.01,2013-02-12 05:07:00,
2013-02-11 21:08:00,39.8,33.8,30.21,SSE,161,0.0,2.0,79,0.00,,SKC,0.00,VWS V13.01,2013-02-12 05:08:00,
2013-02-11 21:09:00,39.8,33.8,30.21,SSE,161,0.0,2.0,79,0.00,,SKC,0.00,VWS V13.01,2013-02-12 05:09:00,
2013-02-11 21:10:00,39.8,33.5,30.21,SSE,161,0.0,2.0,78,0.00,,SKC,0.00,VWS V13.01,2013-02-12 05:10:00,
2013-02-11 21:11:00,39.8,33.5,30.21,SSE,161,0.0,0.0,78,0.00,,SKC,0.00,VWS V13.01,2013-02-12 05:11:00,
2013-02-11 21:12:00,39.7,33.4,30.21,SSE,161,0.0,0.0,78,0.00,,SKC,0.00,VWS V13.01,2013-02-12 05:12:00,
2013-02-11 21:13:00,39.7,33.4,30.21,SSE,161,0.0,0.0,78,0.00,,SKC,0.00,VWS V13.01,2013-02-12 05:13:00,
2013-02-11 21:14:00,39.7,33.4,30.21,SSE,161,0.0,0.0,78,0.00,,SKC,0.00,VWS V13.01,2013-02-12 05:14:00,
2013-02-11 21:15:00,39.7,33.4,30.21,SSE,161,0.0,0.0,78,0.00,,SKC,0.00,VWS V13.01,2013-02-12 05:15:00,
2013-02-11 21:16:00,39.7,33.4,30.21,SSE,161,0.0,0.0,78,0.00,,SKC,0.00,VWS V13.01,2013-02-12 05:16:00,
2013-02-11 21:17:00,39.7,33.4,30.21,SSE,161,1.0,2.0,78,0.00,,SKC,0.00,VWS V13.01,2013-02-12 05:17:00,
2013-02-11 21:18:00,39.7,33.4,30.21,SSE,161,0.0,2.0,78,0.00,,SKC,0.00,VWS V13.01,2013-02-12 05:18:00,
2013-02-11 21:19:00,39.7,33.4,30.21,SSE,161,0.0,2.0,78,0.00,,SKC,0.00,VWS V13.01,2013-02-12 05:19:00,
2013-02-11 21:20:00,39.6,33.3,30.21,SSE,161,2.0,3.0,78,0.00,,SKC,0.00,VWS V13.01,2013-02-12 05:20:00,
2013-02-11 21:21:00,39.6,33.3,30.21,SSE,161,2.0,2.0,78,0.00,,SKC,0.00,VWS V13.01,2013-02-12 05:21:00,
2013-02-11 21:22:00,39.6,33.3,30.21,SSE,161,0.0,2.0,78,0.00,,SKC,0.00,VWS V13.01,2013-02-12 05:22:00,
2013-02-11 21:23:00,39.6,33.3,30.21,SSE,161,0.0,2.0,78,0.00,,SKC,0.00,VWS V13.01,2013-02-12 05:23:00,
2013-02-11 21:24:00,39.5,33.2,30.21,SSE,161,0.0,2.0,78,0.00,,SKC,0.00,VWS V13.01,2013-02-12 05:24:00,
2013-02-11 21:25:00,39.5,33.2,30.21,SSE,161,0.0,2.0,78,0.00,,SKC,0.00,VWS V13.01,2013-02-12 05:25:00,
2013-02-11 21:26:00,39.4,33.1,30.21,SSE,161,0.0,0.0,78,0.00,,SKC,0.00,VWS V13.01,2013-02-12 05:26:00,
2013-02-11 21:27:00,39.4,33.1,30.22,SSE,161,0.0,0.0,78,0.00,,SKC,0.00,VWS V13.01,2013-02-12 05:27:00,
2013-02-11 21:28:00,39.4,33.1,30.22,SSE,161,0.0,0.0,78,0.00,,SKC,0.00,VWS V13.01,2013-02-12 05:28:00,
2013-02-11 21:29:00,39.3,33.0,30.21,SSE,161,1.0,2.0,78,0.00,,SKC,0.00,VWS V13.01,2013-02-12 05:29:00,
2013-02-11 21:30:00,39.3,33.0,30.21,SSE,161,1.0,3.0,78,0.00,,SKC,0.00,VWS V13.01,2013-02-12 05:30:00,
2013-02-11 21:31:00,39.3,33.0,30.21,SSE,161,2.0,4.0,78,0.00,,SKC,0.00,VWS V13.01,2013-02-12 05:31:00,
2013-02-11 21:32:00,39.3,33.0,30.21,SSE,161,2.0,4.0,78,0.00,,SKC,0.00,VWS V13.01,2013-02-12 05:32:00,
2013-02-11 21:33:00,39.3,33.0,30.21,SSE,161,2.0,4.0,78,0.00,,SKC,0.00,VWS V13.01,2013-02-12 05:33:00,
2013-02-11 21:34:00,39.2,32.9,30.21,SSE,161,3.0,4.0,78,0.00,,SKC,0.00,VWS V13.01,2013-02-12 05:34:00,
2013-02-11 21:35:00,39.2,32.9,30.21,SSE,161,2.0,4.0,78,0.00,,SKC,0.00,VWS V13.01,2013-02-12 05:35:00,
2013-02-11 21:36:00,39.2,32.9,30.21,SSE,161,3.0,4.0,78,0.00,,SKC,0.00,VWS V13.01,2013-02-12 05:36:00,
2013-02-11 21:37:00,39.3,33.0,30.21,SSE,161,3.0,4.0,78,0.00,,SKC,0.00,VWS V13.01,2013-02-12 05:37:00,
2013-02-11 21:38:00,39.3,33.0,30.21,SSE,161,4.0,4.0,78,0.00,,SKC,0.00,VWS V13.01,2013-02-12 05:38:00,
2013-02-11 21:39:00,39.3,33.0,30.21,SSE,161,3.0,4.0,78,0.00,,SKC,0.00,VWS V13.01,2013-02-12 05:39:00,
2013-02-11 21:40:00,39.4,33.1,30.21,SSE,161,4.0,4.0,78,0.00,,SKC,0.00,VWS V13.01,2013-02-12 05:40:00,
2013-02-11 21:41:00,39.4,33.4,30.22,SSE,161,3.0,4.0,79,0.00,,SKC,0.00,VWS V13.01,2013-02-12 05:41:00,
2013-02-11 21:42:00,39.5,33.5,30.21,SSE,161,2.0,4.0,79,0.00,,SKC,0.00,VWS V13.01,2013-02-12 05:42:00,
2013-02-11 21:43:00,39.5,33.5,30.21,SSE,161,0.0,4.0,79,0.00,,SKC,0.00,VWS V13.01,2013-02-12 05:43:00,
2013-02-11 21:44:00,39.6,33.6,30.21,SSE,161,2.0,4.0,79,0.00,,SKC,0.00,VWS V13.01,2013-02-12 05:44:00,
2013-02-11 21:45:00,39.6,33.3,30.21,SSE,161,0.0,4.0,78,0.00,,SKC,0.00,VWS V13.01,2013-02-12 05:45:00,
2013-02-11 21:46:00,39.6,33.3,30.21,SSE,161,0.0,0.0,78,0.00,,SKC,0.00,VWS V13.01,2013-02-12 05:46:00,
2013-02-11 21:47:00,39.6,33.3,30.21,SSE,161,2.0,4.0,78,0.00,,SKC,0.00,VWS V13.01,2013-02-12 05:47:00,
2013-02-11 21:48:00,39.7,33.4,30.21,SSE,161,2.0,4.0,78,0.00,,SKC,0.00,VWS V13.01,2013-02-12 05:48:00,
2013-02-11 21:49:00,39.7,33.4,30.21,SSE,161,2.0,4.0,78,0.00,,SKC,0.00,VWS V13.01,2013-02-12 05:49:00,
2013-02-11 21:50:00,39.7,33.4,30.21,SSE,161,2.0,4.0,78,0.00,,SKC,0.00,VWS V13.01,2013-02-12 05:50:00,
2013-02-11 21:51:00,39.7,33.4,30.21,SSE,161,4.0,4.0,78,0.00,,SKC,0.00,VWS V13.01,2013-02-12 05:51:00,
2013-02-11 21:52:00,39.8,33.5,30.21,SSE,161,2.0,4.0,78,0.00,,SKC,0.00,VWS V13.01,2013-02-12 05:52:00,
2013-02-11 21:53:00,39.8,33.5,30.21,SSE,161,2.0,4.0,78,0.00,,SKC,0.00,VWS V13.01,2013-02-12 05:53:00,
2013-02-11 21:54:00,39.9,33.6,30.21,SSE,161,3.0,4.0,78,0.00,,SKC,0.00,VWS V13.01,2013-02-12 05:54:00,
2013-02-11 21:55:00,39.9,33.6,30.21,SSE,160,4.0,4.0,78,0.00,,SKC,0.00,VWS V13.01,2013-02-12 05:55:00,
2013-02-11 21:56:00,40.0,33.7,30.21,SSE,160,3.0,4.0,78,0.00,,SKC,0.00,VWS V13.01,2013-02-12 05:56:00,
2013-02-11 21:57:00,40.0,33.7,30.21,SSE,159,3.0,4.0,78,0.00,,SKC,0.00,VWS V13.01,2013-02-12 05:57:00,
2013-02-11 21:58:00,40.0,33.7,30.21,SSE,159,3.0,4.0,78,0.00,,SKC,0.00,VWS V13.01,2013-02-12 05:58:00,
2013-02-11 21:59:00,40.1,33.8,30.21,SSE,159,2.0,4.0,78,0.00,,SKC,0.00,VWS V13.01,2013-02-12 05:59:00,
2013-02-11 22:00:00,40.1,33.8,30.21,SSE,159,2.0,4.0,78,0.00,,SKC,0.00,VWS V13.01,2013-02-12 06:00:00,
2013-02-11 22:01:00,40.1,33.5,30.21,SSE,159,2.0,3.0,77,0.00,,SKC,0.00,VWS V13.01,2013-02-12 06:01:00,
2013-02-11 22:02:00,40.2,33.6,30.21,SSE,159,3.0,4.0,77,0.00,,SKC,0.00,VWS V13.01,2013-02-12 06:02:00,
2013-02-11 22:03:00,40.2,33.6,30.21,SSE,159,3.0,4.0,77,0.00,,SKC,0.00,VWS V13.01,2013-02-12 06:03:00,
2013-02-11 22:04:00,40.2,33.6,30.21,SSE,159,3.0,4.0,77,0.00,,SKC,0.00,VWS V13.01,2013-02-12 06:04:00,
2013-02-11 22:05:00,40.2,33.6,30.21,SSE,147,5.0,5.0,77,0.00,,SKC,0.00,VWS V13.01,2013-02-12 06:05:00,
2013-02-11 22:06:00,40.2,33.6,30.21,SSE,147,4.0,5.0,77,0.00,,SKC,0.00,VWS V13.01,2013-02-12 06:06:00,
2013-02-11 22:07:00,40.1,33.5,30.21,SSE,147,3.0,5.0,77,0.00,,SKC,0.00,VWS V13.01,2013-02-12 06:07:00,
2013-02-11 22:08:00,40.1,33.5,30.21,SSE,147,4.0,5.0,77,0.00,,SKC,0.00,VWS V13.01,2013-02-12 06:08:00,
2013-02-11 22:09:00,40.1,33.5,30.21,SSE,147,4.0,5.0,77,0.00,,SKC,0.00,VWS V13.01,2013-02-12 06:09:00,
2013-02-11 22:10:00,40.1,33.5,30.21,SSE,147,3.0,5.0,77,0.00,,SKC,0.00,VWS V13.01,2013-02-12 06:10:00,
2013-02-11 22:11:00,40.1,33.5,30.21,SE,136,2.0,5.0,77,0.00,,SKC,0.00,VWS V13.01,2013-02-12 06:11:00,
2013-02-11 22:12:00,40.1,33.5,30.21,SE,136,3.0,5.0,77,0.00,,SKC,0.00,VWS V13.01,2013-02-12 06:12:00,
2013-02-11 22:13:00,40.1,33.5,30.21,SE,136,2.0,5.0,77,0.00,,SKC,0.00,VWS V13.01,2013-02-12 06:13:00,
2013-02-11 22:14:00,40.1,33.5,30.21,SE,136,3.0,5.0,77,0.00,,SKC,0.00,VWS V13.01,2013-02-12 06:14:00,
2013-02-11 22:15:00,40.2,33.6,30.21,SE,136,3.0,5.0,77,0.00,,SKC,0.00,VWS V13.01,2013-02-12 06:15:00,
2013-02-11 22:16:00,40.2,33.6,30.21,SE,138,3.0,6.0,77,0.00,,SKC,0.00,VWS V13.01,2013-02-12 06:16:00,
2013-02-11 22:17:00,40.2,33.6,30.21,SE,138,4.0,6.0,77,0.00,,SKC,0.00,VWS V13.01,2013-02-12 06:17:00,
2013-02-11 22:18:00,40.2,33.6,30.21,SE,138,5.0,6.0,77,0.00,,SKC,0.00,VWS V13.01,2013-02-12 06:18:00,
2013-02-11 22:19:00,40.2,33.6,30.21,SE,138,3.0,6.0,77,0.00,,SKC,0.00,VWS V13.01,2013-02-12 06:19:00,
2013-02-11 22:20:00,40.3,33.7,30.21,SE,138,3.0,4.0,77,0.00,,SKC,0.00,VWS V13.01,2013-02-12 06:20:00,
2013-02-11 22:21:00,40.3,33.7,30.21,SE,138,4.0,4.0,77,0.00,,SKC,0.00,VWS V13.01,2013-02-12 06:21:00,
2013-02-11 22:22:00,40.3,33.7,30.21,SE,138,4.0,4.0,77,0.00,,SKC,0.00,VWS V13.01,2013-02-12 06:22:00,
2013-02-11 22:23:00,40.4,33.8,30.21,SE,138,2.0,4.0,77,0.00,,SKC,0.00,VWS V13.01,2013-02-12 06:23:00,
2013-02-11 22:24:00,40.4,33.8,30.21,SE,138,0.0,4.0,77,0.00,,SKC,0.00,VWS V13.01,2013-02-12 06:24:00,
2013-02-11 22:25:00,40.4,33.8,30.21,SE,138,2.0,4.0,77,0.00,,SKC,0.00,VWS V13.01,2013-02-12 06:25:00,
2013-02-11 22:26:00,40.4,33.8,30.21,SE,138,0.0,2.0,77,0.00,,SKC,0.00,VWS V13.01,2013-02-12 06:26:00,
2013-02-11 22:27:00,40.4,33.5,30.21,SE,138,0.0,2.0,76,0.00,,SKC,0.00,VWS V13.01,2013-02-12 06:27:00,
2013-02-11 22:28:00,40.4,33.5,30.21,SE,138,1.0,2.0,76,0.00,,SKC,0.00,VWS V13.01,2013-02-12 06:28:00,
2013-02-11 22:29:00,40.4,33.5,30.21,SE,138,0.0,2.0,76,0.00,,SKC,0.00,VWS V13.01,2013-02-12 06:29:00,
2013-02-11 22:30:00,40.3,33.3,30.21,SE,138,0.0,2.0,76,0.00,,SKC,0.00,VWS V13.01,2013-02-12 06:30:00,
2013-02-11 22:31:00,40.3,33.3,30.21,SE,138,3.0,3.0,76,0.00,,SKC,0.00,VWS V13.01,2013-02-12 06:31:00,
2013-02-11 22:32:00,40.3,33.3,30.21,SE,138,2.0,4.0,76,0.00,,SKC,0.00,VWS V13.01,2013-02-12 06:32:00,
2013-02-11 22:33:00,40.2,33.2,30.21,SE,138,3.0,4.0,76,0.00,,SKC,0.00,VWS V13.01,2013-02-12 06:33:00,
2013-02-11 22:34:00,40.2,33.2,30.21,SE,138,3.0,4.0,76,0.00,,SKC,0.00,VWS V13.01,2013-02-12 06:34:00,
2013-02-11 22:35:00,40.2,33.2,30.21,SE,136,3.0,5.0,76,0.00,,SKC,0.00,VWS V13.01,2013-02-12 06:35:00,
2013-02-11 22:36:00,40.2,33.2,30.21,SE,136,3.0,4.0,76,0.00,,SKC,0.00,VWS V13.01,2013-02-12 06:36:00,
2013-02-11 22:37:00,40.2,33.6,30.21,SE,136,3.0,4.0,77,0.00,,SKC,0.00,VWS V13.01,2013-02-12 06:37:00,
2013-02-11 22:38:00,40.2,33.2,30.21,SE,136,2.0,4.0,76,0.00,,SKC,0.00,VWS V13.01,2013-02-12 06:38:00,
2013-02-11 22:39:00,40.2,33.2,30.21,SE,136,2.0,4.0,76,0.00,,SKC,0.00,VWS V13.01,2013-02-12 06:39:00,
2013-02-11 22:40:00,40.2,33.2,30.21,SE,136,1.0,3.0,76,0.00,,SKC,0.00,VWS V13.01,2013-02-12 06:40:00,
2013-02-11 22:41:00,40.2,33.2,30.21,SE,136,1.0,3.0,76,0.00,,SKC,0.00,VWS V13.01,2013-02-12 06:41:00,
2013-02-11 22:42:00,40.2,33.2,30.21,SE,136,1.0,3.0,76,0.00,,SKC,0.00,VWS V13.01,2013-02-12 06:42:00,
2013-02-11 22:43:00,40.2,33.2,30.21,SE,136,2.0,3.0,76,0.00,,SKC,0.00,VWS V13.01,2013-02-12 06:43:00,
2013-02-11 22:44:00,40.2,33.2,30.21,SE,136,2.0,3.0,76,0.00,,SKC,0.00,VWS V13.01,2013-02-12 06:44:00,
2013-02-11 22:45:00,40.2,33.2,30.21,SE,136,3.0,4.0,76,0.00,,SKC,0.00,VWS V13.01,2013-02-12 06:45:00,
2013-02-11 22:46:00,40.2,33.2,30.21,SE,136,3.0,4.0,76,0.00,,SKC,0.00,VWS V13.01,2013-02-12 06:46:00,
2013-02-11 22:47:00,40.2,33.2,30.21,SE,136,3.0,4.0,76,0.00,,SKC,0.00,VWS V13.01,2013-02-12 06:47:00,
2013-02-11 22:48:00,40.2,33.2,30.21,SE,136,3.0,4.0,76,0.00,,SKC,0.00,VWS V13.01,2013-02-12 06:48:00,
2013-02-11 22:49:00,40.2,33.2,30.21,SE,136,3.0,5.0,76,0.00,,SKC,0.00,VWS V13.01,2013-02-12 06:49:00,
2013-02-11 22:50:00,40.2,33.2,30.21,SE,136,4.0,5.0,76,0.00,,SKC,0.00,VWS V13.01,2013-02-12 06:50:00,
2013-02-11 22:51:00,40.2,33.2,30.21,SE,136,4.0,4.0,76,0.00,,SKC,0.00,VWS V13.01,2013-02-12 06:51:00,
2013-02-11 22:52:00,40.2,33.2,30.21,SE,136,4.0,5.0,76,0.00,,SKC,0.00,VWS V13.01,2013-02-12 06:52:00,
2013-02-11 22:53:00,40.2,33.2,30.21,SE,136,4.0,5.0,76,0.00,,SKC,0.00,VWS V13.01,2013-02-12 06:53:00,
2013-02-11 22:54:00,40.2,33.2,30.21,SE,137,4.0,5.0,76,0.00,,SKC,0.00,VWS V13.01,2013-02-12 06:54:00,
2013-02-11 22:55:00,40.2,33.2,30.21,SE,137,1.0,5.0,76,0.00,,SKC,0.00,VWS V13.01,2013-02-12 06:55:00,
2013-02-11 22:56:00,40.2,33.2,30.22,SE,137,3.0,3.0,76,0.00,,SKC,0.00,VWS V13.01,2013-02-12 06:56:00,
2013-02-11 22:57:00,40.2,33.2,30.22,SE,137,3.0,5.0,76,0.00,,SKC,0.00,VWS V13.01,2013-02-12 06:57:00,
2013-02-11 22:58:00,40.2,33.2,30.22,SE,137,2.0,5.0,76,0.00,,SKC,0.00,VWS V13.01,2013-02-12 06:58:00,
2013-02-11 22:59:00,40.2,33.2,30.22,SE,137,3.0,5.0,76,0.00,,SKC,0.00,VWS V13.01,2013-02-12 06:59:00,
2013-02-11 23:00:00,40.3,33.3,30.22,SE,137,3.0,5.0,76,0.00,,SKC,0.00,VWS V13.01,2013-02-12 07:00:00,
2013-02-11 23:01:00,40.3,33.3,30.22,SE,137,3.0,4.0,76,0.00,,SKC,0.00,VWS V13.01,2013-02-12 07:01:00,
2013-02-11 23:02:00,40.3,33.3,30.21,SE,137,3.0,4.0,76,0.00,,SKC,0.00,VWS V13.01,2013-02-12 07:02:00,
2013-02-11 23:03:00,40.3,33.3,30.21,SE,137,3.0,4.0,76,0.00,,SKC,0.00,VWS V13.01,2013-02-12 07:03:00,
2013-02-11 23:04:00,40.3,33.3,30.21,SE,137,4.0,5.0,76,0.00,,SKC,0.00,VWS V13.01,2013-02-12 07:04:00,
2013-02-11 23:05:00,40.2,33.2,30.21,SE,144,4.0,5.0,76,0.00,,SKC,0.00,VWS V13.01,2013-02-12 07:05:00,
2013-02-11 23:06:00,40.2,33.2,30.22,SE,144,3.0,5.0,76,0.00,,SKC,0.00,VWS V13.01,2013-02-12 07:06:00,
2013-02-11 23:07:00,40.2,33.2,30.22,SE,144,4.0,5.0,76,0.00,,SKC,0.00,VWS V13.01,2013-02-12 07:07:00,
2013-02-11 23:08:00,40.2,33.2,30.22,SE,144,1.0,5.0,76,0.00,,SKC,0.00,VWS V13.01,2013-02-12 07:08:00,
2013-02-11 23:09:00,40.2,33.2,30.22,SE,144,2.0,5.0,76,0.00,,SKC,0.00,VWS V13.01,2013-02-12 07:09:00,
2013-02-11 23:10:00,40.2,33.2,30.22,SE,144,1.0,5.0,76,0.00,,SKC,0.00,VWS V13.01,2013-02-12 07:10:00,
2013-02-11 23:11:00,40.2,33.2,30.22,SE,144,2.0,4.0,76,0.00,,SKC,0.00,VWS V13.01,2013-02-12 07:11:00,
2013-02-11 23:12:00,40.2,33.2,30.22,SE,144,3.0,4.0,76,0.00,,SKC,0.00,VWS V13.01,2013-02-12 07:12:00,
2013-02-11 23:13:00,40.2,33.2,30.22,SE,144,3.0,5.0,76,0.00,,SKC,0.00,VWS V13.01,2013-02-12 07:13:00,
2013-02-11 23:14:00,40.2,33.2,30.22,SE,144,3.0,5.0,76,0.00,,SKC,0.00,VWS V13.01,2013-02-12 07:14:00,
2013-02-11 23:15:00,40.2,33.2,30.22,SE,144,4.0,5.0,76,0.00,,SKC,0.00,VWS V13.01,2013-02-12 07:15:00,
2013-02-11 23:16:00,40.2,33.2,30.22,SE,137,3.0,5.0,76,0.00,,SKC,0.00,VWS V13.01,2013-02-12 07:16:00,
2013-02-11 23:17:00,40.2,33.2,30.22,SE,137,5.0,6.0,76,0.00,,SKC,0.00,VWS V13.01,2013-02-12 07:17:00,
2013-02-11 23:18:00,40.2,33.2,30.22,SE,137,4.0,6.0,76,0.00,,SKC,0.00,VWS V13.01,2013-02-12 07:18:00,
2013-02-11 23:19:00,40.1,33.2,30.22,SE,144,2.0,6.0,76,0.00,,SKC,0.00,VWS V13.01,2013-02-12 07:19:00,
2013-02-11 23:20:00,40.1,33.2,30.22,SE,141,5.0,6.0,76,0.00,,SKC,0.00,VWS V13.01,2013-02-12 07:20:00,
2013-02-11 23:21:00,40.1,33.2,30.22,SSE,149,4.0,5.0,76,0.00,,SKC,0.00,VWS V13.01,2013-02-12 07:21:00,
2013-02-11 23:22:00,40.1,33.2,30.22,SE,138,4.0,5.0,76,0.00,,SKC,0.00,VWS V13.01,2013-02-12 07:22:00,
2013-02-11 23:23:00,40.1,33.2,30.22,SE,140,4.0,5.0,76,0.00,,SKC,0.00,VWS V13.01,2013-02-12 07:23:00,
2013-02-11 23:24:00,40.1,33.2,30.22,SE,140,4.0,5.0,76,0.00,,SKC,0.00,VWS V13.01,2013-02-12 07:24:00,
2013-02-11 23:25:00,40.1,33.2,30.22,SE,140,4.0,5.0,76,0.00,,SKC,0.00,VWS V13.01,2013-02-12 07:25:00,
2013-02-11 23:26:00,40.1,33.2,30.22,SE,129,4.0,5.0,76,0.00,,SKC,0.00,VWS V13.01,2013-02-12 07:26:00,
2013-02-11 23:27:00,40.1,33.2,30.22,SE,130,2.0,5.0,76,0.00,,SKC,0.00,VWS V13.01,2013-02-12 07:27:00,
2013-02-11 23:28:00,40.1,33.2,30.22,SE,130,5.0,5.0,76,0.00,,SKC,0.00,VWS V13.01,2013-02-12 07:28:00,
2013-02-11 23:29:00,40.1,33.2,30.23,SE,130,3.0,5.0,76,0.00,,SKC,0.00,VWS V13.01,2013-02-12 07:29:00,
2013-02-11 23:30:00,40.1,33.2,30.23,SE,134,3.0,5.0,76,0.00,,SKC,0.00,VWS V13.01,2013-02-12 07:30:00,
2013-02-11 23:31:00,40.1,33.2,30.23,SE,134,3.0,5.0,76,0.00,,SKC,0.00,VWS V13.01,2013-02-12 07:31:00,
2013-02-11 23:32:00,40.1,33.2,30.23,SE,134,3.0,5.0,76,0.00,,SKC,0.00,VWS V13.01,2013-02-12 07:32:00,
2013-02-11 23:33:00,40.1,33.2,30.23,SE,134,3.0,5.0,76,0.00,,SKC,0.00,VWS V13.01,2013-02-12 07:33:00,
2013-02-11 23:34:00,40.1,33.2,30.23,SE,135,4.0,5.0,76,0.00,,SKC,0.00,VWS V13.01,2013-02-12 07:34:00,
2013-02-11 23:35:00,40.1,33.2,30.23,SE,135,3.0,5.0,76,0.00,,SKC,0.00,VWS V13.01,2013-02-12 07:35:00,
2013-02-11 23:36:00,40.1,33.2,30.23,SE,134,4.0,4.0,76,0.00,,SKC,0.00,VWS V13.01,2013-02-12 07:36:00,
2013-02-11 23:37:00,40.1,33.2,30.23,SE,135,3.0,5.0,76,0.00,,SKC,0.00,VWS V13.01,2013-02-12 07:37:00,
2013-02-11 23:38:00,40.1,33.2,30.23,SE,137,5.0,6.0,76,0.00,,SKC,0.00,VWS V13.01,2013-02-12 07:38:00,
2013-02-11 23:39:00,40.1,33.2,30.23,SE,136,2.0,6.0,76,0.00,,SKC,0.00,VWS V13.01,2013-02-12 07:39:00,
2013-02-11 23:40:00,40.0,33.1,30.23,SE,136,4.0,6.0,76,0.00,,SKC,0.00,VWS V13.01,2013-02-12 07:40:00,
2013-02-11 23:41:00,40.0,33.1,30.23,SE,137,3.0,5.0,76,0.00,,SKC,0.00,VWS V13.01,2013-02-12 07:41:00,
2013-02-11 23:42:00,40.0,33.1,30.23,SE,136,2.0,5.0,76,0.00,,SKC,0.00,VWS V13.01,2013-02-12 07:42:00,
2013-02-11 23:43:00,40.0,33.1,30.23,SE,135,2.0,5.0,76,0.00,,SKC,0.00,VWS V13.01,2013-02-12 07:43:00,
2013-02-11 23:44:00,40.0,33.1,30.23,SE,135,2.0,5.0,76,0.00,,SKC,0.00,VWS V13.01,2013-02-12 07:44:00,
2013-02-11 23:45:00,40.0,33.1,30.23,SE,132,3.0,6.0,76,0.00,,SKC,0.00,VWS V13.01,2013-02-12 07:45:00,
2013-02-11 23:46:00,39.9,33.0,30.23,SE,129,2.0,4.0,76,0.00,,SKC,0.00,VWS V13.01,2013-02-12 07:46:00,
2013-02-11 23:47:00,39.9,33.0,30.23,SE,130,4.0,5.0,76,0.00,,SKC,0.00,VWS V13.01,2013-02-12 07:47:00,
2013-02-11 23:48:00,39.9,33.0,30.23,SE,130,2.0,5.0,76,0.00,,SKC,0.00,VWS V13.01,2013-02-12 07:48:00,
2013-02-11 23:49:00,39.9,33.0,30.23,SE,131,3.0,5.0,76,0.00,,SKC,0.00,VWS V13.01,2013-02-12 07:49:00,
2013-02-11 23:50:00,39.9,33.0,30.23,SE,131,2.0,5.0,76,0.00,,SKC,0.00,VWS V13.01,2013-02-12 07:50:00,
2013-02-11 23:51:00,39.9,33.0,30.23,SE,131,4.0,5.0,76,0.00,,SKC,0.00,VWS V13.01,2013-02-12 07:51:00,
2013-02-11 23:52:00,39.9,33.0,30.23,SE,131,1.0,5.0,76,0.00,,SKC,0.00,VWS V13.01,2013-02-12 07:52:00,
2013-02-11 23:53:00,39.9,33.0,30.23,SE,131,3.0,5.0,76,0.00,,SKC,0.00,VWS V13.01,2013-02-12 07:53:00,
2013-02-11 23:54:00,39.9,33.0,30.23,SE,131,3.0,5.0,76,0.00,,SKC,0.00,VWS V13.01,2013-02-12 07:54:00,
2013-02-11 23:55:00,39.9,33.0,30.23,SE,131,3.0,5.0,76,0.00,,SKC,0.00,VWS V13.01,2013-02-12 07:55:00,
2013-02-11 23:56:00,40.0,33.1,30.23,SE,132,2.0,4.0,76,0.00,,SKC,0.00,VWS V13.01,2013-02-12 07:56:00,
2013-02-11 23:57:00,39.9,33.0,30.23,SE,132,4.0,4.0,76,0.00,,SKC,0.00,VWS V13.01,2013-02-12 07:57:00,
2013-02-11 23:58:00,40.0,33.1,30.23,SE,132,3.0,5.0,76,0.00,,SKC,0.00,VWS V13.01,2013-02-12 07:58:00,
2013-02-11 23:59:00,39.9,33.0,30.23,SE,136,4.0,6.0,76,0.00,,SKC,0.00,VWS V13.01,2013-02-12 07:59:00,